<?xml version="1.0" encoding="UTF-8" standalone="no" ?>
<gpx xmlns="http://www.topografix.com/GPX/1/1" xmlns:xsi="http://www.w3.org/2001/XMLSchema-instance" xsi:schemaLocation="http://www.topografix.com/GPX/1/1 http://www.topografix.com/GPX/1/1/gpx.xsd" version="1.1" creator="VisuGPX - https://www.visugpx.com">
  <metadata>
    <name>lundi 2015 09 21</name>
    <desc><![CDATA[rando du lundi]]></desc>
  </metadata>
  <trk>
    <name><![CDATA[lundi 2015 09 21]]></name>
    <trkseg>
      <trkpt lat="48.85733" lon="2.34725">
        <ele>41.599998474121</ele>
        <time>2015-09-21T18:19:12.000Z</time>
      </trkpt>
      <trkpt lat="48.85742" lon="2.34723">
        <ele>34.599998474121</ele>
        <time>2015-09-21T18:19:15.000Z</time>
      </trkpt>
      <trkpt lat="48.85741" lon="2.34718">
        <ele>30.799999237061</ele>
        <time>2015-09-21T18:19:17.000Z</time>
      </trkpt>
      <trkpt lat="48.85734" lon="2.347">
        <ele>43.200000762939</ele>
        <time>2015-09-21T18:19:21.000Z</time>
      </trkpt>
      <trkpt lat="48.85729" lon="2.34703">
        <ele>45.799999237061</ele>
        <time>2015-09-21T18:19:22.000Z</time>
      </trkpt>
      <trkpt lat="48.85724" lon="2.34698">
        <ele>45</ele>
        <time>2015-09-21T18:19:24.000Z</time>
      </trkpt>
      <trkpt lat="48.85718" lon="2.34687">
        <ele>42.599998474121</ele>
        <time>2015-09-21T18:19:27.000Z</time>
      </trkpt>
      <trkpt lat="48.85705" lon="2.34682">
        <ele>44.799999237061</ele>
        <time>2015-09-21T18:19:32.000Z</time>
      </trkpt>
      <trkpt lat="48.85686" lon="2.34675">
        <ele>40.599998474121</ele>
        <time>2015-09-21T18:19:39.000Z</time>
      </trkpt>
      <trkpt lat="48.85668" lon="2.34664">
        <ele>40</ele>
        <time>2015-09-21T18:19:46.000Z</time>
      </trkpt>
      <trkpt lat="48.85652" lon="2.34652">
        <ele>39.200000762939</ele>
        <time>2015-09-21T18:19:52.000Z</time>
      </trkpt>
      <trkpt lat="48.85635" lon="2.34643">
        <ele>38.599998474121</ele>
        <time>2015-09-21T18:19:57.000Z</time>
      </trkpt>
      <trkpt lat="48.85617" lon="2.34637">
        <ele>38.799999237061</ele>
        <time>2015-09-21T18:20:02.000Z</time>
      </trkpt>
      <trkpt lat="48.85596" lon="2.34628">
        <ele>39.599998474121</ele>
        <time>2015-09-21T18:20:07.000Z</time>
      </trkpt>
      <trkpt lat="48.85577" lon="2.34617">
        <ele>42</ele>
        <time>2015-09-21T18:20:12.000Z</time>
      </trkpt>
      <trkpt lat="48.85559" lon="2.34603">
        <ele>44.400001525879</ele>
        <time>2015-09-21T18:20:17.000Z</time>
      </trkpt>
      <trkpt lat="48.8554" lon="2.34585">
        <ele>45.799999237061</ele>
        <time>2015-09-21T18:20:22.000Z</time>
      </trkpt>
      <trkpt lat="48.85523" lon="2.34571">
        <ele>47.200000762939</ele>
        <time>2015-09-21T18:20:27.000Z</time>
      </trkpt>
      <trkpt lat="48.85507" lon="2.34553">
        <ele>49</ele>
        <time>2015-09-21T18:20:32.000Z</time>
      </trkpt>
      <trkpt lat="48.85489" lon="2.34536">
        <ele>50.599998474121</ele>
        <time>2015-09-21T18:20:37.000Z</time>
      </trkpt>
      <trkpt lat="48.85474" lon="2.3452">
        <ele>52</ele>
        <time>2015-09-21T18:20:41.000Z</time>
      </trkpt>
      <trkpt lat="48.85459" lon="2.34504">
        <ele>53.400001525879</ele>
        <time>2015-09-21T18:20:45.000Z</time>
      </trkpt>
      <trkpt lat="48.85445" lon="2.34495">
        <ele>52</ele>
        <time>2015-09-21T18:20:49.000Z</time>
      </trkpt>
      <trkpt lat="48.85441" lon="2.34494">
        <ele>51.799999237061</ele>
        <time>2015-09-21T18:20:51.000Z</time>
      </trkpt>
      <trkpt lat="48.85442" lon="2.3449">
        <ele>51.400001525879</ele>
        <time>2015-09-21T18:20:55.000Z</time>
      </trkpt>
      <trkpt lat="48.85429" lon="2.34472">
        <ele>50.799999237061</ele>
        <time>2015-09-21T18:21:03.000Z</time>
      </trkpt>
      <trkpt lat="48.85411" lon="2.34453">
        <ele>50</ele>
        <time>2015-09-21T18:21:08.000Z</time>
      </trkpt>
      <trkpt lat="48.85396" lon="2.34436">
        <ele>48.200000762939</ele>
        <time>2015-09-21T18:21:13.000Z</time>
      </trkpt>
      <trkpt lat="48.8538" lon="2.34416">
        <ele>42.799999237061</ele>
        <time>2015-09-21T18:21:22.000Z</time>
      </trkpt>
      <trkpt lat="48.85363" lon="2.34405">
        <ele>41.400001525879</ele>
        <time>2015-09-21T18:21:27.000Z</time>
      </trkpt>
      <trkpt lat="48.85343" lon="2.34402">
        <ele>42.599998474121</ele>
        <time>2015-09-21T18:21:33.000Z</time>
      </trkpt>
      <trkpt lat="48.85326" lon="2.34392">
        <ele>45.799999237061</ele>
        <time>2015-09-21T18:21:39.000Z</time>
      </trkpt>
      <trkpt lat="48.85308" lon="2.34383">
        <ele>48.599998474121</ele>
        <time>2015-09-21T18:21:44.000Z</time>
      </trkpt>
      <trkpt lat="48.8529" lon="2.34375">
        <ele>51.400001525879</ele>
        <time>2015-09-21T18:21:49.000Z</time>
      </trkpt>
      <trkpt lat="48.85271" lon="2.34366">
        <ele>55.799999237061</ele>
        <time>2015-09-21T18:21:55.000Z</time>
      </trkpt>
      <trkpt lat="48.85253" lon="2.34357">
        <ele>59.200000762939</ele>
        <time>2015-09-21T18:22:00.000Z</time>
      </trkpt>
      <trkpt lat="48.85234" lon="2.34348">
        <ele>62.200000762939</ele>
        <time>2015-09-21T18:22:05.000Z</time>
      </trkpt>
      <trkpt lat="48.85215" lon="2.34338">
        <ele>64.800003051758</ele>
        <time>2015-09-21T18:22:10.000Z</time>
      </trkpt>
      <trkpt lat="48.85196" lon="2.34332">
        <ele>66.599998474121</ele>
        <time>2015-09-21T18:22:14.000Z</time>
      </trkpt>
      <trkpt lat="48.85174" lon="2.34328">
        <ele>66.599998474121</ele>
        <time>2015-09-21T18:22:19.000Z</time>
      </trkpt>
      <trkpt lat="48.85155" lon="2.34326">
        <ele>63.599998474121</ele>
        <time>2015-09-21T18:22:23.000Z</time>
      </trkpt>
      <trkpt lat="48.85136" lon="2.34316">
        <ele>64.199996948242</ele>
        <time>2015-09-21T18:22:29.000Z</time>
      </trkpt>
      <trkpt lat="48.85118" lon="2.34306">
        <ele>62.599998474121</ele>
        <time>2015-09-21T18:22:35.000Z</time>
      </trkpt>
      <trkpt lat="48.85098" lon="2.343">
        <ele>60.400001525879</ele>
        <time>2015-09-21T18:22:41.000Z</time>
      </trkpt>
      <trkpt lat="48.8508" lon="2.34291">
        <ele>59</ele>
        <time>2015-09-21T18:22:47.000Z</time>
      </trkpt>
      <trkpt lat="48.85073" lon="2.34283">
        <ele>56</ele>
        <time>2015-09-21T18:22:54.000Z</time>
      </trkpt>
      <trkpt lat="48.85066" lon="2.34296">
        <ele>54.400001525879</ele>
        <time>2015-09-21T18:23:00.000Z</time>
      </trkpt>
      <trkpt lat="48.85055" lon="2.34319">
        <ele>55.400001525879</ele>
        <time>2015-09-21T18:23:07.000Z</time>
      </trkpt>
      <trkpt lat="48.85046" lon="2.34346">
        <ele>56</ele>
        <time>2015-09-21T18:23:13.000Z</time>
      </trkpt>
      <trkpt lat="48.85034" lon="2.34371">
        <ele>55.799999237061</ele>
        <time>2015-09-21T18:23:18.000Z</time>
      </trkpt>
      <trkpt lat="48.8503" lon="2.34398">
        <ele>54.200000762939</ele>
        <time>2015-09-21T18:23:23.000Z</time>
      </trkpt>
      <trkpt lat="48.85027" lon="2.34431">
        <ele>54</ele>
        <time>2015-09-21T18:23:28.000Z</time>
      </trkpt>
      <trkpt lat="48.85025" lon="2.3446">
        <ele>54</ele>
        <time>2015-09-21T18:23:33.000Z</time>
      </trkpt>
      <trkpt lat="48.85024" lon="2.34489">
        <ele>54.200000762939</ele>
        <time>2015-09-21T18:23:38.000Z</time>
      </trkpt>
      <trkpt lat="48.85021" lon="2.34518">
        <ele>54.599998474121</ele>
        <time>2015-09-21T18:23:46.000Z</time>
      </trkpt>
      <trkpt lat="48.85017" lon="2.34546">
        <ele>54.799999237061</ele>
        <time>2015-09-21T18:23:53.000Z</time>
      </trkpt>
      <trkpt lat="48.85009" lon="2.34573">
        <ele>55.400001525879</ele>
        <time>2015-09-21T18:23:58.000Z</time>
      </trkpt>
      <trkpt lat="48.85003" lon="2.34599">
        <ele>55.599998474121</ele>
        <time>2015-09-21T18:24:03.000Z</time>
      </trkpt>
      <trkpt lat="48.84995" lon="2.34629">
        <ele>55.400001525879</ele>
        <time>2015-09-21T18:24:08.000Z</time>
      </trkpt>
      <trkpt lat="48.84991" lon="2.34663">
        <ele>57.400001525879</ele>
        <time>2015-09-21T18:24:13.000Z</time>
      </trkpt>
      <trkpt lat="48.84987" lon="2.34691">
        <ele>57.799999237061</ele>
        <time>2015-09-21T18:24:17.000Z</time>
      </trkpt>
      <trkpt lat="48.84983" lon="2.3472">
        <ele>59.799999237061</ele>
        <time>2015-09-21T18:24:21.000Z</time>
      </trkpt>
      <trkpt lat="48.84976" lon="2.34751">
        <ele>60.599998474121</ele>
        <time>2015-09-21T18:24:26.000Z</time>
      </trkpt>
      <trkpt lat="48.84972" lon="2.3478">
        <ele>59.599998474121</ele>
        <time>2015-09-21T18:24:32.000Z</time>
      </trkpt>
      <trkpt lat="48.84975" lon="2.34794">
        <ele>57</ele>
        <time>2015-09-21T18:24:37.000Z</time>
      </trkpt>
      <trkpt lat="48.84957" lon="2.34784">
        <ele>55.799999237061</ele>
        <time>2015-09-21T18:24:45.000Z</time>
      </trkpt>
      <trkpt lat="48.84943" lon="2.34781">
        <ele>55.400001525879</ele>
        <time>2015-09-21T18:24:51.000Z</time>
      </trkpt>
      <trkpt lat="48.8493" lon="2.34802">
        <ele>56.400001525879</ele>
        <time>2015-09-21T18:24:54.000Z</time>
      </trkpt>
      <trkpt lat="48.84928" lon="2.34807">
        <ele>57</ele>
        <time>2015-09-21T18:24:55.000Z</time>
      </trkpt>
      <trkpt lat="48.84919" lon="2.34832">
        <ele>58.200000762939</ele>
        <time>2015-09-21T18:24:59.000Z</time>
      </trkpt>
      <trkpt lat="48.84917" lon="2.34859">
        <ele>59.200000762939</ele>
        <time>2015-09-21T18:25:13.000Z</time>
      </trkpt>
      <trkpt lat="48.84904" lon="2.34857">
        <ele>63.200000762939</ele>
        <time>2015-09-21T18:25:30.000Z</time>
      </trkpt>
      <trkpt lat="48.84886" lon="2.34841">
        <ele>67.199996948242</ele>
        <time>2015-09-21T18:25:39.000Z</time>
      </trkpt>
      <trkpt lat="48.84875" lon="2.34839">
        <ele>70.599998474121</ele>
        <time>2015-09-21T18:25:48.000Z</time>
      </trkpt>
      <trkpt lat="48.84869" lon="2.3484">
        <ele>71.400001525879</ele>
        <time>2015-09-21T18:25:53.000Z</time>
      </trkpt>
      <trkpt lat="48.84865" lon="2.34838">
        <ele>72.599998474121</ele>
        <time>2015-09-21T18:25:56.000Z</time>
      </trkpt>
      <trkpt lat="48.84848" lon="2.34843">
        <ele>75</ele>
        <time>2015-09-21T18:26:02.000Z</time>
      </trkpt>
      <trkpt lat="48.84827" lon="2.34851">
        <ele>77</ele>
        <time>2015-09-21T18:26:08.000Z</time>
      </trkpt>
      <trkpt lat="48.84806" lon="2.34852">
        <ele>77.599998474121</ele>
        <time>2015-09-21T18:26:12.000Z</time>
      </trkpt>
      <trkpt lat="48.84784" lon="2.34849">
        <ele>77.199996948242</ele>
        <time>2015-09-21T18:26:17.000Z</time>
      </trkpt>
      <trkpt lat="48.84774" lon="2.34851">
        <ele>76.800003051758</ele>
        <time>2015-09-21T18:26:19.000Z</time>
      </trkpt>
      <trkpt lat="48.8476" lon="2.34849">
        <ele>76.800003051758</ele>
        <time>2015-09-21T18:26:23.000Z</time>
      </trkpt>
      <trkpt lat="48.84751" lon="2.34848">
        <ele>75.800003051758</ele>
        <time>2015-09-21T18:26:28.000Z</time>
      </trkpt>
      <trkpt lat="48.84741" lon="2.34848">
        <ele>73.800003051758</ele>
        <time>2015-09-21T18:26:39.000Z</time>
      </trkpt>
      <trkpt lat="48.84738" lon="2.34848">
        <ele>73.199996948242</ele>
        <time>2015-09-21T18:26:43.000Z</time>
      </trkpt>
      <trkpt lat="48.84725" lon="2.34828">
        <ele>72.800003051758</ele>
        <time>2015-09-21T18:26:57.000Z</time>
      </trkpt>
      <trkpt lat="48.84709" lon="2.34814">
        <ele>71.599998474121</ele>
        <time>2015-09-21T18:27:04.000Z</time>
      </trkpt>
      <trkpt lat="48.84692" lon="2.34804">
        <ele>70.599998474121</ele>
        <time>2015-09-21T18:27:10.000Z</time>
      </trkpt>
      <trkpt lat="48.84675" lon="2.34795">
        <ele>70.199996948242</ele>
        <time>2015-09-21T18:27:17.000Z</time>
      </trkpt>
      <trkpt lat="48.84674" lon="2.34787">
        <ele>69</ele>
        <time>2015-09-21T18:27:19.000Z</time>
      </trkpt>
      <trkpt lat="48.84667" lon="2.34774">
        <ele>67.400001525879</ele>
        <time>2015-09-21T18:27:23.000Z</time>
      </trkpt>
      <trkpt lat="48.84653" lon="2.34753">
        <ele>64</ele>
        <time>2015-09-21T18:27:31.000Z</time>
      </trkpt>
      <trkpt lat="48.84651" lon="2.34749">
        <ele>63.200000762939</ele>
        <time>2015-09-21T18:27:34.000Z</time>
      </trkpt>
      <trkpt lat="48.84654" lon="2.34732">
        <ele>70.199996948242</ele>
        <time>2015-09-21T18:27:52.000Z</time>
      </trkpt>
      <trkpt lat="48.84653" lon="2.34725">
        <ele>72.800003051758</ele>
        <time>2015-09-21T18:27:56.000Z</time>
      </trkpt>
      <trkpt lat="48.84651" lon="2.34713">
        <ele>77.599998474121</ele>
        <time>2015-09-21T18:28:09.000Z</time>
      </trkpt>
      <trkpt lat="48.8466" lon="2.34715">
        <ele>82.199996948242</ele>
        <time>2015-09-21T18:28:22.000Z</time>
      </trkpt>
      <trkpt lat="48.84662" lon="2.34722">
        <ele>84</ele>
        <time>2015-09-21T18:28:25.000Z</time>
      </trkpt>
      <trkpt lat="48.84657" lon="2.34693">
        <ele>83.800003051758</ele>
        <time>2015-09-21T18:28:35.000Z</time>
      </trkpt>
      <trkpt lat="48.84657" lon="2.34688">
        <ele>83.800003051758</ele>
        <time>2015-09-21T18:28:36.000Z</time>
      </trkpt>
      <trkpt lat="48.84664" lon="2.34661">
        <ele>83</ele>
        <time>2015-09-21T18:28:41.000Z</time>
      </trkpt>
      <trkpt lat="48.84674" lon="2.3463">
        <ele>79.199996948242</ele>
        <time>2015-09-21T18:28:46.000Z</time>
      </trkpt>
      <trkpt lat="48.84681" lon="2.34602">
        <ele>75.599998474121</ele>
        <time>2015-09-21T18:28:51.000Z</time>
      </trkpt>
      <trkpt lat="48.8469" lon="2.34573">
        <ele>70.199996948242</ele>
        <time>2015-09-21T18:28:57.000Z</time>
      </trkpt>
      <trkpt lat="48.8469" lon="2.34566">
        <ele>69</ele>
        <time>2015-09-21T18:28:59.000Z</time>
      </trkpt>
      <trkpt lat="48.84685" lon="2.34536">
        <ele>66.800003051758</ele>
        <time>2015-09-21T18:29:06.000Z</time>
      </trkpt>
      <trkpt lat="48.84672" lon="2.34514">
        <ele>66</ele>
        <time>2015-09-21T18:29:12.000Z</time>
      </trkpt>
      <trkpt lat="48.84666" lon="2.34488">
        <ele>62.599998474121</ele>
        <time>2015-09-21T18:29:18.000Z</time>
      </trkpt>
      <trkpt lat="48.84656" lon="2.34465">
        <ele>60</ele>
        <time>2015-09-21T18:29:25.000Z</time>
      </trkpt>
      <trkpt lat="48.8466" lon="2.34438">
        <ele>59.599998474121</ele>
        <time>2015-09-21T18:29:37.000Z</time>
      </trkpt>
      <trkpt lat="48.84666" lon="2.34412">
        <ele>62</ele>
        <time>2015-09-21T18:29:53.000Z</time>
      </trkpt>
      <trkpt lat="48.84673" lon="2.34383">
        <ele>62.200000762939</ele>
        <time>2015-09-21T18:30:02.000Z</time>
      </trkpt>
      <trkpt lat="48.8468" lon="2.34358">
        <ele>61.400001525879</ele>
        <time>2015-09-21T18:30:09.000Z</time>
      </trkpt>
      <trkpt lat="48.84689" lon="2.34328">
        <ele>59.799999237061</ele>
        <time>2015-09-21T18:30:16.000Z</time>
      </trkpt>
      <trkpt lat="48.84695" lon="2.34302">
        <ele>59.599998474121</ele>
        <time>2015-09-21T18:30:20.000Z</time>
      </trkpt>
      <trkpt lat="48.84701" lon="2.34272">
        <ele>57.599998474121</ele>
        <time>2015-09-21T18:30:24.000Z</time>
      </trkpt>
      <trkpt lat="48.84709" lon="2.34239">
        <ele>57.599998474121</ele>
        <time>2015-09-21T18:30:28.000Z</time>
      </trkpt>
      <trkpt lat="48.84714" lon="2.34213">
        <ele>57.200000762939</ele>
        <time>2015-09-21T18:30:31.000Z</time>
      </trkpt>
      <trkpt lat="48.84721" lon="2.34179">
        <ele>57.799999237061</ele>
        <time>2015-09-21T18:30:35.000Z</time>
      </trkpt>
      <trkpt lat="48.84725" lon="2.34152">
        <ele>59.599998474121</ele>
        <time>2015-09-21T18:30:39.000Z</time>
      </trkpt>
      <trkpt lat="48.84729" lon="2.34135">
        <ele>61.200000762939</ele>
        <time>2015-09-21T18:30:43.000Z</time>
      </trkpt>
      <trkpt lat="48.84734" lon="2.34119">
        <ele>61.599998474121</ele>
        <time>2015-09-21T18:30:47.000Z</time>
      </trkpt>
      <trkpt lat="48.84735" lon="2.34112">
        <ele>60.200000762939</ele>
        <time>2015-09-21T18:30:49.000Z</time>
      </trkpt>
      <trkpt lat="48.84741" lon="2.34087">
        <ele>62</ele>
        <time>2015-09-21T18:31:29.000Z</time>
      </trkpt>
      <trkpt lat="48.84749" lon="2.34078">
        <ele>61.799999237061</ele>
        <time>2015-09-21T18:31:36.000Z</time>
      </trkpt>
      <trkpt lat="48.84753" lon="2.34069">
        <ele>61.200000762939</ele>
        <time>2015-09-21T18:31:42.000Z</time>
      </trkpt>
      <trkpt lat="48.84753" lon="2.34076">
        <ele>60</ele>
        <time>2015-09-21T18:31:53.000Z</time>
      </trkpt>
      <trkpt lat="48.84762" lon="2.34053">
        <ele>57.799999237061</ele>
        <time>2015-09-21T18:32:53.000Z</time>
      </trkpt>
      <trkpt lat="48.84762" lon="2.34062">
        <ele>60.200000762939</ele>
        <time>2015-09-21T18:34:11.000Z</time>
      </trkpt>
      <trkpt lat="48.84757" lon="2.34061">
        <ele>60.200000762939</ele>
        <time>2015-09-21T18:34:59.000Z</time>
      </trkpt>
      <trkpt lat="48.84754" lon="2.34063">
        <ele>60.200000762939</ele>
        <time>2015-09-21T18:35:03.000Z</time>
      </trkpt>
      <trkpt lat="48.84751" lon="2.34065">
        <ele>59.200000762939</ele>
        <time>2015-09-21T18:35:36.000Z</time>
      </trkpt>
      <trkpt lat="48.84756" lon="2.34064">
        <ele>58.200000762939</ele>
        <time>2015-09-21T18:36:22.000Z</time>
      </trkpt>
      <trkpt lat="48.84751" lon="2.34048">
        <ele>54.799999237061</ele>
        <time>2015-09-21T18:37:10.000Z</time>
      </trkpt>
      <trkpt lat="48.84738" lon="2.34042">
        <ele>54.799999237061</ele>
        <time>2015-09-21T18:37:20.000Z</time>
      </trkpt>
      <trkpt lat="48.84734" lon="2.34073">
        <ele>53.200000762939</ele>
        <time>2015-09-21T18:37:28.000Z</time>
      </trkpt>
      <trkpt lat="48.84729" lon="2.34103">
        <ele>54.400001525879</ele>
        <time>2015-09-21T18:37:33.000Z</time>
      </trkpt>
      <trkpt lat="48.84724" lon="2.34125">
        <ele>55.599998474121</ele>
        <time>2015-09-21T18:37:36.000Z</time>
      </trkpt>
      <trkpt lat="48.84718" lon="2.34145">
        <ele>56.799999237061</ele>
        <time>2015-09-21T18:37:39.000Z</time>
      </trkpt>
      <trkpt lat="48.84711" lon="2.34172">
        <ele>58.799999237061</ele>
        <time>2015-09-21T18:37:43.000Z</time>
      </trkpt>
      <trkpt lat="48.84705" lon="2.34197">
        <ele>60.400001525879</ele>
        <time>2015-09-21T18:37:47.000Z</time>
      </trkpt>
      <trkpt lat="48.84697" lon="2.34229">
        <ele>63.200000762939</ele>
        <time>2015-09-21T18:37:52.000Z</time>
      </trkpt>
      <trkpt lat="48.84691" lon="2.34262">
        <ele>67</ele>
        <time>2015-09-21T18:37:57.000Z</time>
      </trkpt>
      <trkpt lat="48.8469" lon="2.34273">
        <ele>68.599998474121</ele>
        <time>2015-09-21T18:37:59.000Z</time>
      </trkpt>
      <trkpt lat="48.84688" lon="2.34283">
        <ele>70.599998474121</ele>
        <time>2015-09-21T18:38:02.000Z</time>
      </trkpt>
      <trkpt lat="48.8467" lon="2.34273">
        <ele>75.199996948242</ele>
        <time>2015-09-21T18:38:10.000Z</time>
      </trkpt>
      <trkpt lat="48.84653" lon="2.34262">
        <ele>78.599998474121</ele>
        <time>2015-09-21T18:38:18.000Z</time>
      </trkpt>
      <trkpt lat="48.84637" lon="2.34279">
        <ele>79.599998474121</ele>
        <time>2015-09-21T18:38:24.000Z</time>
      </trkpt>
      <trkpt lat="48.84628" lon="2.34287">
        <ele>81.800003051758</ele>
        <time>2015-09-21T18:38:32.000Z</time>
      </trkpt>
      <trkpt lat="48.84611" lon="2.34282">
        <ele>81</ele>
        <time>2015-09-21T18:38:41.000Z</time>
      </trkpt>
      <trkpt lat="48.84596" lon="2.34267">
        <ele>80.400001525879</ele>
        <time>2015-09-21T18:38:46.000Z</time>
      </trkpt>
      <trkpt lat="48.8458" lon="2.34254">
        <ele>81</ele>
        <time>2015-09-21T18:38:51.000Z</time>
      </trkpt>
      <trkpt lat="48.84574" lon="2.34252">
        <ele>81.199996948242</ele>
        <time>2015-09-21T18:38:53.000Z</time>
      </trkpt>
      <trkpt lat="48.84579" lon="2.34225">
        <ele>81.199996948242</ele>
        <time>2015-09-21T18:38:59.000Z</time>
      </trkpt>
      <trkpt lat="48.84587" lon="2.342">
        <ele>81</ele>
        <time>2015-09-21T18:39:05.000Z</time>
      </trkpt>
      <trkpt lat="48.84596" lon="2.34174">
        <ele>81.199996948242</ele>
        <time>2015-09-21T18:39:11.000Z</time>
      </trkpt>
      <trkpt lat="48.84605" lon="2.34148">
        <ele>81.800003051758</ele>
        <time>2015-09-21T18:39:18.000Z</time>
      </trkpt>
      <trkpt lat="48.84605" lon="2.34141">
        <ele>82</ele>
        <time>2015-09-21T18:39:21.000Z</time>
      </trkpt>
      <trkpt lat="48.84599" lon="2.3414">
        <ele>77</ele>
        <time>2015-09-21T18:39:39.000Z</time>
      </trkpt>
      <trkpt lat="48.8458" lon="2.34147">
        <ele>77</ele>
        <time>2015-09-21T18:39:45.000Z</time>
      </trkpt>
      <trkpt lat="48.84562" lon="2.34154">
        <ele>76.599998474121</ele>
        <time>2015-09-21T18:39:49.000Z</time>
      </trkpt>
      <trkpt lat="48.84543" lon="2.34165">
        <ele>76</ele>
        <time>2015-09-21T18:39:53.000Z</time>
      </trkpt>
      <trkpt lat="48.84522" lon="2.34177">
        <ele>75.400001525879</ele>
        <time>2015-09-21T18:39:57.000Z</time>
      </trkpt>
      <trkpt lat="48.84501" lon="2.34184">
        <ele>75</ele>
        <time>2015-09-21T18:40:01.000Z</time>
      </trkpt>
      <trkpt lat="48.84482" lon="2.34189">
        <ele>73.800003051758</ele>
        <time>2015-09-21T18:40:05.000Z</time>
      </trkpt>
      <trkpt lat="48.84473" lon="2.34191">
        <ele>73.800003051758</ele>
        <time>2015-09-21T18:40:07.000Z</time>
      </trkpt>
      <trkpt lat="48.8446" lon="2.34195">
        <ele>74</ele>
        <time>2015-09-21T18:40:10.000Z</time>
      </trkpt>
      <trkpt lat="48.84441" lon="2.34202">
        <ele>73.800003051758</ele>
        <time>2015-09-21T18:40:15.000Z</time>
      </trkpt>
      <trkpt lat="48.84437" lon="2.342">
        <ele>74</ele>
        <time>2015-09-21T18:40:16.000Z</time>
      </trkpt>
      <trkpt lat="48.84416" lon="2.34191">
        <ele>73.599998474121</ele>
        <time>2015-09-21T18:40:22.000Z</time>
      </trkpt>
      <trkpt lat="48.84395" lon="2.34182">
        <ele>74</ele>
        <time>2015-09-21T18:40:27.000Z</time>
      </trkpt>
      <trkpt lat="48.84373" lon="2.34174">
        <ele>73.599998474121</ele>
        <time>2015-09-21T18:40:32.000Z</time>
      </trkpt>
      <trkpt lat="48.84355" lon="2.34167">
        <ele>74</ele>
        <time>2015-09-21T18:40:36.000Z</time>
      </trkpt>
      <trkpt lat="48.84337" lon="2.34151">
        <ele>73</ele>
        <time>2015-09-21T18:40:40.000Z</time>
      </trkpt>
      <trkpt lat="48.84325" lon="2.34144">
        <ele>73</ele>
        <time>2015-09-21T18:40:43.000Z</time>
      </trkpt>
      <trkpt lat="48.84311" lon="2.3414">
        <ele>72.800003051758</ele>
        <time>2015-09-21T18:40:46.000Z</time>
      </trkpt>
      <trkpt lat="48.8429" lon="2.34141">
        <ele>72</ele>
        <time>2015-09-21T18:40:52.000Z</time>
      </trkpt>
      <trkpt lat="48.84269" lon="2.3414">
        <ele>70.599998474121</ele>
        <time>2015-09-21T18:40:57.000Z</time>
      </trkpt>
      <trkpt lat="48.84258" lon="2.34136">
        <ele>70</ele>
        <time>2015-09-21T18:41:00.000Z</time>
      </trkpt>
      <trkpt lat="48.84235" lon="2.34134">
        <ele>68.800003051758</ele>
        <time>2015-09-21T18:41:05.000Z</time>
      </trkpt>
      <trkpt lat="48.84222" lon="2.34134">
        <ele>68.400001525879</ele>
        <time>2015-09-21T18:41:08.000Z</time>
      </trkpt>
      <trkpt lat="48.84204" lon="2.34133">
        <ele>68.599998474121</ele>
        <time>2015-09-21T18:41:12.000Z</time>
      </trkpt>
      <trkpt lat="48.84183" lon="2.34131">
        <ele>69.199996948242</ele>
        <time>2015-09-21T18:41:16.000Z</time>
      </trkpt>
      <trkpt lat="48.84164" lon="2.34128">
        <ele>69.800003051758</ele>
        <time>2015-09-21T18:41:20.000Z</time>
      </trkpt>
      <trkpt lat="48.84155" lon="2.34124">
        <ele>69.800003051758</ele>
        <time>2015-09-21T18:41:22.000Z</time>
      </trkpt>
      <trkpt lat="48.84139" lon="2.34114">
        <ele>70.400001525879</ele>
        <time>2015-09-21T18:41:25.000Z</time>
      </trkpt>
      <trkpt lat="48.84127" lon="2.34109">
        <ele>71</ele>
        <time>2015-09-21T18:41:27.000Z</time>
      </trkpt>
      <trkpt lat="48.84108" lon="2.34098">
        <ele>71.800003051758</ele>
        <time>2015-09-21T18:41:31.000Z</time>
      </trkpt>
      <trkpt lat="48.84087" lon="2.34086">
        <ele>72.599998474121</ele>
        <time>2015-09-21T18:41:36.000Z</time>
      </trkpt>
      <trkpt lat="48.84068" lon="2.34077">
        <ele>74.800003051758</ele>
        <time>2015-09-21T18:41:41.000Z</time>
      </trkpt>
      <trkpt lat="48.84055" lon="2.34069">
        <ele>75.599998474121</ele>
        <time>2015-09-21T18:41:44.000Z</time>
      </trkpt>
      <trkpt lat="48.84032" lon="2.34062">
        <ele>77.199996948242</ele>
        <time>2015-09-21T18:41:48.000Z</time>
      </trkpt>
      <trkpt lat="48.84014" lon="2.34055">
        <ele>79.800003051758</ele>
        <time>2015-09-21T18:41:51.000Z</time>
      </trkpt>
      <trkpt lat="48.83997" lon="2.34037">
        <ele>79.800003051758</ele>
        <time>2015-09-21T18:41:56.000Z</time>
      </trkpt>
      <trkpt lat="48.83989" lon="2.3403">
        <ele>79.400001525879</ele>
        <time>2015-09-21T18:41:58.000Z</time>
      </trkpt>
      <trkpt lat="48.83985" lon="2.34026">
        <ele>79.199996948242</ele>
        <time>2015-09-21T18:41:59.000Z</time>
      </trkpt>
      <trkpt lat="48.83968" lon="2.34017">
        <ele>78.199996948242</ele>
        <time>2015-09-21T18:42:03.000Z</time>
      </trkpt>
      <trkpt lat="48.8395" lon="2.3401">
        <ele>76.800003051758</ele>
        <time>2015-09-21T18:42:07.000Z</time>
      </trkpt>
      <trkpt lat="48.83939" lon="2.34">
        <ele>75.599998474121</ele>
        <time>2015-09-21T18:42:10.000Z</time>
      </trkpt>
      <trkpt lat="48.83921" lon="2.33988">
        <ele>74.599998474121</ele>
        <time>2015-09-21T18:42:15.000Z</time>
      </trkpt>
      <trkpt lat="48.83905" lon="2.33982">
        <ele>70.400001525879</ele>
        <time>2015-09-21T18:42:19.000Z</time>
      </trkpt>
      <trkpt lat="48.83905" lon="2.33973">
        <ele>68.199996948242</ele>
        <time>2015-09-21T18:43:06.000Z</time>
      </trkpt>
      <trkpt lat="48.83887" lon="2.3396">
        <ele>67.400001525879</ele>
        <time>2015-09-21T18:43:24.000Z</time>
      </trkpt>
      <trkpt lat="48.83867" lon="2.33947">
        <ele>67.400001525879</ele>
        <time>2015-09-21T18:43:30.000Z</time>
      </trkpt>
      <trkpt lat="48.83847" lon="2.33937">
        <ele>66.800003051758</ele>
        <time>2015-09-21T18:43:35.000Z</time>
      </trkpt>
      <trkpt lat="48.83839" lon="2.33931">
        <ele>66.599998474121</ele>
        <time>2015-09-21T18:43:37.000Z</time>
      </trkpt>
      <trkpt lat="48.83819" lon="2.33918">
        <ele>66.400001525879</ele>
        <time>2015-09-21T18:43:42.000Z</time>
      </trkpt>
      <trkpt lat="48.83802" lon="2.33903">
        <ele>66.199996948242</ele>
        <time>2015-09-21T18:43:47.000Z</time>
      </trkpt>
      <trkpt lat="48.83782" lon="2.33889">
        <ele>66</ele>
        <time>2015-09-21T18:43:52.000Z</time>
      </trkpt>
      <trkpt lat="48.83762" lon="2.33875">
        <ele>66</ele>
        <time>2015-09-21T18:43:57.000Z</time>
      </trkpt>
      <trkpt lat="48.83745" lon="2.33866">
        <ele>66.199996948242</ele>
        <time>2015-09-21T18:44:01.000Z</time>
      </trkpt>
      <trkpt lat="48.83724" lon="2.33854">
        <ele>66.199996948242</ele>
        <time>2015-09-21T18:44:06.000Z</time>
      </trkpt>
      <trkpt lat="48.83702" lon="2.33845">
        <ele>66.400001525879</ele>
        <time>2015-09-21T18:44:10.000Z</time>
      </trkpt>
      <trkpt lat="48.83685" lon="2.33836">
        <ele>66.199996948242</ele>
        <time>2015-09-21T18:44:13.000Z</time>
      </trkpt>
      <trkpt lat="48.83664" lon="2.33824">
        <ele>65</ele>
        <time>2015-09-21T18:44:17.000Z</time>
      </trkpt>
      <trkpt lat="48.83643" lon="2.33809">
        <ele>62.400001525879</ele>
        <time>2015-09-21T18:44:21.000Z</time>
      </trkpt>
      <trkpt lat="48.83623" lon="2.33795">
        <ele>61.200000762939</ele>
        <time>2015-09-21T18:44:25.000Z</time>
      </trkpt>
      <trkpt lat="48.83619" lon="2.33791">
        <ele>60.799999237061</ele>
        <time>2015-09-21T18:44:26.000Z</time>
      </trkpt>
      <trkpt lat="48.83604" lon="2.33782">
        <ele>59.799999237061</ele>
        <time>2015-09-21T18:44:30.000Z</time>
      </trkpt>
      <trkpt lat="48.83588" lon="2.33801">
        <ele>57.799999237061</ele>
        <time>2015-09-21T18:44:35.000Z</time>
      </trkpt>
      <trkpt lat="48.83586" lon="2.33806">
        <ele>57.599998474121</ele>
        <time>2015-09-21T18:44:36.000Z</time>
      </trkpt>
      <trkpt lat="48.83582" lon="2.33818">
        <ele>57</ele>
        <time>2015-09-21T18:44:38.000Z</time>
      </trkpt>
      <trkpt lat="48.83575" lon="2.33844">
        <ele>57</ele>
        <time>2015-09-21T18:44:42.000Z</time>
      </trkpt>
      <trkpt lat="48.83574" lon="2.33857">
        <ele>56.799999237061</ele>
        <time>2015-09-21T18:44:44.000Z</time>
      </trkpt>
      <trkpt lat="48.83573" lon="2.33891">
        <ele>56.799999237061</ele>
        <time>2015-09-21T18:44:49.000Z</time>
      </trkpt>
      <trkpt lat="48.83571" lon="2.33916">
        <ele>57.599998474121</ele>
        <time>2015-09-21T18:44:53.000Z</time>
      </trkpt>
      <trkpt lat="48.83568" lon="2.33948">
        <ele>58.400001525879</ele>
        <time>2015-09-21T18:44:58.000Z</time>
      </trkpt>
      <trkpt lat="48.83565" lon="2.33976">
        <ele>58.200000762939</ele>
        <time>2015-09-21T18:45:02.000Z</time>
      </trkpt>
      <trkpt lat="48.83563" lon="2.3399">
        <ele>58.400001525879</ele>
        <time>2015-09-21T18:45:04.000Z</time>
      </trkpt>
      <trkpt lat="48.83557" lon="2.34019">
        <ele>57.200000762939</ele>
        <time>2015-09-21T18:45:08.000Z</time>
      </trkpt>
      <trkpt lat="48.83552" lon="2.34048">
        <ele>56.599998474121</ele>
        <time>2015-09-21T18:45:12.000Z</time>
      </trkpt>
      <trkpt lat="48.8355" lon="2.34079">
        <ele>57.799999237061</ele>
        <time>2015-09-21T18:45:16.000Z</time>
      </trkpt>
      <trkpt lat="48.83543" lon="2.34107">
        <ele>57.200000762939</ele>
        <time>2015-09-21T18:45:20.000Z</time>
      </trkpt>
      <trkpt lat="48.8354" lon="2.34133">
        <ele>57.400001525879</ele>
        <time>2015-09-21T18:45:24.000Z</time>
      </trkpt>
      <trkpt lat="48.83541" lon="2.34153">
        <ele>58</ele>
        <time>2015-09-21T18:45:27.000Z</time>
      </trkpt>
      <trkpt lat="48.83541" lon="2.34173">
        <ele>58.200000762939</ele>
        <time>2015-09-21T18:45:32.000Z</time>
      </trkpt>
      <trkpt lat="48.83535" lon="2.34174">
        <ele>58.400001525879</ele>
        <time>2015-09-21T18:45:36.000Z</time>
      </trkpt>
      <trkpt lat="48.83519" lon="2.34165">
        <ele>60</ele>
        <time>2015-09-21T18:45:43.000Z</time>
      </trkpt>
      <trkpt lat="48.83506" lon="2.34159">
        <ele>61.200000762939</ele>
        <time>2015-09-21T18:45:55.000Z</time>
      </trkpt>
      <trkpt lat="48.83489" lon="2.34155">
        <ele>59.599998474121</ele>
        <time>2015-09-21T18:46:12.000Z</time>
      </trkpt>
      <trkpt lat="48.83483" lon="2.34171">
        <ele>59.400001525879</ele>
        <time>2015-09-21T18:46:16.000Z</time>
      </trkpt>
      <trkpt lat="48.83481" lon="2.34198">
        <ele>61</ele>
        <time>2015-09-21T18:46:22.000Z</time>
      </trkpt>
      <trkpt lat="48.83484" lon="2.34229">
        <ele>62.799999237061</ele>
        <time>2015-09-21T18:46:27.000Z</time>
      </trkpt>
      <trkpt lat="48.83485" lon="2.34258">
        <ele>64.400001525879</ele>
        <time>2015-09-21T18:46:31.000Z</time>
      </trkpt>
      <trkpt lat="48.83486" lon="2.34289">
        <ele>64.599998474121</ele>
        <time>2015-09-21T18:46:35.000Z</time>
      </trkpt>
      <trkpt lat="48.83486" lon="2.34322">
        <ele>67.199996948242</ele>
        <time>2015-09-21T18:46:39.000Z</time>
      </trkpt>
      <trkpt lat="48.83489" lon="2.3435">
        <ele>68.199996948242</ele>
        <time>2015-09-21T18:46:42.000Z</time>
      </trkpt>
      <trkpt lat="48.83491" lon="2.34377">
        <ele>69.599998474121</ele>
        <time>2015-09-21T18:46:45.000Z</time>
      </trkpt>
      <trkpt lat="48.83495" lon="2.34405">
        <ele>70</ele>
        <time>2015-09-21T18:46:48.000Z</time>
      </trkpt>
      <trkpt lat="48.83496" lon="2.34435">
        <ele>70.800003051758</ele>
        <time>2015-09-21T18:46:52.000Z</time>
      </trkpt>
      <trkpt lat="48.83496" lon="2.34469">
        <ele>70</ele>
        <time>2015-09-21T18:46:57.000Z</time>
      </trkpt>
      <trkpt lat="48.83497" lon="2.34483">
        <ele>69.400001525879</ele>
        <time>2015-09-21T18:46:59.000Z</time>
      </trkpt>
      <trkpt lat="48.83499" lon="2.34511">
        <ele>68.400001525879</ele>
        <time>2015-09-21T18:47:03.000Z</time>
      </trkpt>
      <trkpt lat="48.835" lon="2.34531">
        <ele>67</ele>
        <time>2015-09-21T18:47:06.000Z</time>
      </trkpt>
      <trkpt lat="48.835" lon="2.34562">
        <ele>65.400001525879</ele>
        <time>2015-09-21T18:47:11.000Z</time>
      </trkpt>
      <trkpt lat="48.83501" lon="2.34567">
        <ele>64.800003051758</ele>
        <time>2015-09-21T18:47:12.000Z</time>
      </trkpt>
      <trkpt lat="48.83501" lon="2.34592">
        <ele>64.800003051758</ele>
        <time>2015-09-21T18:47:17.000Z</time>
      </trkpt>
      <trkpt lat="48.83504" lon="2.34614">
        <ele>65</ele>
        <time>2015-09-21T18:47:22.000Z</time>
      </trkpt>
      <trkpt lat="48.83504" lon="2.34618">
        <ele>65.599998474121</ele>
        <time>2015-09-21T18:47:23.000Z</time>
      </trkpt>
      <trkpt lat="48.83509" lon="2.34647">
        <ele>65.800003051758</ele>
        <time>2015-09-21T18:47:30.000Z</time>
      </trkpt>
      <trkpt lat="48.83518" lon="2.34671">
        <ele>68.599998474121</ele>
        <time>2015-09-21T18:47:38.000Z</time>
      </trkpt>
      <trkpt lat="48.83519" lon="2.34675">
        <ele>69.800003051758</ele>
        <time>2015-09-21T18:47:41.000Z</time>
      </trkpt>
      <trkpt lat="48.83527" lon="2.34699">
        <ele>71</ele>
        <time>2015-09-21T18:48:04.000Z</time>
      </trkpt>
      <trkpt lat="48.83534" lon="2.34727">
        <ele>71.599998474121</ele>
        <time>2015-09-21T18:48:12.000Z</time>
      </trkpt>
      <trkpt lat="48.83539" lon="2.34755">
        <ele>67.800003051758</ele>
        <time>2015-09-21T18:48:18.000Z</time>
      </trkpt>
      <trkpt lat="48.83543" lon="2.34788">
        <ele>62.799999237061</ele>
        <time>2015-09-21T18:48:24.000Z</time>
      </trkpt>
      <trkpt lat="48.83552" lon="2.34817">
        <ele>56.599998474121</ele>
        <time>2015-09-21T18:48:29.000Z</time>
      </trkpt>
      <trkpt lat="48.83562" lon="2.34848">
        <ele>50</ele>
        <time>2015-09-21T18:48:34.000Z</time>
      </trkpt>
      <trkpt lat="48.83572" lon="2.34874">
        <ele>47</ele>
        <time>2015-09-21T18:48:38.000Z</time>
      </trkpt>
      <trkpt lat="48.8358" lon="2.349">
        <ele>44.400001525879</ele>
        <time>2015-09-21T18:48:42.000Z</time>
      </trkpt>
      <trkpt lat="48.83589" lon="2.34927">
        <ele>40.799999237061</ele>
        <time>2015-09-21T18:48:46.000Z</time>
      </trkpt>
      <trkpt lat="48.83599" lon="2.34954">
        <ele>37.599998474121</ele>
        <time>2015-09-21T18:48:50.000Z</time>
      </trkpt>
      <trkpt lat="48.83609" lon="2.3498">
        <ele>37.200000762939</ele>
        <time>2015-09-21T18:48:54.000Z</time>
      </trkpt>
      <trkpt lat="48.83612" lon="2.34987">
        <ele>37</ele>
        <time>2015-09-21T18:48:55.000Z</time>
      </trkpt>
      <trkpt lat="48.83621" lon="2.35015">
        <ele>36</ele>
        <time>2015-09-21T18:48:59.000Z</time>
      </trkpt>
      <trkpt lat="48.83627" lon="2.35037">
        <ele>35</ele>
        <time>2015-09-21T18:49:02.000Z</time>
      </trkpt>
      <trkpt lat="48.83636" lon="2.35067">
        <ele>35.400001525879</ele>
        <time>2015-09-21T18:49:06.000Z</time>
      </trkpt>
      <trkpt lat="48.83639" lon="2.35082">
        <ele>35</ele>
        <time>2015-09-21T18:49:08.000Z</time>
      </trkpt>
      <trkpt lat="48.83642" lon="2.35102">
        <ele>32.599998474121</ele>
        <time>2015-09-21T18:49:11.000Z</time>
      </trkpt>
      <trkpt lat="48.83647" lon="2.35129">
        <ele>31</ele>
        <time>2015-09-21T18:49:15.000Z</time>
      </trkpt>
      <trkpt lat="48.83648" lon="2.35135">
        <ele>30.799999237061</ele>
        <time>2015-09-21T18:49:16.000Z</time>
      </trkpt>
      <trkpt lat="48.83657" lon="2.35161">
        <ele>28</ele>
        <time>2015-09-21T18:49:21.000Z</time>
      </trkpt>
      <trkpt lat="48.83658" lon="2.35165">
        <ele>28.200000762939</ele>
        <time>2015-09-21T18:49:22.000Z</time>
      </trkpt>
      <trkpt lat="48.83659" lon="2.35181">
        <ele>29.200000762939</ele>
        <time>2015-09-21T18:49:26.000Z</time>
      </trkpt>
      <trkpt lat="48.83659" lon="2.35189">
        <ele>34.599998474121</ele>
        <time>2015-09-21T18:49:28.000Z</time>
      </trkpt>
      <trkpt lat="48.83648" lon="2.35203">
        <ele>37</ele>
        <time>2015-09-21T18:49:32.000Z</time>
      </trkpt>
      <trkpt lat="48.83643" lon="2.35208">
        <ele>36.799999237061</ele>
        <time>2015-09-21T18:49:34.000Z</time>
      </trkpt>
      <trkpt lat="48.83626" lon="2.35223">
        <ele>38.799999237061</ele>
        <time>2015-09-21T18:49:38.000Z</time>
      </trkpt>
      <trkpt lat="48.83617" lon="2.35231">
        <ele>39.200000762939</ele>
        <time>2015-09-21T18:49:40.000Z</time>
      </trkpt>
      <trkpt lat="48.83599" lon="2.35244">
        <ele>41</ele>
        <time>2015-09-21T18:49:44.000Z</time>
      </trkpt>
      <trkpt lat="48.83595" lon="2.35247">
        <ele>40.400001525879</ele>
        <time>2015-09-21T18:49:45.000Z</time>
      </trkpt>
      <trkpt lat="48.83574" lon="2.35261">
        <ele>41.599998474121</ele>
        <time>2015-09-21T18:49:49.000Z</time>
      </trkpt>
      <trkpt lat="48.83555" lon="2.35274">
        <ele>43.799999237061</ele>
        <time>2015-09-21T18:49:53.000Z</time>
      </trkpt>
      <trkpt lat="48.8355" lon="2.35277">
        <ele>44.400001525879</ele>
        <time>2015-09-21T18:49:54.000Z</time>
      </trkpt>
      <trkpt lat="48.8353" lon="2.35292">
        <ele>47</ele>
        <time>2015-09-21T18:49:58.000Z</time>
      </trkpt>
      <trkpt lat="48.83515" lon="2.35302">
        <ele>48.400001525879</ele>
        <time>2015-09-21T18:50:01.000Z</time>
      </trkpt>
      <trkpt lat="48.83495" lon="2.35317">
        <ele>52</ele>
        <time>2015-09-21T18:50:05.000Z</time>
      </trkpt>
      <trkpt lat="48.83477" lon="2.35331">
        <ele>55.799999237061</ele>
        <time>2015-09-21T18:50:09.000Z</time>
      </trkpt>
      <trkpt lat="48.83458" lon="2.35344">
        <ele>58.799999237061</ele>
        <time>2015-09-21T18:50:13.000Z</time>
      </trkpt>
      <trkpt lat="48.83454" lon="2.35347">
        <ele>60</ele>
        <time>2015-09-21T18:50:14.000Z</time>
      </trkpt>
      <trkpt lat="48.83457" lon="2.35326">
        <ele>57</ele>
        <time>2015-09-21T18:50:38.000Z</time>
      </trkpt>
      <trkpt lat="48.83465" lon="2.35299">
        <ele>56.400001525879</ele>
        <time>2015-09-21T18:50:47.000Z</time>
      </trkpt>
      <trkpt lat="48.83449" lon="2.35276">
        <ele>55</ele>
        <time>2015-09-21T18:50:50.000Z</time>
      </trkpt>
      <trkpt lat="48.83433" lon="2.35255">
        <ele>53.799999237061</ele>
        <time>2015-09-21T18:50:53.000Z</time>
      </trkpt>
      <trkpt lat="48.83416" lon="2.35234">
        <ele>53.599998474121</ele>
        <time>2015-09-21T18:50:57.000Z</time>
      </trkpt>
      <trkpt lat="48.834" lon="2.35219">
        <ele>53</ele>
        <time>2015-09-21T18:51:01.000Z</time>
      </trkpt>
      <trkpt lat="48.83379" lon="2.3521">
        <ele>52.200000762939</ele>
        <time>2015-09-21T18:51:06.000Z</time>
      </trkpt>
      <trkpt lat="48.83364" lon="2.35213">
        <ele>51</ele>
        <time>2015-09-21T18:51:11.000Z</time>
      </trkpt>
      <trkpt lat="48.83344" lon="2.35201">
        <ele>50.200000762939</ele>
        <time>2015-09-21T18:51:16.000Z</time>
      </trkpt>
      <trkpt lat="48.83325" lon="2.35185">
        <ele>48.599998474121</ele>
        <time>2015-09-21T18:51:20.000Z</time>
      </trkpt>
      <trkpt lat="48.83317" lon="2.35178">
        <ele>47.599998474121</ele>
        <time>2015-09-21T18:51:22.000Z</time>
      </trkpt>
      <trkpt lat="48.83302" lon="2.35156">
        <ele>45.799999237061</ele>
        <time>2015-09-21T18:51:27.000Z</time>
      </trkpt>
      <trkpt lat="48.83297" lon="2.35148">
        <ele>45</ele>
        <time>2015-09-21T18:51:29.000Z</time>
      </trkpt>
      <trkpt lat="48.83292" lon="2.35142">
        <ele>44</ele>
        <time>2015-09-21T18:51:31.000Z</time>
      </trkpt>
      <trkpt lat="48.83278" lon="2.35133">
        <ele>41.799999237061</ele>
        <time>2015-09-21T18:51:35.000Z</time>
      </trkpt>
      <trkpt lat="48.83262" lon="2.35117">
        <ele>39.400001525879</ele>
        <time>2015-09-21T18:51:40.000Z</time>
      </trkpt>
      <trkpt lat="48.83247" lon="2.35099">
        <ele>37</ele>
        <time>2015-09-21T18:51:45.000Z</time>
      </trkpt>
      <trkpt lat="48.83233" lon="2.35075">
        <ele>34.400001525879</ele>
        <time>2015-09-21T18:51:51.000Z</time>
      </trkpt>
      <trkpt lat="48.8322" lon="2.35049">
        <ele>30.60000038147</ele>
        <time>2015-09-21T18:51:57.000Z</time>
      </trkpt>
      <trkpt lat="48.83207" lon="2.35026">
        <ele>26.39999961853</ele>
        <time>2015-09-21T18:52:03.000Z</time>
      </trkpt>
      <trkpt lat="48.83202" lon="2.35022">
        <ele>24.60000038147</ele>
        <time>2015-09-21T18:52:07.000Z</time>
      </trkpt>
      <trkpt lat="48.83195" lon="2.35027">
        <ele>24</ele>
        <time>2015-09-21T18:52:12.000Z</time>
      </trkpt>
      <trkpt lat="48.83183" lon="2.35048">
        <ele>23.60000038147</ele>
        <time>2015-09-21T18:52:16.000Z</time>
      </trkpt>
      <trkpt lat="48.83173" lon="2.35062">
        <ele>23</ele>
        <time>2015-09-21T18:52:19.000Z</time>
      </trkpt>
      <trkpt lat="48.83187" lon="2.35083">
        <ele>23</ele>
        <time>2015-09-21T18:52:25.000Z</time>
      </trkpt>
      <trkpt lat="48.83203" lon="2.35094">
        <ele>22.60000038147</ele>
        <time>2015-09-21T18:52:29.000Z</time>
      </trkpt>
      <trkpt lat="48.83207" lon="2.35099">
        <ele>22.39999961853</ele>
        <time>2015-09-21T18:52:30.000Z</time>
      </trkpt>
      <trkpt lat="48.83223" lon="2.35124">
        <ele>21.60000038147</ele>
        <time>2015-09-21T18:52:35.000Z</time>
      </trkpt>
      <trkpt lat="48.83226" lon="2.35129">
        <ele>21.39999961853</ele>
        <time>2015-09-21T18:52:36.000Z</time>
      </trkpt>
      <trkpt lat="48.8323" lon="2.35139">
        <ele>21.39999961853</ele>
        <time>2015-09-21T18:52:38.000Z</time>
      </trkpt>
      <trkpt lat="48.83221" lon="2.35168">
        <ele>23</ele>
        <time>2015-09-21T18:52:44.000Z</time>
      </trkpt>
      <trkpt lat="48.83217" lon="2.35198">
        <ele>24.200000762939</ele>
        <time>2015-09-21T18:52:49.000Z</time>
      </trkpt>
      <trkpt lat="48.83211" lon="2.35227">
        <ele>25.60000038147</ele>
        <time>2015-09-21T18:52:54.000Z</time>
      </trkpt>
      <trkpt lat="48.83201" lon="2.35255">
        <ele>28.200000762939</ele>
        <time>2015-09-21T18:52:59.000Z</time>
      </trkpt>
      <trkpt lat="48.83186" lon="2.35275">
        <ele>31.200000762939</ele>
        <time>2015-09-21T18:53:06.000Z</time>
      </trkpt>
      <trkpt lat="48.83179" lon="2.35278">
        <ele>32.400001525879</ele>
        <time>2015-09-21T18:53:11.000Z</time>
      </trkpt>
      <trkpt lat="48.83185" lon="2.35275">
        <ele>37.200000762939</ele>
        <time>2015-09-21T18:53:27.000Z</time>
      </trkpt>
      <trkpt lat="48.8319" lon="2.35272">
        <ele>40.200000762939</ele>
        <time>2015-09-21T18:53:40.000Z</time>
      </trkpt>
      <trkpt lat="48.83195" lon="2.35267">
        <ele>43.599998474121</ele>
        <time>2015-09-21T18:54:06.000Z</time>
      </trkpt>
      <trkpt lat="48.83182" lon="2.35277">
        <ele>51.200000762939</ele>
        <time>2015-09-21T18:54:59.000Z</time>
      </trkpt>
      <trkpt lat="48.83169" lon="2.35273">
        <ele>53.400001525879</ele>
        <time>2015-09-21T18:55:58.000Z</time>
      </trkpt>
      <trkpt lat="48.83148" lon="2.35271">
        <ele>54.200000762939</ele>
        <time>2015-09-21T18:56:05.000Z</time>
      </trkpt>
      <trkpt lat="48.83129" lon="2.35269">
        <ele>54.400001525879</ele>
        <time>2015-09-21T18:56:10.000Z</time>
      </trkpt>
      <trkpt lat="48.83111" lon="2.35266">
        <ele>54.799999237061</ele>
        <time>2015-09-21T18:56:15.000Z</time>
      </trkpt>
      <trkpt lat="48.83092" lon="2.35266">
        <ele>56</ele>
        <time>2015-09-21T18:56:23.000Z</time>
      </trkpt>
      <trkpt lat="48.83076" lon="2.35263">
        <ele>56.400001525879</ele>
        <time>2015-09-21T18:57:10.000Z</time>
      </trkpt>
      <trkpt lat="48.83058" lon="2.35265">
        <ele>55.599998474121</ele>
        <time>2015-09-21T18:57:17.000Z</time>
      </trkpt>
      <trkpt lat="48.83044" lon="2.35262">
        <ele>53.799999237061</ele>
        <time>2015-09-21T18:57:25.000Z</time>
      </trkpt>
      <trkpt lat="48.83024" lon="2.35269">
        <ele>52.799999237061</ele>
        <time>2015-09-21T18:57:32.000Z</time>
      </trkpt>
      <trkpt lat="48.83002" lon="2.3527">
        <ele>52.200000762939</ele>
        <time>2015-09-21T18:57:37.000Z</time>
      </trkpt>
      <trkpt lat="48.82993" lon="2.35271">
        <ele>51.799999237061</ele>
        <time>2015-09-21T18:57:39.000Z</time>
      </trkpt>
      <trkpt lat="48.82976" lon="2.35273">
        <ele>52.200000762939</ele>
        <time>2015-09-21T18:57:43.000Z</time>
      </trkpt>
      <trkpt lat="48.82956" lon="2.35274">
        <ele>52.799999237061</ele>
        <time>2015-09-21T18:57:47.000Z</time>
      </trkpt>
      <trkpt lat="48.82943" lon="2.35275">
        <ele>53.200000762939</ele>
        <time>2015-09-21T18:57:50.000Z</time>
      </trkpt>
      <trkpt lat="48.82922" lon="2.35276">
        <ele>53.599998474121</ele>
        <time>2015-09-21T18:57:55.000Z</time>
      </trkpt>
      <trkpt lat="48.82912" lon="2.35275">
        <ele>53.599998474121</ele>
        <time>2015-09-21T18:57:58.000Z</time>
      </trkpt>
      <trkpt lat="48.82895" lon="2.35275">
        <ele>53.400001525879</ele>
        <time>2015-09-21T18:58:02.000Z</time>
      </trkpt>
      <trkpt lat="48.82886" lon="2.35279">
        <ele>54.200000762939</ele>
        <time>2015-09-21T18:58:04.000Z</time>
      </trkpt>
      <trkpt lat="48.82872" lon="2.35283">
        <ele>54.599998474121</ele>
        <time>2015-09-21T18:58:08.000Z</time>
      </trkpt>
      <trkpt lat="48.82852" lon="2.35278">
        <ele>56.200000762939</ele>
        <time>2015-09-21T18:58:14.000Z</time>
      </trkpt>
      <trkpt lat="48.82834" lon="2.35271">
        <ele>58.599998474121</ele>
        <time>2015-09-21T18:58:21.000Z</time>
      </trkpt>
      <trkpt lat="48.8283" lon="2.35268">
        <ele>58.400001525879</ele>
        <time>2015-09-21T18:58:23.000Z</time>
      </trkpt>
      <trkpt lat="48.82825" lon="2.35262">
        <ele>59.599998474121</ele>
        <time>2015-09-21T18:58:28.000Z</time>
      </trkpt>
      <trkpt lat="48.82817" lon="2.35271">
        <ele>64</ele>
        <time>2015-09-21T18:58:46.000Z</time>
      </trkpt>
      <trkpt lat="48.82806" lon="2.35275">
        <ele>64.599998474121</ele>
        <time>2015-09-21T18:58:52.000Z</time>
      </trkpt>
      <trkpt lat="48.82786" lon="2.35281">
        <ele>65.400001525879</ele>
        <time>2015-09-21T18:58:59.000Z</time>
      </trkpt>
      <trkpt lat="48.82768" lon="2.35291">
        <ele>65.199996948242</ele>
        <time>2015-09-21T18:59:03.000Z</time>
      </trkpt>
      <trkpt lat="48.82753" lon="2.35298">
        <ele>64</ele>
        <time>2015-09-21T18:59:06.000Z</time>
      </trkpt>
      <trkpt lat="48.82733" lon="2.35305">
        <ele>62.799999237061</ele>
        <time>2015-09-21T18:59:10.000Z</time>
      </trkpt>
      <trkpt lat="48.82713" lon="2.35315">
        <ele>60</ele>
        <time>2015-09-21T18:59:15.000Z</time>
      </trkpt>
      <trkpt lat="48.82694" lon="2.35325">
        <ele>60.400001525879</ele>
        <time>2015-09-21T18:59:20.000Z</time>
      </trkpt>
      <trkpt lat="48.82692" lon="2.3533">
        <ele>60.599998474121</ele>
        <time>2015-09-21T18:59:21.000Z</time>
      </trkpt>
      <trkpt lat="48.82694" lon="2.35358">
        <ele>59.599998474121</ele>
        <time>2015-09-21T18:59:25.000Z</time>
      </trkpt>
      <trkpt lat="48.82697" lon="2.35383">
        <ele>58.599998474121</ele>
        <time>2015-09-21T18:59:28.000Z</time>
      </trkpt>
      <trkpt lat="48.82699" lon="2.35418">
        <ele>56.599998474121</ele>
        <time>2015-09-21T18:59:32.000Z</time>
      </trkpt>
      <trkpt lat="48.82699" lon="2.35453">
        <ele>59</ele>
        <time>2015-09-21T18:59:36.000Z</time>
      </trkpt>
      <trkpt lat="48.82705" lon="2.3548">
        <ele>60.200000762939</ele>
        <time>2015-09-21T18:59:40.000Z</time>
      </trkpt>
      <trkpt lat="48.82713" lon="2.35509">
        <ele>60.200000762939</ele>
        <time>2015-09-21T18:59:45.000Z</time>
      </trkpt>
      <trkpt lat="48.82716" lon="2.35515">
        <ele>60.200000762939</ele>
        <time>2015-09-21T18:59:46.000Z</time>
      </trkpt>
      <trkpt lat="48.82724" lon="2.35535">
        <ele>60</ele>
        <time>2015-09-21T18:59:50.000Z</time>
      </trkpt>
      <trkpt lat="48.82734" lon="2.35559">
        <ele>60.599998474121</ele>
        <time>2015-09-21T18:59:55.000Z</time>
      </trkpt>
      <trkpt lat="48.82746" lon="2.35581">
        <ele>60.599998474121</ele>
        <time>2015-09-21T19:00:00.000Z</time>
      </trkpt>
      <trkpt lat="48.82751" lon="2.35615">
        <ele>59.400001525879</ele>
        <time>2015-09-21T19:00:05.000Z</time>
      </trkpt>
      <trkpt lat="48.82756" lon="2.35645">
        <ele>58.599998474121</ele>
        <time>2015-09-21T19:00:10.000Z</time>
      </trkpt>
      <trkpt lat="48.82757" lon="2.35649">
        <ele>58.599998474121</ele>
        <time>2015-09-21T19:00:11.000Z</time>
      </trkpt>
      <trkpt lat="48.82757" lon="2.3567">
        <ele>59.200000762939</ele>
        <time>2015-09-21T19:00:16.000Z</time>
      </trkpt>
      <trkpt lat="48.82755" lon="2.35672">
        <ele>59.599998474121</ele>
        <time>2015-09-21T19:00:17.000Z</time>
      </trkpt>
      <trkpt lat="48.82733" lon="2.35688">
        <ele>63.599998474121</ele>
        <time>2015-09-21T19:00:22.000Z</time>
      </trkpt>
      <trkpt lat="48.82712" lon="2.35698">
        <ele>67.199996948242</ele>
        <time>2015-09-21T19:00:27.000Z</time>
      </trkpt>
      <trkpt lat="48.82693" lon="2.35707">
        <ele>69.199996948242</ele>
        <time>2015-09-21T19:00:32.000Z</time>
      </trkpt>
      <trkpt lat="48.82684" lon="2.35717">
        <ele>71.400001525879</ele>
        <time>2015-09-21T19:00:39.000Z</time>
      </trkpt>
      <trkpt lat="48.82686" lon="2.3573">
        <ele>71</ele>
        <time>2015-09-21T19:00:43.000Z</time>
      </trkpt>
      <trkpt lat="48.82691" lon="2.35758">
        <ele>69.599998474121</ele>
        <time>2015-09-21T19:00:48.000Z</time>
      </trkpt>
      <trkpt lat="48.827" lon="2.35788">
        <ele>68.400001525879</ele>
        <time>2015-09-21T19:00:53.000Z</time>
      </trkpt>
      <trkpt lat="48.82708" lon="2.35815">
        <ele>67.599998474121</ele>
        <time>2015-09-21T19:00:57.000Z</time>
      </trkpt>
      <trkpt lat="48.82716" lon="2.35843">
        <ele>66.199996948242</ele>
        <time>2015-09-21T19:01:02.000Z</time>
      </trkpt>
      <trkpt lat="48.82724" lon="2.35873">
        <ele>63.200000762939</ele>
        <time>2015-09-21T19:01:08.000Z</time>
      </trkpt>
      <trkpt lat="48.82732" lon="2.35898">
        <ele>59.799999237061</ele>
        <time>2015-09-21T19:01:14.000Z</time>
      </trkpt>
      <trkpt lat="48.82719" lon="2.35919">
        <ele>56</ele>
        <time>2015-09-21T19:01:22.000Z</time>
      </trkpt>
      <trkpt lat="48.82713" lon="2.35924">
        <ele>55.200000762939</ele>
        <time>2015-09-21T19:01:24.000Z</time>
      </trkpt>
      <trkpt lat="48.82696" lon="2.35936">
        <ele>51.799999237061</ele>
        <time>2015-09-21T19:01:30.000Z</time>
      </trkpt>
      <trkpt lat="48.82678" lon="2.35955">
        <ele>51</ele>
        <time>2015-09-21T19:01:35.000Z</time>
      </trkpt>
      <trkpt lat="48.82662" lon="2.35975">
        <ele>51</ele>
        <time>2015-09-21T19:01:39.000Z</time>
      </trkpt>
      <trkpt lat="48.82657" lon="2.35988">
        <ele>52</ele>
        <time>2015-09-21T19:01:42.000Z</time>
      </trkpt>
      <trkpt lat="48.82659" lon="2.35999">
        <ele>52</ele>
        <time>2015-09-21T19:01:46.000Z</time>
      </trkpt>
      <trkpt lat="48.8267" lon="2.36027">
        <ele>50.400001525879</ele>
        <time>2015-09-21T19:01:52.000Z</time>
      </trkpt>
      <trkpt lat="48.82682" lon="2.36048">
        <ele>49</ele>
        <time>2015-09-21T19:01:56.000Z</time>
      </trkpt>
      <trkpt lat="48.82694" lon="2.36071">
        <ele>48</ele>
        <time>2015-09-21T19:02:00.000Z</time>
      </trkpt>
      <trkpt lat="48.82702" lon="2.361">
        <ele>46.200000762939</ele>
        <time>2015-09-21T19:02:04.000Z</time>
      </trkpt>
      <trkpt lat="48.82713" lon="2.36129">
        <ele>45.200000762939</ele>
        <time>2015-09-21T19:02:08.000Z</time>
      </trkpt>
      <trkpt lat="48.82725" lon="2.36156">
        <ele>44.400001525879</ele>
        <time>2015-09-21T19:02:12.000Z</time>
      </trkpt>
      <trkpt lat="48.82736" lon="2.36183">
        <ele>42.799999237061</ele>
        <time>2015-09-21T19:02:16.000Z</time>
      </trkpt>
      <trkpt lat="48.82739" lon="2.36189">
        <ele>43.799999237061</ele>
        <time>2015-09-21T19:02:17.000Z</time>
      </trkpt>
      <trkpt lat="48.82749" lon="2.36213">
        <ele>42.599998474121</ele>
        <time>2015-09-21T19:02:21.000Z</time>
      </trkpt>
      <trkpt lat="48.82757" lon="2.36232">
        <ele>41.400001525879</ele>
        <time>2015-09-21T19:02:25.000Z</time>
      </trkpt>
      <trkpt lat="48.82758" lon="2.36237">
        <ele>41.200000762939</ele>
        <time>2015-09-21T19:02:26.000Z</time>
      </trkpt>
      <trkpt lat="48.82766" lon="2.36242">
        <ele>37.799999237061</ele>
        <time>2015-09-21T19:02:34.000Z</time>
      </trkpt>
      <trkpt lat="48.82768" lon="2.3624">
        <ele>37.400001525879</ele>
        <time>2015-09-21T19:02:35.000Z</time>
      </trkpt>
      <trkpt lat="48.82782" lon="2.36224">
        <ele>35.200000762939</ele>
        <time>2015-09-21T19:02:42.000Z</time>
      </trkpt>
      <trkpt lat="48.82796" lon="2.36205">
        <ele>34.799999237061</ele>
        <time>2015-09-21T19:02:47.000Z</time>
      </trkpt>
      <trkpt lat="48.82811" lon="2.36188">
        <ele>34.599998474121</ele>
        <time>2015-09-21T19:02:52.000Z</time>
      </trkpt>
      <trkpt lat="48.82828" lon="2.36169">
        <ele>34</ele>
        <time>2015-09-21T19:02:57.000Z</time>
      </trkpt>
      <trkpt lat="48.82843" lon="2.36152">
        <ele>33.599998474121</ele>
        <time>2015-09-21T19:03:01.000Z</time>
      </trkpt>
      <trkpt lat="48.82859" lon="2.36133">
        <ele>33.200000762939</ele>
        <time>2015-09-21T19:03:05.000Z</time>
      </trkpt>
      <trkpt lat="48.82874" lon="2.36115">
        <ele>32.799999237061</ele>
        <time>2015-09-21T19:03:09.000Z</time>
      </trkpt>
      <trkpt lat="48.82891" lon="2.36098">
        <ele>33.400001525879</ele>
        <time>2015-09-21T19:03:13.000Z</time>
      </trkpt>
      <trkpt lat="48.82908" lon="2.36086">
        <ele>34</ele>
        <time>2015-09-21T19:03:17.000Z</time>
      </trkpt>
      <trkpt lat="48.82924" lon="2.36064">
        <ele>35.799999237061</ele>
        <time>2015-09-21T19:03:22.000Z</time>
      </trkpt>
      <trkpt lat="48.82931" lon="2.36052">
        <ele>35.799999237061</ele>
        <time>2015-09-21T19:03:25.000Z</time>
      </trkpt>
      <trkpt lat="48.82946" lon="2.36031">
        <ele>36.400001525879</ele>
        <time>2015-09-21T19:03:31.000Z</time>
      </trkpt>
      <trkpt lat="48.82964" lon="2.36011">
        <ele>45.200000762939</ele>
        <time>2015-09-21T19:03:50.000Z</time>
      </trkpt>
      <trkpt lat="48.82981" lon="2.35991">
        <ele>46</ele>
        <time>2015-09-21T19:03:56.000Z</time>
      </trkpt>
      <trkpt lat="48.82996" lon="2.35972">
        <ele>46.400001525879</ele>
        <time>2015-09-21T19:04:01.000Z</time>
      </trkpt>
      <trkpt lat="48.83013" lon="2.35951">
        <ele>46.200000762939</ele>
        <time>2015-09-21T19:04:06.000Z</time>
      </trkpt>
      <trkpt lat="48.83029" lon="2.35935">
        <ele>46.400001525879</ele>
        <time>2015-09-21T19:04:10.000Z</time>
      </trkpt>
      <trkpt lat="48.83047" lon="2.35918">
        <ele>46.599998474121</ele>
        <time>2015-09-21T19:04:14.000Z</time>
      </trkpt>
      <trkpt lat="48.83064" lon="2.35902">
        <ele>46.799999237061</ele>
        <time>2015-09-21T19:04:18.000Z</time>
      </trkpt>
      <trkpt lat="48.83085" lon="2.35886">
        <ele>46.799999237061</ele>
        <time>2015-09-21T19:04:23.000Z</time>
      </trkpt>
      <trkpt lat="48.83102" lon="2.35868">
        <ele>47.200000762939</ele>
        <time>2015-09-21T19:04:27.000Z</time>
      </trkpt>
      <trkpt lat="48.83104" lon="2.35864">
        <ele>47.200000762939</ele>
        <time>2015-09-21T19:04:28.000Z</time>
      </trkpt>
      <trkpt lat="48.83119" lon="2.35848">
        <ele>47.400001525879</ele>
        <time>2015-09-21T19:04:33.000Z</time>
      </trkpt>
      <trkpt lat="48.83123" lon="2.35843">
        <ele>47.599998474121</ele>
        <time>2015-09-21T19:04:35.000Z</time>
      </trkpt>
      <trkpt lat="48.83127" lon="2.35839">
        <ele>47.799999237061</ele>
        <time>2015-09-21T19:04:37.000Z</time>
      </trkpt>
      <trkpt lat="48.83134" lon="2.35832">
        <ele>47.799999237061</ele>
        <time>2015-09-21T19:04:41.000Z</time>
      </trkpt>
      <trkpt lat="48.83142" lon="2.35822">
        <ele>50</ele>
        <time>2015-09-21T19:04:48.000Z</time>
      </trkpt>
      <trkpt lat="48.83162" lon="2.35824">
        <ele>56.799999237061</ele>
        <time>2015-09-21T19:05:06.000Z</time>
      </trkpt>
      <trkpt lat="48.8317" lon="2.35849">
        <ele>57.599998474121</ele>
        <time>2015-09-21T19:05:14.000Z</time>
      </trkpt>
      <trkpt lat="48.83178" lon="2.35874">
        <ele>57.200000762939</ele>
        <time>2015-09-21T19:05:19.000Z</time>
      </trkpt>
      <trkpt lat="48.83189" lon="2.35903">
        <ele>56</ele>
        <time>2015-09-21T19:05:24.000Z</time>
      </trkpt>
      <trkpt lat="48.83197" lon="2.35929">
        <ele>53.799999237061</ele>
        <time>2015-09-21T19:05:28.000Z</time>
      </trkpt>
      <trkpt lat="48.83206" lon="2.3596">
        <ele>54.400001525879</ele>
        <time>2015-09-21T19:05:32.000Z</time>
      </trkpt>
      <trkpt lat="48.83216" lon="2.35991">
        <ele>52.599998474121</ele>
        <time>2015-09-21T19:05:36.000Z</time>
      </trkpt>
      <trkpt lat="48.83227" lon="2.36023">
        <ele>48.400001525879</ele>
        <time>2015-09-21T19:05:40.000Z</time>
      </trkpt>
      <trkpt lat="48.83237" lon="2.36055">
        <ele>45.400001525879</ele>
        <time>2015-09-21T19:05:44.000Z</time>
      </trkpt>
      <trkpt lat="48.83242" lon="2.36071">
        <ele>43</ele>
        <time>2015-09-21T19:05:46.000Z</time>
      </trkpt>
      <trkpt lat="48.8325" lon="2.36096">
        <ele>41.599998474121</ele>
        <time>2015-09-21T19:05:49.000Z</time>
      </trkpt>
      <trkpt lat="48.83261" lon="2.36127">
        <ele>39.799999237061</ele>
        <time>2015-09-21T19:05:53.000Z</time>
      </trkpt>
      <trkpt lat="48.83271" lon="2.36158">
        <ele>38.599998474121</ele>
        <time>2015-09-21T19:05:57.000Z</time>
      </trkpt>
      <trkpt lat="48.83278" lon="2.36183">
        <ele>37</ele>
        <time>2015-09-21T19:06:01.000Z</time>
      </trkpt>
      <trkpt lat="48.83281" lon="2.36199">
        <ele>36.400001525879</ele>
        <time>2015-09-21T19:06:04.000Z</time>
      </trkpt>
      <trkpt lat="48.83275" lon="2.36225">
        <ele>39.799999237061</ele>
        <time>2015-09-21T19:06:11.000Z</time>
      </trkpt>
      <trkpt lat="48.83273" lon="2.36228">
        <ele>40</ele>
        <time>2015-09-21T19:06:12.000Z</time>
      </trkpt>
      <trkpt lat="48.8327" lon="2.36236">
        <ele>40.599998474121</ele>
        <time>2015-09-21T19:06:14.000Z</time>
      </trkpt>
      <trkpt lat="48.83258" lon="2.36258">
        <ele>41.799999237061</ele>
        <time>2015-09-21T19:06:19.000Z</time>
      </trkpt>
      <trkpt lat="48.83252" lon="2.36267">
        <ele>43</ele>
        <time>2015-09-21T19:06:21.000Z</time>
      </trkpt>
      <trkpt lat="48.83236" lon="2.36291">
        <ele>43.799999237061</ele>
        <time>2015-09-21T19:06:26.000Z</time>
      </trkpt>
      <trkpt lat="48.83224" lon="2.36317">
        <ele>44.799999237061</ele>
        <time>2015-09-21T19:06:30.000Z</time>
      </trkpt>
      <trkpt lat="48.83207" lon="2.36338">
        <ele>45.599998474121</ele>
        <time>2015-09-21T19:06:34.000Z</time>
      </trkpt>
      <trkpt lat="48.83193" lon="2.36355">
        <ele>46</ele>
        <time>2015-09-21T19:06:38.000Z</time>
      </trkpt>
      <trkpt lat="48.83178" lon="2.36375">
        <ele>48.599998474121</ele>
        <time>2015-09-21T19:06:44.000Z</time>
      </trkpt>
      <trkpt lat="48.83175" lon="2.36379">
        <ele>49.599998474121</ele>
        <time>2015-09-21T19:06:45.000Z</time>
      </trkpt>
      <trkpt lat="48.83168" lon="2.36385">
        <ele>51</ele>
        <time>2015-09-21T19:06:47.000Z</time>
      </trkpt>
      <trkpt lat="48.83156" lon="2.36396">
        <ele>50.400001525879</ele>
        <time>2015-09-21T19:06:50.000Z</time>
      </trkpt>
      <trkpt lat="48.83146" lon="2.36422">
        <ele>51</ele>
        <time>2015-09-21T19:06:55.000Z</time>
      </trkpt>
      <trkpt lat="48.83141" lon="2.36433">
        <ele>52.599998474121</ele>
        <time>2015-09-21T19:06:58.000Z</time>
      </trkpt>
      <trkpt lat="48.83138" lon="2.36441">
        <ele>54.400001525879</ele>
        <time>2015-09-21T19:07:00.000Z</time>
      </trkpt>
      <trkpt lat="48.83125" lon="2.36463">
        <ele>57.799999237061</ele>
        <time>2015-09-21T19:07:05.000Z</time>
      </trkpt>
      <trkpt lat="48.83122" lon="2.36469">
        <ele>58.599998474121</ele>
        <time>2015-09-21T19:07:06.000Z</time>
      </trkpt>
      <trkpt lat="48.83112" lon="2.36495">
        <ele>58.799999237061</ele>
        <time>2015-09-21T19:07:10.000Z</time>
      </trkpt>
      <trkpt lat="48.83102" lon="2.36523">
        <ele>59.400001525879</ele>
        <time>2015-09-21T19:07:14.000Z</time>
      </trkpt>
      <trkpt lat="48.83095" lon="2.36545">
        <ele>59.200000762939</ele>
        <time>2015-09-21T19:07:17.000Z</time>
      </trkpt>
      <trkpt lat="48.83089" lon="2.3657">
        <ele>61.799999237061</ele>
        <time>2015-09-21T19:07:21.000Z</time>
      </trkpt>
      <trkpt lat="48.83081" lon="2.36596">
        <ele>63.799999237061</ele>
        <time>2015-09-21T19:07:27.000Z</time>
      </trkpt>
      <trkpt lat="48.83065" lon="2.36595">
        <ele>66.400001525879</ele>
        <time>2015-09-21T19:07:32.000Z</time>
      </trkpt>
      <trkpt lat="48.83058" lon="2.36592">
        <ele>67.599998474121</ele>
        <time>2015-09-21T19:07:34.000Z</time>
      </trkpt>
      <trkpt lat="48.83041" lon="2.36578">
        <ele>70.599998474121</ele>
        <time>2015-09-21T19:07:39.000Z</time>
      </trkpt>
      <trkpt lat="48.83023" lon="2.36562">
        <ele>72.400001525879</ele>
        <time>2015-09-21T19:07:43.000Z</time>
      </trkpt>
      <trkpt lat="48.83001" lon="2.36549">
        <ele>74.199996948242</ele>
        <time>2015-09-21T19:07:47.000Z</time>
      </trkpt>
      <trkpt lat="48.82978" lon="2.36542">
        <ele>75.199996948242</ele>
        <time>2015-09-21T19:07:52.000Z</time>
      </trkpt>
      <trkpt lat="48.82966" lon="2.36536">
        <ele>75.800003051758</ele>
        <time>2015-09-21T19:07:55.000Z</time>
      </trkpt>
      <trkpt lat="48.82947" lon="2.36523">
        <ele>77.800003051758</ele>
        <time>2015-09-21T19:08:01.000Z</time>
      </trkpt>
      <trkpt lat="48.82944" lon="2.3652">
        <ele>78.400001525879</ele>
        <time>2015-09-21T19:08:02.000Z</time>
      </trkpt>
      <trkpt lat="48.82934" lon="2.36508">
        <ele>79.599998474121</ele>
        <time>2015-09-21T19:08:06.000Z</time>
      </trkpt>
      <trkpt lat="48.82923" lon="2.36521">
        <ele>78.800003051758</ele>
        <time>2015-09-21T19:08:13.000Z</time>
      </trkpt>
      <trkpt lat="48.82922" lon="2.36528">
        <ele>78</ele>
        <time>2015-09-21T19:08:15.000Z</time>
      </trkpt>
      <trkpt lat="48.82917" lon="2.36557">
        <ele>71.400001525879</ele>
        <time>2015-09-21T19:08:29.000Z</time>
      </trkpt>
      <trkpt lat="48.82915" lon="2.36561">
        <ele>71.199996948242</ele>
        <time>2015-09-21T19:08:30.000Z</time>
      </trkpt>
      <trkpt lat="48.82907" lon="2.36591">
        <ele>70.599998474121</ele>
        <time>2015-09-21T19:08:35.000Z</time>
      </trkpt>
      <trkpt lat="48.82901" lon="2.36618">
        <ele>70.400001525879</ele>
        <time>2015-09-21T19:08:38.000Z</time>
      </trkpt>
      <trkpt lat="48.82892" lon="2.36645">
        <ele>70</ele>
        <time>2015-09-21T19:08:41.000Z</time>
      </trkpt>
      <trkpt lat="48.82883" lon="2.36674">
        <ele>69.400001525879</ele>
        <time>2015-09-21T19:08:44.000Z</time>
      </trkpt>
      <trkpt lat="48.82871" lon="2.36704">
        <ele>68.599998474121</ele>
        <time>2015-09-21T19:08:48.000Z</time>
      </trkpt>
      <trkpt lat="48.82863" lon="2.3672">
        <ele>67.599998474121</ele>
        <time>2015-09-21T19:08:51.000Z</time>
      </trkpt>
      <trkpt lat="48.82851" lon="2.3674">
        <ele>62.599998474121</ele>
        <time>2015-09-21T19:08:58.000Z</time>
      </trkpt>
      <trkpt lat="48.82851" lon="2.36747">
        <ele>63.599998474121</ele>
        <time>2015-09-21T19:09:02.000Z</time>
      </trkpt>
      <trkpt lat="48.82851" lon="2.36748">
        <ele>63.799999237061</ele>
        <time>2015-09-21T19:09:03.000Z</time>
      </trkpt>
      <trkpt lat="48.82855" lon="2.36761">
        <ele>69.199996948242</ele>
        <time>2015-09-21T19:09:25.000Z</time>
      </trkpt>
      <trkpt lat="48.82852" lon="2.36792">
        <ele>68.800003051758</ele>
        <time>2015-09-21T19:09:30.000Z</time>
      </trkpt>
      <trkpt lat="48.82847" lon="2.36822">
        <ele>69</ele>
        <time>2015-09-21T19:09:34.000Z</time>
      </trkpt>
      <trkpt lat="48.82841" lon="2.36849">
        <ele>69</ele>
        <time>2015-09-21T19:09:37.000Z</time>
      </trkpt>
      <trkpt lat="48.82834" lon="2.36875">
        <ele>68.400001525879</ele>
        <time>2015-09-21T19:09:40.000Z</time>
      </trkpt>
      <trkpt lat="48.82824" lon="2.36902">
        <ele>67.400001525879</ele>
        <time>2015-09-21T19:09:43.000Z</time>
      </trkpt>
      <trkpt lat="48.82815" lon="2.36928">
        <ele>66.599998474121</ele>
        <time>2015-09-21T19:09:46.000Z</time>
      </trkpt>
      <trkpt lat="48.8281" lon="2.36944">
        <ele>64.400001525879</ele>
        <time>2015-09-21T19:09:49.000Z</time>
      </trkpt>
      <trkpt lat="48.82808" lon="2.36953">
        <ele>62.400001525879</ele>
        <time>2015-09-21T19:09:51.000Z</time>
      </trkpt>
      <trkpt lat="48.82805" lon="2.36985">
        <ele>56</ele>
        <time>2015-09-21T19:09:57.000Z</time>
      </trkpt>
      <trkpt lat="48.82803" lon="2.36999">
        <ele>51.400001525879</ele>
        <time>2015-09-21T19:10:00.000Z</time>
      </trkpt>
      <trkpt lat="48.82802" lon="2.37003">
        <ele>46</ele>
        <time>2015-09-21T19:10:04.000Z</time>
      </trkpt>
      <trkpt lat="48.82801" lon="2.36998">
        <ele>44.599998474121</ele>
        <time>2015-09-21T19:10:06.000Z</time>
      </trkpt>
      <trkpt lat="48.82802" lon="2.3699">
        <ele>43.799999237061</ele>
        <time>2015-09-21T19:10:08.000Z</time>
      </trkpt>
      <trkpt lat="48.82803" lon="2.36958">
        <ele>42.200000762939</ele>
        <time>2015-09-21T19:10:14.000Z</time>
      </trkpt>
      <trkpt lat="48.82811" lon="2.36943">
        <ele>44</ele>
        <time>2015-09-21T19:10:25.000Z</time>
      </trkpt>
      <trkpt lat="48.82832" lon="2.36956">
        <ele>43.599998474121</ele>
        <time>2015-09-21T19:10:32.000Z</time>
      </trkpt>
      <trkpt lat="48.8285" lon="2.36968">
        <ele>41.599998474121</ele>
        <time>2015-09-21T19:10:37.000Z</time>
      </trkpt>
      <trkpt lat="48.8285" lon="2.36971">
        <ele>41</ele>
        <time>2015-09-21T19:10:38.000Z</time>
      </trkpt>
      <trkpt lat="48.82857" lon="2.36983">
        <ele>40.400001525879</ele>
        <time>2015-09-21T19:10:42.000Z</time>
      </trkpt>
      <trkpt lat="48.8287" lon="2.37003">
        <ele>40.200000762939</ele>
        <time>2015-09-21T19:10:47.000Z</time>
      </trkpt>
      <trkpt lat="48.82885" lon="2.37026">
        <ele>40.599998474121</ele>
        <time>2015-09-21T19:10:52.000Z</time>
      </trkpt>
      <trkpt lat="48.82897" lon="2.3705">
        <ele>40.400001525879</ele>
        <time>2015-09-21T19:10:57.000Z</time>
      </trkpt>
      <trkpt lat="48.82911" lon="2.37072">
        <ele>40.400001525879</ele>
        <time>2015-09-21T19:11:02.000Z</time>
      </trkpt>
      <trkpt lat="48.82926" lon="2.37097">
        <ele>39.400001525879</ele>
        <time>2015-09-21T19:11:07.000Z</time>
      </trkpt>
      <trkpt lat="48.8294" lon="2.37116">
        <ele>39</ele>
        <time>2015-09-21T19:11:11.000Z</time>
      </trkpt>
      <trkpt lat="48.82954" lon="2.37133">
        <ele>39</ele>
        <time>2015-09-21T19:11:16.000Z</time>
      </trkpt>
      <trkpt lat="48.82967" lon="2.37155">
        <ele>38</ele>
        <time>2015-09-21T19:11:23.000Z</time>
      </trkpt>
      <trkpt lat="48.82979" lon="2.37179">
        <ele>36.400001525879</ele>
        <time>2015-09-21T19:11:29.000Z</time>
      </trkpt>
      <trkpt lat="48.8299" lon="2.372">
        <ele>35.200000762939</ele>
        <time>2015-09-21T19:11:33.000Z</time>
      </trkpt>
      <trkpt lat="48.83003" lon="2.37226">
        <ele>34.400001525879</ele>
        <time>2015-09-21T19:11:37.000Z</time>
      </trkpt>
      <trkpt lat="48.83013" lon="2.3725">
        <ele>37</ele>
        <time>2015-09-21T19:11:41.000Z</time>
      </trkpt>
      <trkpt lat="48.83023" lon="2.37273">
        <ele>39.200000762939</ele>
        <time>2015-09-21T19:11:45.000Z</time>
      </trkpt>
      <trkpt lat="48.83036" lon="2.37301">
        <ele>40.799999237061</ele>
        <time>2015-09-21T19:11:50.000Z</time>
      </trkpt>
      <trkpt lat="48.8305" lon="2.37325">
        <ele>40.599998474121</ele>
        <time>2015-09-21T19:11:55.000Z</time>
      </trkpt>
      <trkpt lat="48.83065" lon="2.37346">
        <ele>40.599998474121</ele>
        <time>2015-09-21T19:11:59.000Z</time>
      </trkpt>
      <trkpt lat="48.83081" lon="2.37367">
        <ele>40</ele>
        <time>2015-09-21T19:12:03.000Z</time>
      </trkpt>
      <trkpt lat="48.83094" lon="2.37389">
        <ele>39.599998474121</ele>
        <time>2015-09-21T19:12:07.000Z</time>
      </trkpt>
      <trkpt lat="48.83106" lon="2.37414">
        <ele>38.599998474121</ele>
        <time>2015-09-21T19:12:12.000Z</time>
      </trkpt>
      <trkpt lat="48.83106" lon="2.37425">
        <ele>37.599998474121</ele>
        <time>2015-09-21T19:12:14.000Z</time>
      </trkpt>
      <trkpt lat="48.83108" lon="2.37434">
        <ele>34.400001525879</ele>
        <time>2015-09-21T19:12:17.000Z</time>
      </trkpt>
      <trkpt lat="48.8311" lon="2.37442">
        <ele>33.400001525879</ele>
        <time>2015-09-21T19:12:20.000Z</time>
      </trkpt>
      <trkpt lat="48.83116" lon="2.37447">
        <ele>34.599998474121</ele>
        <time>2015-09-21T19:13:15.000Z</time>
      </trkpt>
      <trkpt lat="48.83122" lon="2.37471">
        <ele>39.200000762939</ele>
        <time>2015-09-21T19:13:54.000Z</time>
      </trkpt>
      <trkpt lat="48.83117" lon="2.37479">
        <ele>41</ele>
        <time>2015-09-21T19:14:00.000Z</time>
      </trkpt>
      <trkpt lat="48.83114" lon="2.37485">
        <ele>43.400001525879</ele>
        <time>2015-09-21T19:14:07.000Z</time>
      </trkpt>
      <trkpt lat="48.83109" lon="2.37483">
        <ele>46</ele>
        <time>2015-09-21T19:14:48.000Z</time>
      </trkpt>
      <trkpt lat="48.83115" lon="2.37477">
        <ele>45.200000762939</ele>
        <time>2015-09-21T19:15:17.000Z</time>
      </trkpt>
      <trkpt lat="48.83111" lon="2.37485">
        <ele>46</ele>
        <time>2015-09-21T19:15:43.000Z</time>
      </trkpt>
      <trkpt lat="48.83114" lon="2.37486">
        <ele>46.200000762939</ele>
        <time>2015-09-21T19:15:55.000Z</time>
      </trkpt>
      <trkpt lat="48.83112" lon="2.37478">
        <ele>41</ele>
        <time>2015-09-21T19:17:01.000Z</time>
      </trkpt>
      <trkpt lat="48.83094" lon="2.37489">
        <ele>41.200000762939</ele>
        <time>2015-09-21T19:17:12.000Z</time>
      </trkpt>
      <trkpt lat="48.83077" lon="2.37503">
        <ele>40.799999237061</ele>
        <time>2015-09-21T19:17:20.000Z</time>
      </trkpt>
      <trkpt lat="48.83059" lon="2.37517">
        <ele>41.599998474121</ele>
        <time>2015-09-21T19:17:27.000Z</time>
      </trkpt>
      <trkpt lat="48.83042" lon="2.37534">
        <ele>42.200000762939</ele>
        <time>2015-09-21T19:17:33.000Z</time>
      </trkpt>
      <trkpt lat="48.83024" lon="2.37551">
        <ele>42.200000762939</ele>
        <time>2015-09-21T19:17:39.000Z</time>
      </trkpt>
      <trkpt lat="48.83007" lon="2.37566">
        <ele>41.799999237061</ele>
        <time>2015-09-21T19:17:46.000Z</time>
      </trkpt>
      <trkpt lat="48.82994" lon="2.37551">
        <ele>42.799999237061</ele>
        <time>2015-09-21T19:17:52.000Z</time>
      </trkpt>
      <trkpt lat="48.82978" lon="2.37537">
        <ele>45.799999237061</ele>
        <time>2015-09-21T19:18:00.000Z</time>
      </trkpt>
      <trkpt lat="48.82959" lon="2.3752">
        <ele>50.799999237061</ele>
        <time>2015-09-21T19:18:06.000Z</time>
      </trkpt>
      <trkpt lat="48.82956" lon="2.37515">
        <ele>51.799999237061</ele>
        <time>2015-09-21T19:18:07.000Z</time>
      </trkpt>
      <trkpt lat="48.8294" lon="2.3749">
        <ele>55.799999237061</ele>
        <time>2015-09-21T19:18:12.000Z</time>
      </trkpt>
      <trkpt lat="48.8293" lon="2.37461">
        <ele>58.400001525879</ele>
        <time>2015-09-21T19:18:17.000Z</time>
      </trkpt>
      <trkpt lat="48.82913" lon="2.37448">
        <ele>60.400001525879</ele>
        <time>2015-09-21T19:18:21.000Z</time>
      </trkpt>
      <trkpt lat="48.82893" lon="2.37449">
        <ele>64.199996948242</ele>
        <time>2015-09-21T19:18:25.000Z</time>
      </trkpt>
      <trkpt lat="48.82876" lon="2.37461">
        <ele>70</ele>
        <time>2015-09-21T19:18:29.000Z</time>
      </trkpt>
      <trkpt lat="48.82864" lon="2.37455">
        <ele>72.599998474121</ele>
        <time>2015-09-21T19:18:35.000Z</time>
      </trkpt>
      <trkpt lat="48.82863" lon="2.37449">
        <ele>72.400001525879</ele>
        <time>2015-09-21T19:18:36.000Z</time>
      </trkpt>
      <trkpt lat="48.82854" lon="2.3742">
        <ele>73.199996948242</ele>
        <time>2015-09-21T19:18:41.000Z</time>
      </trkpt>
      <trkpt lat="48.82844" lon="2.3739">
        <ele>74</ele>
        <time>2015-09-21T19:18:46.000Z</time>
      </trkpt>
      <trkpt lat="48.82833" lon="2.37364">
        <ele>76.400001525879</ele>
        <time>2015-09-21T19:18:51.000Z</time>
      </trkpt>
      <trkpt lat="48.8282" lon="2.37343">
        <ele>79</ele>
        <time>2015-09-21T19:18:58.000Z</time>
      </trkpt>
      <trkpt lat="48.82818" lon="2.37342">
        <ele>79.199996948242</ele>
        <time>2015-09-21T19:19:00.000Z</time>
      </trkpt>
      <trkpt lat="48.82812" lon="2.37343">
        <ele>80.400001525879</ele>
        <time>2015-09-21T19:19:07.000Z</time>
      </trkpt>
      <trkpt lat="48.82793" lon="2.37352">
        <ele>80.400001525879</ele>
        <time>2015-09-21T19:19:14.000Z</time>
      </trkpt>
      <trkpt lat="48.82777" lon="2.37367">
        <ele>81.800003051758</ele>
        <time>2015-09-21T19:19:20.000Z</time>
      </trkpt>
      <trkpt lat="48.82766" lon="2.37395">
        <ele>80.599998474121</ele>
        <time>2015-09-21T19:19:25.000Z</time>
      </trkpt>
      <trkpt lat="48.82757" lon="2.37419">
        <ele>79.199996948242</ele>
        <time>2015-09-21T19:19:29.000Z</time>
      </trkpt>
      <trkpt lat="48.82744" lon="2.37445">
        <ele>80.400001525879</ele>
        <time>2015-09-21T19:19:36.000Z</time>
      </trkpt>
      <trkpt lat="48.82737" lon="2.37475">
        <ele>79.199996948242</ele>
        <time>2015-09-21T19:19:41.000Z</time>
      </trkpt>
      <trkpt lat="48.82731" lon="2.37506">
        <ele>76.199996948242</ele>
        <time>2015-09-21T19:19:46.000Z</time>
      </trkpt>
      <trkpt lat="48.82726" lon="2.37533">
        <ele>74</ele>
        <time>2015-09-21T19:19:50.000Z</time>
      </trkpt>
      <trkpt lat="48.82721" lon="2.37561">
        <ele>72.199996948242</ele>
        <time>2015-09-21T19:19:54.000Z</time>
      </trkpt>
      <trkpt lat="48.82714" lon="2.37588">
        <ele>69.199996948242</ele>
        <time>2015-09-21T19:19:58.000Z</time>
      </trkpt>
      <trkpt lat="48.82707" lon="2.37618">
        <ele>66</ele>
        <time>2015-09-21T19:20:02.000Z</time>
      </trkpt>
      <trkpt lat="48.82699" lon="2.37649">
        <ele>62.400001525879</ele>
        <time>2015-09-21T19:20:07.000Z</time>
      </trkpt>
      <trkpt lat="48.82691" lon="2.37679">
        <ele>60.799999237061</ele>
        <time>2015-09-21T19:20:11.000Z</time>
      </trkpt>
      <trkpt lat="48.82682" lon="2.3771">
        <ele>57.200000762939</ele>
        <time>2015-09-21T19:20:15.000Z</time>
      </trkpt>
      <trkpt lat="48.82673" lon="2.37737">
        <ele>53</ele>
        <time>2015-09-21T19:20:19.000Z</time>
      </trkpt>
      <trkpt lat="48.82661" lon="2.37759">
        <ele>49.599998474121</ele>
        <time>2015-09-21T19:20:23.000Z</time>
      </trkpt>
      <trkpt lat="48.82646" lon="2.37772">
        <ele>44.799999237061</ele>
        <time>2015-09-21T19:20:27.000Z</time>
      </trkpt>
      <trkpt lat="48.8264" lon="2.37797">
        <ele>39.400001525879</ele>
        <time>2015-09-21T19:20:31.000Z</time>
      </trkpt>
      <trkpt lat="48.82638" lon="2.37802">
        <ele>37.599998474121</ele>
        <time>2015-09-21T19:20:32.000Z</time>
      </trkpt>
      <trkpt lat="48.82634" lon="2.3782">
        <ele>32.400001525879</ele>
        <time>2015-09-21T19:20:35.000Z</time>
      </trkpt>
      <trkpt lat="48.8264" lon="2.37853">
        <ele>24.39999961853</ele>
        <time>2015-09-21T19:20:40.000Z</time>
      </trkpt>
      <trkpt lat="48.82651" lon="2.37879">
        <ele>21</ele>
        <time>2015-09-21T19:20:44.000Z</time>
      </trkpt>
      <trkpt lat="48.82663" lon="2.37908">
        <ele>20.39999961853</ele>
        <time>2015-09-21T19:20:48.000Z</time>
      </trkpt>
      <trkpt lat="48.82676" lon="2.37935">
        <ele>19.60000038147</ele>
        <time>2015-09-21T19:20:52.000Z</time>
      </trkpt>
      <trkpt lat="48.82747" lon="2.38114">
        <ele>35.799999237061</ele>
        <time>2015-09-21T19:21:14.000Z</time>
      </trkpt>
      <trkpt lat="48.82744" lon="2.38146">
        <ele>36.400001525879</ele>
        <time>2015-09-21T19:21:19.000Z</time>
      </trkpt>
      <trkpt lat="48.82772" lon="2.38156">
        <ele>57.799999237061</ele>
        <time>2015-09-21T19:21:23.000Z</time>
      </trkpt>
      <trkpt lat="48.82762" lon="2.38156">
        <ele>58.400001525879</ele>
        <time>2015-09-21T19:21:28.000Z</time>
      </trkpt>
      <trkpt lat="48.82753" lon="2.38159">
        <ele>59.599998474121</ele>
        <time>2015-09-21T19:21:31.000Z</time>
      </trkpt>
      <trkpt lat="48.82733" lon="2.38165">
        <ele>67</ele>
        <time>2015-09-21T19:21:39.000Z</time>
      </trkpt>
      <trkpt lat="48.82726" lon="2.38178">
        <ele>63</ele>
        <time>2015-09-21T19:21:42.000Z</time>
      </trkpt>
      <trkpt lat="48.82715" lon="2.38205">
        <ele>53.400001525879</ele>
        <time>2015-09-21T19:21:48.000Z</time>
      </trkpt>
      <trkpt lat="48.82717" lon="2.38212">
        <ele>52.599998474121</ele>
        <time>2015-09-21T19:21:50.000Z</time>
      </trkpt>
      <trkpt lat="48.82725" lon="2.38237">
        <ele>53.599998474121</ele>
        <time>2015-09-21T19:21:56.000Z</time>
      </trkpt>
      <trkpt lat="48.82725" lon="2.38243">
        <ele>54</ele>
        <time>2015-09-21T19:21:58.000Z</time>
      </trkpt>
      <trkpt lat="48.82718" lon="2.38248">
        <ele>58</ele>
        <time>2015-09-21T19:22:05.000Z</time>
      </trkpt>
      <trkpt lat="48.82707" lon="2.38226">
        <ele>65.400001525879</ele>
        <time>2015-09-21T19:22:16.000Z</time>
      </trkpt>
      <trkpt lat="48.82715" lon="2.38222">
        <ele>71.800003051758</ele>
        <time>2015-09-21T19:22:54.000Z</time>
      </trkpt>
      <trkpt lat="48.82711" lon="2.38219">
        <ele>77.599998474121</ele>
        <time>2015-09-21T19:23:17.000Z</time>
      </trkpt>
      <trkpt lat="48.82701" lon="2.3821">
        <ele>79.599998474121</ele>
        <time>2015-09-21T19:23:22.000Z</time>
      </trkpt>
      <trkpt lat="48.82689" lon="2.38197">
        <ele>83</ele>
        <time>2015-09-21T19:23:31.000Z</time>
      </trkpt>
      <trkpt lat="48.82683" lon="2.38203">
        <ele>85.199996948242</ele>
        <time>2015-09-21T19:23:49.000Z</time>
      </trkpt>
      <trkpt lat="48.82678" lon="2.38208">
        <ele>85.800003051758</ele>
        <time>2015-09-21T19:23:52.000Z</time>
      </trkpt>
      <trkpt lat="48.82668" lon="2.38217">
        <ele>88</ele>
        <time>2015-09-21T19:23:56.000Z</time>
      </trkpt>
      <trkpt lat="48.82669" lon="2.38217">
        <ele>88.599998474121</ele>
        <time>2015-09-21T19:23:57.000Z</time>
      </trkpt>
      <trkpt lat="48.82687" lon="2.38203">
        <ele>91.599998474121</ele>
        <time>2015-09-21T19:24:01.000Z</time>
      </trkpt>
      <trkpt lat="48.82705" lon="2.38181">
        <ele>93</ele>
        <time>2015-09-21T19:24:05.000Z</time>
      </trkpt>
      <trkpt lat="48.82724" lon="2.38155">
        <ele>91.599998474121</ele>
        <time>2015-09-21T19:24:08.000Z</time>
      </trkpt>
      <trkpt lat="48.82742" lon="2.38138">
        <ele>90</ele>
        <time>2015-09-21T19:24:11.000Z</time>
      </trkpt>
      <trkpt lat="48.82759" lon="2.38116">
        <ele>84.400001525879</ele>
        <time>2015-09-21T19:24:16.000Z</time>
      </trkpt>
      <trkpt lat="48.8277" lon="2.38102">
        <ele>83.599998474121</ele>
        <time>2015-09-21T19:24:20.000Z</time>
      </trkpt>
      <trkpt lat="48.82788" lon="2.38087">
        <ele>80.400001525879</ele>
        <time>2015-09-21T19:24:24.000Z</time>
      </trkpt>
      <trkpt lat="48.82804" lon="2.38074">
        <ele>79</ele>
        <time>2015-09-21T19:24:27.000Z</time>
      </trkpt>
      <trkpt lat="48.82826" lon="2.38057">
        <ele>77.199996948242</ele>
        <time>2015-09-21T19:24:30.000Z</time>
      </trkpt>
      <trkpt lat="48.82843" lon="2.38043">
        <ele>75</ele>
        <time>2015-09-21T19:24:33.000Z</time>
      </trkpt>
      <trkpt lat="48.82859" lon="2.38027">
        <ele>73.400001525879</ele>
        <time>2015-09-21T19:24:36.000Z</time>
      </trkpt>
      <trkpt lat="48.82863" lon="2.38022">
        <ele>72.800003051758</ele>
        <time>2015-09-21T19:24:37.000Z</time>
      </trkpt>
      <trkpt lat="48.82884" lon="2.38004">
        <ele>69</ele>
        <time>2015-09-21T19:24:40.000Z</time>
      </trkpt>
      <trkpt lat="48.82894" lon="2.37995">
        <ele>66.400001525879</ele>
        <time>2015-09-21T19:24:42.000Z</time>
      </trkpt>
      <trkpt lat="48.82908" lon="2.37976">
        <ele>63.599998474121</ele>
        <time>2015-09-21T19:24:46.000Z</time>
      </trkpt>
      <trkpt lat="48.82922" lon="2.37956">
        <ele>60.799999237061</ele>
        <time>2015-09-21T19:24:50.000Z</time>
      </trkpt>
      <trkpt lat="48.82926" lon="2.37951">
        <ele>59.599998474121</ele>
        <time>2015-09-21T19:24:52.000Z</time>
      </trkpt>
      <trkpt lat="48.82939" lon="2.37933">
        <ele>56.200000762939</ele>
        <time>2015-09-21T19:24:57.000Z</time>
      </trkpt>
      <trkpt lat="48.82958" lon="2.37915">
        <ele>53.799999237061</ele>
        <time>2015-09-21T19:25:01.000Z</time>
      </trkpt>
      <trkpt lat="48.82974" lon="2.37901">
        <ele>52</ele>
        <time>2015-09-21T19:25:04.000Z</time>
      </trkpt>
      <trkpt lat="48.82994" lon="2.37881">
        <ele>48.799999237061</ele>
        <time>2015-09-21T19:25:08.000Z</time>
      </trkpt>
      <trkpt lat="48.83011" lon="2.37863">
        <ele>45.799999237061</ele>
        <time>2015-09-21T19:25:12.000Z</time>
      </trkpt>
      <trkpt lat="48.83022" lon="2.37847">
        <ele>43.599998474121</ele>
        <time>2015-09-21T19:25:15.000Z</time>
      </trkpt>
      <trkpt lat="48.83039" lon="2.37828">
        <ele>41.400001525879</ele>
        <time>2015-09-21T19:25:19.000Z</time>
      </trkpt>
      <trkpt lat="48.83056" lon="2.37807">
        <ele>38.599998474121</ele>
        <time>2015-09-21T19:25:23.000Z</time>
      </trkpt>
      <trkpt lat="48.83072" lon="2.3779">
        <ele>35.400001525879</ele>
        <time>2015-09-21T19:25:27.000Z</time>
      </trkpt>
      <trkpt lat="48.83089" lon="2.37783">
        <ele>38.599998474121</ele>
        <time>2015-09-21T19:25:30.000Z</time>
      </trkpt>
      <trkpt lat="48.83098" lon="2.37772">
        <ele>40.799999237061</ele>
        <time>2015-09-21T19:25:43.000Z</time>
      </trkpt>
      <trkpt lat="48.83098" lon="2.37768">
        <ele>39.799999237061</ele>
        <time>2015-09-21T19:25:45.000Z</time>
      </trkpt>
      <trkpt lat="48.83113" lon="2.37743">
        <ele>36.799999237061</ele>
        <time>2015-09-21T19:25:50.000Z</time>
      </trkpt>
      <trkpt lat="48.83133" lon="2.37724">
        <ele>34.400001525879</ele>
        <time>2015-09-21T19:25:53.000Z</time>
      </trkpt>
      <trkpt lat="48.83151" lon="2.37702">
        <ele>29.799999237061</ele>
        <time>2015-09-21T19:25:56.000Z</time>
      </trkpt>
      <trkpt lat="48.83163" lon="2.37685">
        <ele>26.799999237061</ele>
        <time>2015-09-21T19:25:59.000Z</time>
      </trkpt>
      <trkpt lat="48.83172" lon="2.3766">
        <ele>23.799999237061</ele>
        <time>2015-09-21T19:26:04.000Z</time>
      </trkpt>
      <trkpt lat="48.83175" lon="2.37656">
        <ele>22.60000038147</ele>
        <time>2015-09-21T19:26:07.000Z</time>
      </trkpt>
      <trkpt lat="48.83187" lon="2.37642">
        <ele>31</ele>
        <time>2015-09-21T19:26:23.000Z</time>
      </trkpt>
      <trkpt lat="48.83195" lon="2.37629">
        <ele>38.200000762939</ele>
        <time>2015-09-21T19:26:28.000Z</time>
      </trkpt>
      <trkpt lat="48.832" lon="2.37628">
        <ele>42.599998474121</ele>
        <time>2015-09-21T19:26:33.000Z</time>
      </trkpt>
      <trkpt lat="48.83204" lon="2.37633">
        <ele>46</ele>
        <time>2015-09-21T19:26:38.000Z</time>
      </trkpt>
      <trkpt lat="48.83218" lon="2.37623">
        <ele>52</ele>
        <time>2015-09-21T19:27:08.000Z</time>
      </trkpt>
      <trkpt lat="48.83236" lon="2.37609">
        <ele>49</ele>
        <time>2015-09-21T19:27:18.000Z</time>
      </trkpt>
      <trkpt lat="48.83237" lon="2.37606">
        <ele>48.400001525879</ele>
        <time>2015-09-21T19:27:19.000Z</time>
      </trkpt>
      <trkpt lat="48.83246" lon="2.37596">
        <ele>46.599998474121</ele>
        <time>2015-09-21T19:27:24.000Z</time>
      </trkpt>
      <trkpt lat="48.83261" lon="2.37579">
        <ele>43.400001525879</ele>
        <time>2015-09-21T19:27:31.000Z</time>
      </trkpt>
      <trkpt lat="48.83276" lon="2.37558">
        <ele>43.599998474121</ele>
        <time>2015-09-21T19:27:37.000Z</time>
      </trkpt>
      <trkpt lat="48.83292" lon="2.37534">
        <ele>42.599998474121</ele>
        <time>2015-09-21T19:27:43.000Z</time>
      </trkpt>
      <trkpt lat="48.83305" lon="2.37512">
        <ele>42.200000762939</ele>
        <time>2015-09-21T19:27:47.000Z</time>
      </trkpt>
      <trkpt lat="48.83319" lon="2.37495">
        <ele>39.799999237061</ele>
        <time>2015-09-21T19:27:52.000Z</time>
      </trkpt>
      <trkpt lat="48.83325" lon="2.37492">
        <ele>39.599998474121</ele>
        <time>2015-09-21T19:27:54.000Z</time>
      </trkpt>
      <trkpt lat="48.83337" lon="2.37515">
        <ele>38</ele>
        <time>2015-09-21T19:28:00.000Z</time>
      </trkpt>
      <trkpt lat="48.8334" lon="2.37517">
        <ele>37.799999237061</ele>
        <time>2015-09-21T19:28:01.000Z</time>
      </trkpt>
      <trkpt lat="48.83351" lon="2.37509">
        <ele>37</ele>
        <time>2015-09-21T19:28:05.000Z</time>
      </trkpt>
      <trkpt lat="48.83369" lon="2.37493">
        <ele>35.400001525879</ele>
        <time>2015-09-21T19:28:11.000Z</time>
      </trkpt>
      <trkpt lat="48.83386" lon="2.37478">
        <ele>34.400001525879</ele>
        <time>2015-09-21T19:28:17.000Z</time>
      </trkpt>
      <trkpt lat="48.83401" lon="2.37459">
        <ele>33.799999237061</ele>
        <time>2015-09-21T19:28:23.000Z</time>
      </trkpt>
      <trkpt lat="48.83412" lon="2.37445">
        <ele>34.200000762939</ele>
        <time>2015-09-21T19:28:30.000Z</time>
      </trkpt>
      <trkpt lat="48.83418" lon="2.37451">
        <ele>34.200000762939</ele>
        <time>2015-09-21T19:28:33.000Z</time>
      </trkpt>
      <trkpt lat="48.8343" lon="2.37474">
        <ele>32.200000762939</ele>
        <time>2015-09-21T19:28:40.000Z</time>
      </trkpt>
      <trkpt lat="48.83441" lon="2.37497">
        <ele>28.39999961853</ele>
        <time>2015-09-21T19:28:46.000Z</time>
      </trkpt>
      <trkpt lat="48.83448" lon="2.37508">
        <ele>28.39999961853</ele>
        <time>2015-09-21T19:28:49.000Z</time>
      </trkpt>
      <trkpt lat="48.83464" lon="2.37531">
        <ele>31.60000038147</ele>
        <time>2015-09-21T19:28:53.000Z</time>
      </trkpt>
      <trkpt lat="48.83471" lon="2.37552">
        <ele>33.200000762939</ele>
        <time>2015-09-21T19:28:57.000Z</time>
      </trkpt>
      <trkpt lat="48.83456" lon="2.37573">
        <ele>34.200000762939</ele>
        <time>2015-09-21T19:29:03.000Z</time>
      </trkpt>
      <trkpt lat="48.83456" lon="2.37576">
        <ele>34.200000762939</ele>
        <time>2015-09-21T19:29:04.000Z</time>
      </trkpt>
      <trkpt lat="48.83471" lon="2.37592">
        <ele>34.400001525879</ele>
        <time>2015-09-21T19:29:09.000Z</time>
      </trkpt>
      <trkpt lat="48.83477" lon="2.37605">
        <ele>34</ele>
        <time>2015-09-21T19:29:13.000Z</time>
      </trkpt>
      <trkpt lat="48.83464" lon="2.37621">
        <ele>33.799999237061</ele>
        <time>2015-09-21T19:29:19.000Z</time>
      </trkpt>
      <trkpt lat="48.8345" lon="2.37641">
        <ele>34.599998474121</ele>
        <time>2015-09-21T19:29:26.000Z</time>
      </trkpt>
      <trkpt lat="48.8345" lon="2.37643">
        <ele>34.400001525879</ele>
        <time>2015-09-21T19:29:27.000Z</time>
      </trkpt>
      <trkpt lat="48.83456" lon="2.37659">
        <ele>32.400001525879</ele>
        <time>2015-09-21T19:29:34.000Z</time>
      </trkpt>
      <trkpt lat="48.83465" lon="2.37684">
        <ele>32.200000762939</ele>
        <time>2015-09-21T19:29:46.000Z</time>
      </trkpt>
      <trkpt lat="48.83478" lon="2.37708">
        <ele>31.200000762939</ele>
        <time>2015-09-21T19:29:57.000Z</time>
      </trkpt>
      <trkpt lat="48.83489" lon="2.37732">
        <ele>29.200000762939</ele>
        <time>2015-09-21T19:30:03.000Z</time>
      </trkpt>
      <trkpt lat="48.83496" lon="2.37752">
        <ele>29.799999237061</ele>
        <time>2015-09-21T19:30:09.000Z</time>
      </trkpt>
      <trkpt lat="48.83505" lon="2.37772">
        <ele>27.60000038147</ele>
        <time>2015-09-21T19:30:13.000Z</time>
      </trkpt>
      <trkpt lat="48.83519" lon="2.37798">
        <ele>26.60000038147</ele>
        <time>2015-09-21T19:30:17.000Z</time>
      </trkpt>
      <trkpt lat="48.8353" lon="2.37819">
        <ele>26.799999237061</ele>
        <time>2015-09-21T19:30:20.000Z</time>
      </trkpt>
      <trkpt lat="48.83546" lon="2.37844">
        <ele>30</ele>
        <time>2015-09-21T19:30:24.000Z</time>
      </trkpt>
      <trkpt lat="48.83552" lon="2.37858">
        <ele>31.60000038147</ele>
        <time>2015-09-21T19:30:26.000Z</time>
      </trkpt>
      <trkpt lat="48.83558" lon="2.3787">
        <ele>32.599998474121</ele>
        <time>2015-09-21T19:30:28.000Z</time>
      </trkpt>
      <trkpt lat="48.83573" lon="2.3789">
        <ele>35</ele>
        <time>2015-09-21T19:30:33.000Z</time>
      </trkpt>
      <trkpt lat="48.83575" lon="2.37894">
        <ele>35.599998474121</ele>
        <time>2015-09-21T19:30:34.000Z</time>
      </trkpt>
      <trkpt lat="48.83583" lon="2.37904">
        <ele>35.799999237061</ele>
        <time>2015-09-21T19:30:39.000Z</time>
      </trkpt>
      <trkpt lat="48.83575" lon="2.37888">
        <ele>35.599998474121</ele>
        <time>2015-09-21T19:31:24.000Z</time>
      </trkpt>
      <trkpt lat="48.83562" lon="2.37865">
        <ele>33.599998474121</ele>
        <time>2015-09-21T19:31:29.000Z</time>
      </trkpt>
      <trkpt lat="48.83556" lon="2.37856">
        <ele>32.799999237061</ele>
        <time>2015-09-21T19:31:33.000Z</time>
      </trkpt>
      <trkpt lat="48.83557" lon="2.37864">
        <ele>33.400001525879</ele>
        <time>2015-09-21T19:31:40.000Z</time>
      </trkpt>
      <trkpt lat="48.83561" lon="2.37873">
        <ele>32</ele>
        <time>2015-09-21T19:32:47.000Z</time>
      </trkpt>
      <trkpt lat="48.83574" lon="2.37894">
        <ele>30.799999237061</ele>
        <time>2015-09-21T19:32:54.000Z</time>
      </trkpt>
      <trkpt lat="48.83577" lon="2.37898">
        <ele>30.200000762939</ele>
        <time>2015-09-21T19:32:57.000Z</time>
      </trkpt>
      <trkpt lat="48.83586" lon="2.37909">
        <ele>29</ele>
        <time>2015-09-21T19:33:48.000Z</time>
      </trkpt>
      <trkpt lat="48.83574" lon="2.37899">
        <ele>29</ele>
        <time>2015-09-21T19:34:16.000Z</time>
      </trkpt>
      <trkpt lat="48.83567" lon="2.37923">
        <ele>33</ele>
        <time>2015-09-21T19:35:03.000Z</time>
      </trkpt>
      <trkpt lat="48.83552" lon="2.3794">
        <ele>32.599998474121</ele>
        <time>2015-09-21T19:35:08.000Z</time>
      </trkpt>
      <trkpt lat="48.83536" lon="2.37962">
        <ele>32.599998474121</ele>
        <time>2015-09-21T19:35:13.000Z</time>
      </trkpt>
      <trkpt lat="48.83521" lon="2.37984">
        <ele>32</ele>
        <time>2015-09-21T19:35:18.000Z</time>
      </trkpt>
      <trkpt lat="48.83504" lon="2.38004">
        <ele>30.39999961853</ele>
        <time>2015-09-21T19:35:23.000Z</time>
      </trkpt>
      <trkpt lat="48.83488" lon="2.38026">
        <ele>28.60000038147</ele>
        <time>2015-09-21T19:35:28.000Z</time>
      </trkpt>
      <trkpt lat="48.83473" lon="2.38048">
        <ele>26.799999237061</ele>
        <time>2015-09-21T19:35:33.000Z</time>
      </trkpt>
      <trkpt lat="48.83457" lon="2.38068">
        <ele>25.39999961853</ele>
        <time>2015-09-21T19:35:38.000Z</time>
      </trkpt>
      <trkpt lat="48.83442" lon="2.38086">
        <ele>24.39999961853</ele>
        <time>2015-09-21T19:35:43.000Z</time>
      </trkpt>
      <trkpt lat="48.83426" lon="2.38106">
        <ele>26.39999961853</ele>
        <time>2015-09-21T19:35:48.000Z</time>
      </trkpt>
      <trkpt lat="48.83411" lon="2.38126">
        <ele>26</ele>
        <time>2015-09-21T19:35:53.000Z</time>
      </trkpt>
      <trkpt lat="48.83397" lon="2.38144">
        <ele>24.799999237061</ele>
        <time>2015-09-21T19:35:58.000Z</time>
      </trkpt>
      <trkpt lat="48.83382" lon="2.38165">
        <ele>24.200000762939</ele>
        <time>2015-09-21T19:36:04.000Z</time>
      </trkpt>
      <trkpt lat="48.83366" lon="2.38183">
        <ele>22.799999237061</ele>
        <time>2015-09-21T19:36:11.000Z</time>
      </trkpt>
      <trkpt lat="48.83352" lon="2.38203">
        <ele>22.39999961853</ele>
        <time>2015-09-21T19:36:21.000Z</time>
      </trkpt>
      <trkpt lat="48.83349" lon="2.38205">
        <ele>23</ele>
        <time>2015-09-21T19:36:24.000Z</time>
      </trkpt>
      <trkpt lat="48.83348" lon="2.38203">
        <ele>23.799999237061</ele>
        <time>2015-09-21T19:36:27.000Z</time>
      </trkpt>
      <trkpt lat="48.8336" lon="2.38224">
        <ele>24</ele>
        <time>2015-09-21T19:36:44.000Z</time>
      </trkpt>
      <trkpt lat="48.83372" lon="2.38248">
        <ele>24.60000038147</ele>
        <time>2015-09-21T19:36:50.000Z</time>
      </trkpt>
      <trkpt lat="48.83385" lon="2.38272">
        <ele>23.799999237061</ele>
        <time>2015-09-21T19:36:56.000Z</time>
      </trkpt>
      <trkpt lat="48.83398" lon="2.38296">
        <ele>21.60000038147</ele>
        <time>2015-09-21T19:37:02.000Z</time>
      </trkpt>
      <trkpt lat="48.83409" lon="2.3832">
        <ele>20.60000038147</ele>
        <time>2015-09-21T19:37:07.000Z</time>
      </trkpt>
      <trkpt lat="48.83421" lon="2.38347">
        <ele>19</ele>
        <time>2015-09-21T19:37:12.000Z</time>
      </trkpt>
      <trkpt lat="48.83433" lon="2.38367">
        <ele>19.200000762939</ele>
        <time>2015-09-21T19:37:16.000Z</time>
      </trkpt>
      <trkpt lat="48.83445" lon="2.3839">
        <ele>18</ele>
        <time>2015-09-21T19:37:20.000Z</time>
      </trkpt>
      <trkpt lat="48.83459" lon="2.38416">
        <ele>16.799999237061</ele>
        <time>2015-09-21T19:37:25.000Z</time>
      </trkpt>
      <trkpt lat="48.83472" lon="2.38438">
        <ele>15.60000038147</ele>
        <time>2015-09-21T19:37:29.000Z</time>
      </trkpt>
      <trkpt lat="48.83476" lon="2.38443">
        <ele>16</ele>
        <time>2015-09-21T19:37:30.000Z</time>
      </trkpt>
      <trkpt lat="48.83487" lon="2.38454">
        <ele>15.199999809265</ele>
        <time>2015-09-21T19:37:33.000Z</time>
      </trkpt>
      <trkpt lat="48.83501" lon="2.38477">
        <ele>14.39999961853</ele>
        <time>2015-09-21T19:37:38.000Z</time>
      </trkpt>
      <trkpt lat="48.83516" lon="2.38494">
        <ele>15.39999961853</ele>
        <time>2015-09-21T19:37:42.000Z</time>
      </trkpt>
      <trkpt lat="48.83525" lon="2.38507">
        <ele>17</ele>
        <time>2015-09-21T19:37:45.000Z</time>
      </trkpt>
      <trkpt lat="48.83534" lon="2.38517">
        <ele>20.39999961853</ele>
        <time>2015-09-21T19:37:49.000Z</time>
      </trkpt>
      <trkpt lat="48.83535" lon="2.38519">
        <ele>21</ele>
        <time>2015-09-21T19:37:50.000Z</time>
      </trkpt>
      <trkpt lat="48.83545" lon="2.3854">
        <ele>23.200000762939</ele>
        <time>2015-09-21T19:37:56.000Z</time>
      </trkpt>
      <trkpt lat="48.83547" lon="2.38545">
        <ele>23.200000762939</ele>
        <time>2015-09-21T19:37:57.000Z</time>
      </trkpt>
      <trkpt lat="48.8356" lon="2.38568">
        <ele>24.60000038147</ele>
        <time>2015-09-21T19:38:02.000Z</time>
      </trkpt>
      <trkpt lat="48.83572" lon="2.38589">
        <ele>26</ele>
        <time>2015-09-21T19:38:07.000Z</time>
      </trkpt>
      <trkpt lat="48.83584" lon="2.38615">
        <ele>26.39999961853</ele>
        <time>2015-09-21T19:38:12.000Z</time>
      </trkpt>
      <trkpt lat="48.83595" lon="2.3864">
        <ele>25.200000762939</ele>
        <time>2015-09-21T19:38:18.000Z</time>
      </trkpt>
      <trkpt lat="48.83607" lon="2.38666">
        <ele>27.39999961853</ele>
        <time>2015-09-21T19:38:23.000Z</time>
      </trkpt>
      <trkpt lat="48.83616" lon="2.38692">
        <ele>30.200000762939</ele>
        <time>2015-09-21T19:38:27.000Z</time>
      </trkpt>
      <trkpt lat="48.8363" lon="2.38719">
        <ele>30.60000038147</ele>
        <time>2015-09-21T19:38:31.000Z</time>
      </trkpt>
      <trkpt lat="48.83641" lon="2.38741">
        <ele>31.60000038147</ele>
        <time>2015-09-21T19:38:34.000Z</time>
      </trkpt>
      <trkpt lat="48.83653" lon="2.38765">
        <ele>34.400001525879</ele>
        <time>2015-09-21T19:38:39.000Z</time>
      </trkpt>
      <trkpt lat="48.83662" lon="2.38791">
        <ele>37.599998474121</ele>
        <time>2015-09-21T19:38:43.000Z</time>
      </trkpt>
      <trkpt lat="48.83666" lon="2.3881">
        <ele>40.200000762939</ele>
        <time>2015-09-21T19:38:47.000Z</time>
      </trkpt>
      <trkpt lat="48.83663" lon="2.38821">
        <ele>41</ele>
        <time>2015-09-21T19:38:49.000Z</time>
      </trkpt>
      <trkpt lat="48.83665" lon="2.3885">
        <ele>42.799999237061</ele>
        <time>2015-09-21T19:38:54.000Z</time>
      </trkpt>
      <trkpt lat="48.83669" lon="2.38879">
        <ele>44.200000762939</ele>
        <time>2015-09-21T19:39:00.000Z</time>
      </trkpt>
      <trkpt lat="48.8367" lon="2.38883">
        <ele>44.400001525879</ele>
        <time>2015-09-21T19:39:01.000Z</time>
      </trkpt>
      <trkpt lat="48.83672" lon="2.38895">
        <ele>45.400001525879</ele>
        <time>2015-09-21T19:39:03.000Z</time>
      </trkpt>
      <trkpt lat="48.83683" lon="2.38939">
        <ele>48.200000762939</ele>
        <time>2015-09-21T19:39:07.000Z</time>
      </trkpt>
      <trkpt lat="48.8369" lon="2.38976">
        <ele>45</ele>
        <time>2015-09-21T19:39:09.000Z</time>
      </trkpt>
      <trkpt lat="48.83701" lon="2.39007">
        <ele>41.799999237061</ele>
        <time>2015-09-21T19:39:11.000Z</time>
      </trkpt>
      <trkpt lat="48.8371" lon="2.39034">
        <ele>39.200000762939</ele>
        <time>2015-09-21T19:39:14.000Z</time>
      </trkpt>
      <trkpt lat="48.83712" lon="2.39042">
        <ele>38.599998474121</ele>
        <time>2015-09-21T19:39:15.000Z</time>
      </trkpt>
      <trkpt lat="48.83723" lon="2.3907">
        <ele>37.400001525879</ele>
        <time>2015-09-21T19:39:19.000Z</time>
      </trkpt>
      <trkpt lat="48.83731" lon="2.39092">
        <ele>36.400001525879</ele>
        <time>2015-09-21T19:39:23.000Z</time>
      </trkpt>
      <trkpt lat="48.83734" lon="2.39101">
        <ele>36</ele>
        <time>2015-09-21T19:39:25.000Z</time>
      </trkpt>
      <trkpt lat="48.83738" lon="2.39122">
        <ele>37.799999237061</ele>
        <time>2015-09-21T19:39:54.000Z</time>
      </trkpt>
      <trkpt lat="48.83745" lon="2.39149">
        <ele>39.599998474121</ele>
        <time>2015-09-21T19:39:59.000Z</time>
      </trkpt>
      <trkpt lat="48.83758" lon="2.39171">
        <ele>39.799999237061</ele>
        <time>2015-09-21T19:40:03.000Z</time>
      </trkpt>
      <trkpt lat="48.83772" lon="2.39191">
        <ele>39.799999237061</ele>
        <time>2015-09-21T19:40:06.000Z</time>
      </trkpt>
      <trkpt lat="48.83787" lon="2.39212">
        <ele>39.599998474121</ele>
        <time>2015-09-21T19:40:09.000Z</time>
      </trkpt>
      <trkpt lat="48.83801" lon="2.39233">
        <ele>40.200000762939</ele>
        <time>2015-09-21T19:40:12.000Z</time>
      </trkpt>
      <trkpt lat="48.83814" lon="2.39253">
        <ele>41</ele>
        <time>2015-09-21T19:40:15.000Z</time>
      </trkpt>
      <trkpt lat="48.83827" lon="2.39274">
        <ele>42</ele>
        <time>2015-09-21T19:40:18.000Z</time>
      </trkpt>
      <trkpt lat="48.83842" lon="2.39302">
        <ele>42.799999237061</ele>
        <time>2015-09-21T19:40:22.000Z</time>
      </trkpt>
      <trkpt lat="48.83849" lon="2.39312">
        <ele>42.799999237061</ele>
        <time>2015-09-21T19:40:24.000Z</time>
      </trkpt>
      <trkpt lat="48.83855" lon="2.3933">
        <ele>42</ele>
        <time>2015-09-21T19:40:30.000Z</time>
      </trkpt>
      <trkpt lat="48.83854" lon="2.39334">
        <ele>42.799999237061</ele>
        <time>2015-09-21T19:40:33.000Z</time>
      </trkpt>
      <trkpt lat="48.83853" lon="2.3934">
        <ele>45.799999237061</ele>
        <time>2015-09-21T19:41:15.000Z</time>
      </trkpt>
      <trkpt lat="48.8384" lon="2.39359">
        <ele>45.799999237061</ele>
        <time>2015-09-21T19:41:19.000Z</time>
      </trkpt>
      <trkpt lat="48.83826" lon="2.39377">
        <ele>46</ele>
        <time>2015-09-21T19:41:23.000Z</time>
      </trkpt>
      <trkpt lat="48.83821" lon="2.39388">
        <ele>46</ele>
        <time>2015-09-21T19:41:25.000Z</time>
      </trkpt>
      <trkpt lat="48.83808" lon="2.39411">
        <ele>45.599998474121</ele>
        <time>2015-09-21T19:41:29.000Z</time>
      </trkpt>
      <trkpt lat="48.83803" lon="2.39416">
        <ele>45.599998474121</ele>
        <time>2015-09-21T19:41:30.000Z</time>
      </trkpt>
      <trkpt lat="48.83799" lon="2.39435">
        <ele>45.200000762939</ele>
        <time>2015-09-21T19:41:33.000Z</time>
      </trkpt>
      <trkpt lat="48.83805" lon="2.39462">
        <ele>44.400001525879</ele>
        <time>2015-09-21T19:41:38.000Z</time>
      </trkpt>
      <trkpt lat="48.8381" lon="2.39474">
        <ele>44.400001525879</ele>
        <time>2015-09-21T19:41:40.000Z</time>
      </trkpt>
      <trkpt lat="48.83819" lon="2.39493">
        <ele>44.599998474121</ele>
        <time>2015-09-21T19:41:43.000Z</time>
      </trkpt>
      <trkpt lat="48.83832" lon="2.39517">
        <ele>45</ele>
        <time>2015-09-21T19:41:47.000Z</time>
      </trkpt>
      <trkpt lat="48.83848" lon="2.39541">
        <ele>45.599998474121</ele>
        <time>2015-09-21T19:41:51.000Z</time>
      </trkpt>
      <trkpt lat="48.83859" lon="2.39568">
        <ele>45.200000762939</ele>
        <time>2015-09-21T19:41:55.000Z</time>
      </trkpt>
      <trkpt lat="48.83871" lon="2.39596">
        <ele>45.400001525879</ele>
        <time>2015-09-21T19:41:59.000Z</time>
      </trkpt>
      <trkpt lat="48.83883" lon="2.3962">
        <ele>47</ele>
        <time>2015-09-21T19:42:04.000Z</time>
      </trkpt>
      <trkpt lat="48.83872" lon="2.39619">
        <ele>58.200000762939</ele>
        <time>2015-09-21T19:42:48.000Z</time>
      </trkpt>
      <trkpt lat="48.83865" lon="2.39629">
        <ele>57.200000762939</ele>
        <time>2015-09-21T19:42:52.000Z</time>
      </trkpt>
      <trkpt lat="48.83845" lon="2.39641">
        <ele>54.599998474121</ele>
        <time>2015-09-21T19:42:58.000Z</time>
      </trkpt>
      <trkpt lat="48.83824" lon="2.39656">
        <ele>52.400001525879</ele>
        <time>2015-09-21T19:43:03.000Z</time>
      </trkpt>
      <trkpt lat="48.83806" lon="2.3967">
        <ele>51.400001525879</ele>
        <time>2015-09-21T19:43:07.000Z</time>
      </trkpt>
      <trkpt lat="48.83789" lon="2.39688">
        <ele>50.599998474121</ele>
        <time>2015-09-21T19:43:11.000Z</time>
      </trkpt>
      <trkpt lat="48.83774" lon="2.39713">
        <ele>48</ele>
        <time>2015-09-21T19:43:15.000Z</time>
      </trkpt>
      <trkpt lat="48.83758" lon="2.39735">
        <ele>45.799999237061</ele>
        <time>2015-09-21T19:43:19.000Z</time>
      </trkpt>
      <trkpt lat="48.83754" lon="2.39741">
        <ele>45</ele>
        <time>2015-09-21T19:43:20.000Z</time>
      </trkpt>
      <trkpt lat="48.83736" lon="2.39761">
        <ele>42.400001525879</ele>
        <time>2015-09-21T19:43:24.000Z</time>
      </trkpt>
      <trkpt lat="48.83727" lon="2.39771">
        <ele>41.799999237061</ele>
        <time>2015-09-21T19:43:26.000Z</time>
      </trkpt>
      <trkpt lat="48.83709" lon="2.39793">
        <ele>39.799999237061</ele>
        <time>2015-09-21T19:43:30.000Z</time>
      </trkpt>
      <trkpt lat="48.83695" lon="2.39812">
        <ele>38.400001525879</ele>
        <time>2015-09-21T19:43:33.000Z</time>
      </trkpt>
      <trkpt lat="48.83682" lon="2.39832">
        <ele>37.200000762939</ele>
        <time>2015-09-21T19:43:36.000Z</time>
      </trkpt>
      <trkpt lat="48.83668" lon="2.3985">
        <ele>36</ele>
        <time>2015-09-21T19:43:39.000Z</time>
      </trkpt>
      <trkpt lat="48.83653" lon="2.39868">
        <ele>35</ele>
        <time>2015-09-21T19:43:42.000Z</time>
      </trkpt>
      <trkpt lat="48.83638" lon="2.39889">
        <ele>33.599998474121</ele>
        <time>2015-09-21T19:43:46.000Z</time>
      </trkpt>
      <trkpt lat="48.83621" lon="2.39907">
        <ele>32.200000762939</ele>
        <time>2015-09-21T19:43:50.000Z</time>
      </trkpt>
      <trkpt lat="48.83617" lon="2.3991">
        <ele>31.799999237061</ele>
        <time>2015-09-21T19:43:51.000Z</time>
      </trkpt>
      <trkpt lat="48.83602" lon="2.39928">
        <ele>30.799999237061</ele>
        <time>2015-09-21T19:43:55.000Z</time>
      </trkpt>
      <trkpt lat="48.83588" lon="2.39942">
        <ele>30.200000762939</ele>
        <time>2015-09-21T19:43:59.000Z</time>
      </trkpt>
      <trkpt lat="48.83578" lon="2.39948">
        <ele>30.799999237061</ele>
        <time>2015-09-21T19:44:04.000Z</time>
      </trkpt>
      <trkpt lat="48.83583" lon="2.39958">
        <ele>36</ele>
        <time>2015-09-21T19:44:26.000Z</time>
      </trkpt>
      <trkpt lat="48.83583" lon="2.39963">
        <ele>36.200000762939</ele>
        <time>2015-09-21T19:44:28.000Z</time>
      </trkpt>
      <trkpt lat="48.8357" lon="2.39983">
        <ele>37.799999237061</ele>
        <time>2015-09-21T19:44:34.000Z</time>
      </trkpt>
      <trkpt lat="48.83552" lon="2.40003">
        <ele>38.599998474121</ele>
        <time>2015-09-21T19:44:38.000Z</time>
      </trkpt>
      <trkpt lat="48.83532" lon="2.40019">
        <ele>38</ele>
        <time>2015-09-21T19:44:40.000Z</time>
      </trkpt>
      <trkpt lat="48.83511" lon="2.40034">
        <ele>37</ele>
        <time>2015-09-21T19:44:42.000Z</time>
      </trkpt>
      <trkpt lat="48.8349" lon="2.40049">
        <ele>35.400001525879</ele>
        <time>2015-09-21T19:44:45.000Z</time>
      </trkpt>
      <trkpt lat="48.83484" lon="2.40061">
        <ele>35.799999237061</ele>
        <time>2015-09-21T19:44:48.000Z</time>
      </trkpt>
      <trkpt lat="48.83481" lon="2.40069">
        <ele>35.799999237061</ele>
        <time>2015-09-21T19:44:51.000Z</time>
      </trkpt>
      <trkpt lat="48.83478" lon="2.40079">
        <ele>36</ele>
        <time>2015-09-21T19:44:55.000Z</time>
      </trkpt>
      <trkpt lat="48.83476" lon="2.40086">
        <ele>36</ele>
        <time>2015-09-21T19:44:57.000Z</time>
      </trkpt>
      <trkpt lat="48.83463" lon="2.40098">
        <ele>35.200000762939</ele>
        <time>2015-09-21T19:45:01.000Z</time>
      </trkpt>
      <trkpt lat="48.83443" lon="2.40113">
        <ele>33.799999237061</ele>
        <time>2015-09-21T19:45:05.000Z</time>
      </trkpt>
      <trkpt lat="48.83428" lon="2.40129">
        <ele>32.799999237061</ele>
        <time>2015-09-21T19:45:08.000Z</time>
      </trkpt>
      <trkpt lat="48.83412" lon="2.40152">
        <ele>32.200000762939</ele>
        <time>2015-09-21T19:45:12.000Z</time>
      </trkpt>
      <trkpt lat="48.83392" lon="2.40173">
        <ele>31.799999237061</ele>
        <time>2015-09-21T19:45:16.000Z</time>
      </trkpt>
      <trkpt lat="48.83372" lon="2.4019">
        <ele>31</ele>
        <time>2015-09-21T19:45:20.000Z</time>
      </trkpt>
      <trkpt lat="48.83364" lon="2.40196">
        <ele>30.39999961853</ele>
        <time>2015-09-21T19:45:22.000Z</time>
      </trkpt>
      <trkpt lat="48.83359" lon="2.402">
        <ele>29.60000038147</ele>
        <time>2015-09-21T19:45:24.000Z</time>
      </trkpt>
      <trkpt lat="48.83354" lon="2.40207">
        <ele>29.799999237061</ele>
        <time>2015-09-21T19:45:28.000Z</time>
      </trkpt>
      <trkpt lat="48.83353" lon="2.40208">
        <ele>30</ele>
        <time>2015-09-21T19:45:29.000Z</time>
      </trkpt>
      <trkpt lat="48.83344" lon="2.40207">
        <ele>30.60000038147</ele>
        <time>2015-09-21T19:45:35.000Z</time>
      </trkpt>
      <trkpt lat="48.83342" lon="2.40208">
        <ele>30.799999237061</ele>
        <time>2015-09-21T19:45:36.000Z</time>
      </trkpt>
      <trkpt lat="48.8333" lon="2.4023">
        <ele>32.200000762939</ele>
        <time>2015-09-21T19:45:44.000Z</time>
      </trkpt>
      <trkpt lat="48.83315" lon="2.40253">
        <ele>35.200000762939</ele>
        <time>2015-09-21T19:45:50.000Z</time>
      </trkpt>
      <trkpt lat="48.83303" lon="2.40276">
        <ele>38.799999237061</ele>
        <time>2015-09-21T19:45:55.000Z</time>
      </trkpt>
      <trkpt lat="48.83293" lon="2.40294">
        <ele>40.599998474121</ele>
        <time>2015-09-21T19:45:58.000Z</time>
      </trkpt>
      <trkpt lat="48.83278" lon="2.40322">
        <ele>44.400001525879</ele>
        <time>2015-09-21T19:46:02.000Z</time>
      </trkpt>
      <trkpt lat="48.83263" lon="2.40345">
        <ele>47</ele>
        <time>2015-09-21T19:46:05.000Z</time>
      </trkpt>
      <trkpt lat="48.83254" lon="2.40359">
        <ele>48.599998474121</ele>
        <time>2015-09-21T19:46:07.000Z</time>
      </trkpt>
      <trkpt lat="48.83245" lon="2.40369">
        <ele>50.799999237061</ele>
        <time>2015-09-21T19:46:09.000Z</time>
      </trkpt>
      <trkpt lat="48.83239" lon="2.40379">
        <ele>52.599998474121</ele>
        <time>2015-09-21T19:46:11.000Z</time>
      </trkpt>
      <trkpt lat="48.83229" lon="2.4039">
        <ele>54.799999237061</ele>
        <time>2015-09-21T19:46:15.000Z</time>
      </trkpt>
      <trkpt lat="48.83224" lon="2.40389">
        <ele>54.799999237061</ele>
        <time>2015-09-21T19:46:19.000Z</time>
      </trkpt>
      <trkpt lat="48.83233" lon="2.40389">
        <ele>47</ele>
        <time>2015-09-21T19:47:00.000Z</time>
      </trkpt>
      <trkpt lat="48.83249" lon="2.40411">
        <ele>46.599998474121</ele>
        <time>2015-09-21T19:47:05.000Z</time>
      </trkpt>
      <trkpt lat="48.83264" lon="2.40425">
        <ele>46.400001525879</ele>
        <time>2015-09-21T19:47:09.000Z</time>
      </trkpt>
      <trkpt lat="48.83283" lon="2.40435">
        <ele>45.599998474121</ele>
        <time>2015-09-21T19:47:14.000Z</time>
      </trkpt>
      <trkpt lat="48.83294" lon="2.4044">
        <ele>44.799999237061</ele>
        <time>2015-09-21T19:47:17.000Z</time>
      </trkpt>
      <trkpt lat="48.833" lon="2.40454">
        <ele>44.599998474121</ele>
        <time>2015-09-21T19:47:21.000Z</time>
      </trkpt>
      <trkpt lat="48.83308" lon="2.40483">
        <ele>44.799999237061</ele>
        <time>2015-09-21T19:47:27.000Z</time>
      </trkpt>
      <trkpt lat="48.83316" lon="2.40512">
        <ele>46.200000762939</ele>
        <time>2015-09-21T19:47:31.000Z</time>
      </trkpt>
      <trkpt lat="48.83324" lon="2.40542">
        <ele>50.599998474121</ele>
        <time>2015-09-21T19:47:35.000Z</time>
      </trkpt>
      <trkpt lat="48.83336" lon="2.4057">
        <ele>49.599998474121</ele>
        <time>2015-09-21T19:47:39.000Z</time>
      </trkpt>
      <trkpt lat="48.83343" lon="2.40584">
        <ele>48.599998474121</ele>
        <time>2015-09-21T19:47:41.000Z</time>
      </trkpt>
      <trkpt lat="48.83352" lon="2.40604">
        <ele>48.200000762939</ele>
        <time>2015-09-21T19:47:44.000Z</time>
      </trkpt>
      <trkpt lat="48.83363" lon="2.40625">
        <ele>48.599998474121</ele>
        <time>2015-09-21T19:47:47.000Z</time>
      </trkpt>
      <trkpt lat="48.83374" lon="2.40648">
        <ele>49.200000762939</ele>
        <time>2015-09-21T19:47:50.000Z</time>
      </trkpt>
      <trkpt lat="48.83384" lon="2.40673">
        <ele>50</ele>
        <time>2015-09-21T19:47:53.000Z</time>
      </trkpt>
      <trkpt lat="48.83398" lon="2.40692">
        <ele>48.400001525879</ele>
        <time>2015-09-21T19:47:56.000Z</time>
      </trkpt>
      <trkpt lat="48.83402" lon="2.40699">
        <ele>47.799999237061</ele>
        <time>2015-09-21T19:47:57.000Z</time>
      </trkpt>
      <trkpt lat="48.83414" lon="2.4072">
        <ele>47.599998474121</ele>
        <time>2015-09-21T19:48:00.000Z</time>
      </trkpt>
      <trkpt lat="48.83428" lon="2.40747">
        <ele>47.599998474121</ele>
        <time>2015-09-21T19:48:04.000Z</time>
      </trkpt>
      <trkpt lat="48.83441" lon="2.40771">
        <ele>47.200000762939</ele>
        <time>2015-09-21T19:48:08.000Z</time>
      </trkpt>
      <trkpt lat="48.83446" lon="2.40772">
        <ele>45.599998474121</ele>
        <time>2015-09-21T19:48:09.000Z</time>
      </trkpt>
      <trkpt lat="48.83467" lon="2.40786">
        <ele>40.599998474121</ele>
        <time>2015-09-21T19:48:14.000Z</time>
      </trkpt>
      <trkpt lat="48.83476" lon="2.40792">
        <ele>39.200000762939</ele>
        <time>2015-09-21T19:48:17.000Z</time>
      </trkpt>
      <trkpt lat="48.8348" lon="2.40793">
        <ele>39</ele>
        <time>2015-09-21T19:48:19.000Z</time>
      </trkpt>
      <trkpt lat="48.83492" lon="2.40807">
        <ele>38.799999237061</ele>
        <time>2015-09-21T19:48:46.000Z</time>
      </trkpt>
      <trkpt lat="48.8351" lon="2.40823">
        <ele>38.799999237061</ele>
        <time>2015-09-21T19:48:51.000Z</time>
      </trkpt>
      <trkpt lat="48.83528" lon="2.40838">
        <ele>37.200000762939</ele>
        <time>2015-09-21T19:48:56.000Z</time>
      </trkpt>
      <trkpt lat="48.83547" lon="2.40854">
        <ele>36.799999237061</ele>
        <time>2015-09-21T19:49:01.000Z</time>
      </trkpt>
      <trkpt lat="48.83561" lon="2.40873">
        <ele>37</ele>
        <time>2015-09-21T19:49:05.000Z</time>
      </trkpt>
      <trkpt lat="48.83576" lon="2.40889">
        <ele>38.200000762939</ele>
        <time>2015-09-21T19:49:09.000Z</time>
      </trkpt>
      <trkpt lat="48.83598" lon="2.40898">
        <ele>38.400001525879</ele>
        <time>2015-09-21T19:49:13.000Z</time>
      </trkpt>
      <trkpt lat="48.83614" lon="2.40909">
        <ele>39.599998474121</ele>
        <time>2015-09-21T19:49:16.000Z</time>
      </trkpt>
      <trkpt lat="48.83635" lon="2.40923">
        <ele>39.599998474121</ele>
        <time>2015-09-21T19:49:20.000Z</time>
      </trkpt>
      <trkpt lat="48.83646" lon="2.40927">
        <ele>39</ele>
        <time>2015-09-21T19:49:22.000Z</time>
      </trkpt>
      <trkpt lat="48.83668" lon="2.40932">
        <ele>39.599998474121</ele>
        <time>2015-09-21T19:49:26.000Z</time>
      </trkpt>
      <trkpt lat="48.83687" lon="2.40934">
        <ele>39.599998474121</ele>
        <time>2015-09-21T19:49:30.000Z</time>
      </trkpt>
      <trkpt lat="48.83695" lon="2.40937">
        <ele>39.799999237061</ele>
        <time>2015-09-21T19:49:32.000Z</time>
      </trkpt>
      <trkpt lat="48.83713" lon="2.40949">
        <ele>41</ele>
        <time>2015-09-21T19:49:37.000Z</time>
      </trkpt>
      <trkpt lat="48.83717" lon="2.40953">
        <ele>41.400001525879</ele>
        <time>2015-09-21T19:49:38.000Z</time>
      </trkpt>
      <trkpt lat="48.83733" lon="2.40968">
        <ele>40.599998474121</ele>
        <time>2015-09-21T19:49:42.000Z</time>
      </trkpt>
      <trkpt lat="48.8375" lon="2.40975">
        <ele>40.400001525879</ele>
        <time>2015-09-21T19:49:45.000Z</time>
      </trkpt>
      <trkpt lat="48.83768" lon="2.4099">
        <ele>42.200000762939</ele>
        <time>2015-09-21T19:49:49.000Z</time>
      </trkpt>
      <trkpt lat="48.83774" lon="2.40992">
        <ele>43</ele>
        <time>2015-09-21T19:49:50.000Z</time>
      </trkpt>
      <trkpt lat="48.83785" lon="2.41">
        <ele>44</ele>
        <time>2015-09-21T19:49:53.000Z</time>
      </trkpt>
      <trkpt lat="48.83792" lon="2.41023">
        <ele>45.799999237061</ele>
        <time>2015-09-21T19:50:00.000Z</time>
      </trkpt>
      <trkpt lat="48.8379" lon="2.41035">
        <ele>46.200000762939</ele>
        <time>2015-09-21T19:50:03.000Z</time>
      </trkpt>
      <trkpt lat="48.8379" lon="2.41062">
        <ele>47.200000762939</ele>
        <time>2015-09-21T19:50:10.000Z</time>
      </trkpt>
      <trkpt lat="48.83795" lon="2.41092">
        <ele>47.599998474121</ele>
        <time>2015-09-21T19:50:16.000Z</time>
      </trkpt>
      <trkpt lat="48.83799" lon="2.41121">
        <ele>47</ele>
        <time>2015-09-21T19:50:21.000Z</time>
      </trkpt>
      <trkpt lat="48.83807" lon="2.4115">
        <ele>48.200000762939</ele>
        <time>2015-09-21T19:50:25.000Z</time>
      </trkpt>
      <trkpt lat="48.83814" lon="2.4118">
        <ele>49.400001525879</ele>
        <time>2015-09-21T19:50:29.000Z</time>
      </trkpt>
      <trkpt lat="48.83819" lon="2.41207">
        <ele>49.799999237061</ele>
        <time>2015-09-21T19:50:33.000Z</time>
      </trkpt>
      <trkpt lat="48.83823" lon="2.41225">
        <ele>49.799999237061</ele>
        <time>2015-09-21T19:50:36.000Z</time>
      </trkpt>
      <trkpt lat="48.83826" lon="2.41236">
        <ele>49.599998474121</ele>
        <time>2015-09-21T19:50:38.000Z</time>
      </trkpt>
      <trkpt lat="48.8384" lon="2.41252">
        <ele>48</ele>
        <time>2015-09-21T19:50:43.000Z</time>
      </trkpt>
      <trkpt lat="48.83844" lon="2.41253">
        <ele>47.799999237061</ele>
        <time>2015-09-21T19:50:44.000Z</time>
      </trkpt>
      <trkpt lat="48.83862" lon="2.41259">
        <ele>46.599998474121</ele>
        <time>2015-09-21T19:50:48.000Z</time>
      </trkpt>
      <trkpt lat="48.83884" lon="2.41266">
        <ele>45.200000762939</ele>
        <time>2015-09-21T19:50:52.000Z</time>
      </trkpt>
      <trkpt lat="48.83903" lon="2.41273">
        <ele>45</ele>
        <time>2015-09-21T19:50:55.000Z</time>
      </trkpt>
      <trkpt lat="48.83921" lon="2.41278">
        <ele>44.799999237061</ele>
        <time>2015-09-21T19:50:58.000Z</time>
      </trkpt>
      <trkpt lat="48.8394" lon="2.41284">
        <ele>44.599998474121</ele>
        <time>2015-09-21T19:51:01.000Z</time>
      </trkpt>
      <trkpt lat="48.83959" lon="2.4129">
        <ele>44.200000762939</ele>
        <time>2015-09-21T19:51:04.000Z</time>
      </trkpt>
      <trkpt lat="48.83978" lon="2.41296">
        <ele>44.200000762939</ele>
        <time>2015-09-21T19:51:07.000Z</time>
      </trkpt>
      <trkpt lat="48.83985" lon="2.41299">
        <ele>45.400001525879</ele>
        <time>2015-09-21T19:51:08.000Z</time>
      </trkpt>
      <trkpt lat="48.83994" lon="2.41311">
        <ele>46.599998474121</ele>
        <time>2015-09-21T19:51:10.000Z</time>
      </trkpt>
      <trkpt lat="48.84003" lon="2.41344">
        <ele>48.400001525879</ele>
        <time>2015-09-21T19:51:14.000Z</time>
      </trkpt>
      <trkpt lat="48.84007" lon="2.4137">
        <ele>49.400001525879</ele>
        <time>2015-09-21T19:51:18.000Z</time>
      </trkpt>
      <trkpt lat="48.83998" lon="2.41383">
        <ele>50.599998474121</ele>
        <time>2015-09-21T19:51:22.000Z</time>
      </trkpt>
      <trkpt lat="48.84008" lon="2.41389">
        <ele>54.799999237061</ele>
        <time>2015-09-21T19:51:37.000Z</time>
      </trkpt>
      <trkpt lat="48.84029" lon="2.41387">
        <ele>56.400001525879</ele>
        <time>2015-09-21T19:51:43.000Z</time>
      </trkpt>
      <trkpt lat="48.84048" lon="2.41387">
        <ele>54.799999237061</ele>
        <time>2015-09-21T19:51:48.000Z</time>
      </trkpt>
      <trkpt lat="48.84065" lon="2.41389">
        <ele>57.599998474121</ele>
        <time>2015-09-21T19:51:51.000Z</time>
      </trkpt>
      <trkpt lat="48.84089" lon="2.41392">
        <ele>59.599998474121</ele>
        <time>2015-09-21T19:51:55.000Z</time>
      </trkpt>
      <trkpt lat="48.84107" lon="2.41398">
        <ele>60.799999237061</ele>
        <time>2015-09-21T19:51:58.000Z</time>
      </trkpt>
      <trkpt lat="48.84114" lon="2.414">
        <ele>60.799999237061</ele>
        <time>2015-09-21T19:51:59.000Z</time>
      </trkpt>
      <trkpt lat="48.84137" lon="2.4141">
        <ele>57.599998474121</ele>
        <time>2015-09-21T19:52:02.000Z</time>
      </trkpt>
      <trkpt lat="48.84155" lon="2.41416">
        <ele>55.200000762939</ele>
        <time>2015-09-21T19:52:05.000Z</time>
      </trkpt>
      <trkpt lat="48.84178" lon="2.4142">
        <ele>52.200000762939</ele>
        <time>2015-09-21T19:52:09.000Z</time>
      </trkpt>
      <trkpt lat="48.842" lon="2.41424">
        <ele>49.799999237061</ele>
        <time>2015-09-21T19:52:13.000Z</time>
      </trkpt>
      <trkpt lat="48.84223" lon="2.41428">
        <ele>46.799999237061</ele>
        <time>2015-09-21T19:52:17.000Z</time>
      </trkpt>
      <trkpt lat="48.84241" lon="2.41431">
        <ele>46.200000762939</ele>
        <time>2015-09-21T19:52:20.000Z</time>
      </trkpt>
      <trkpt lat="48.8426" lon="2.41434">
        <ele>44.799999237061</ele>
        <time>2015-09-21T19:52:23.000Z</time>
      </trkpt>
      <trkpt lat="48.84283" lon="2.41439">
        <ele>42.400001525879</ele>
        <time>2015-09-21T19:52:27.000Z</time>
      </trkpt>
      <trkpt lat="48.84304" lon="2.41442">
        <ele>42</ele>
        <time>2015-09-21T19:52:31.000Z</time>
      </trkpt>
      <trkpt lat="48.84324" lon="2.41448">
        <ele>40.200000762939</ele>
        <time>2015-09-21T19:52:35.000Z</time>
      </trkpt>
      <trkpt lat="48.84344" lon="2.41456">
        <ele>40.200000762939</ele>
        <time>2015-09-21T19:52:40.000Z</time>
      </trkpt>
      <trkpt lat="48.84359" lon="2.4146">
        <ele>40.400001525879</ele>
        <time>2015-09-21T19:52:44.000Z</time>
      </trkpt>
      <trkpt lat="48.84366" lon="2.41463">
        <ele>41.200000762939</ele>
        <time>2015-09-21T19:52:46.000Z</time>
      </trkpt>
      <trkpt lat="48.84372" lon="2.41464">
        <ele>42.599998474121</ele>
        <time>2015-09-21T19:52:48.000Z</time>
      </trkpt>
      <trkpt lat="48.84379" lon="2.41467">
        <ele>41.599998474121</ele>
        <time>2015-09-21T19:52:51.000Z</time>
      </trkpt>
      <trkpt lat="48.84391" lon="2.41466">
        <ele>41.400001525879</ele>
        <time>2015-09-21T19:53:25.000Z</time>
      </trkpt>
      <trkpt lat="48.84404" lon="2.41448">
        <ele>41.400001525879</ele>
        <time>2015-09-21T19:53:31.000Z</time>
      </trkpt>
      <trkpt lat="48.84406" lon="2.41436">
        <ele>41.400001525879</ele>
        <time>2015-09-21T19:53:33.000Z</time>
      </trkpt>
      <trkpt lat="48.84407" lon="2.41407">
        <ele>42.799999237061</ele>
        <time>2015-09-21T19:53:37.000Z</time>
      </trkpt>
      <trkpt lat="48.84408" lon="2.41378">
        <ele>44</ele>
        <time>2015-09-21T19:53:41.000Z</time>
      </trkpt>
      <trkpt lat="48.84411" lon="2.41345">
        <ele>44.400001525879</ele>
        <time>2015-09-21T19:53:46.000Z</time>
      </trkpt>
      <trkpt lat="48.8441" lon="2.41311">
        <ele>46.200000762939</ele>
        <time>2015-09-21T19:53:51.000Z</time>
      </trkpt>
      <trkpt lat="48.84411" lon="2.41279">
        <ele>46.200000762939</ele>
        <time>2015-09-21T19:53:56.000Z</time>
      </trkpt>
      <trkpt lat="48.84413" lon="2.41251">
        <ele>45.599998474121</ele>
        <time>2015-09-21T19:54:00.000Z</time>
      </trkpt>
      <trkpt lat="48.84415" lon="2.41223">
        <ele>44.200000762939</ele>
        <time>2015-09-21T19:54:04.000Z</time>
      </trkpt>
      <trkpt lat="48.8442" lon="2.41193">
        <ele>42.200000762939</ele>
        <time>2015-09-21T19:54:09.000Z</time>
      </trkpt>
      <trkpt lat="48.84421" lon="2.41182">
        <ele>41.599998474121</ele>
        <time>2015-09-21T19:54:11.000Z</time>
      </trkpt>
      <trkpt lat="48.84423" lon="2.4115">
        <ele>41.400001525879</ele>
        <time>2015-09-21T19:54:16.000Z</time>
      </trkpt>
      <trkpt lat="48.84426" lon="2.41118">
        <ele>41.200000762939</ele>
        <time>2015-09-21T19:54:21.000Z</time>
      </trkpt>
      <trkpt lat="48.84428" lon="2.4109">
        <ele>42.400001525879</ele>
        <time>2015-09-21T19:54:26.000Z</time>
      </trkpt>
      <trkpt lat="48.84428" lon="2.41085">
        <ele>42.599998474121</ele>
        <time>2015-09-21T19:54:27.000Z</time>
      </trkpt>
      <trkpt lat="48.84431" lon="2.41058">
        <ele>42.799999237061</ele>
        <time>2015-09-21T19:54:33.000Z</time>
      </trkpt>
      <trkpt lat="48.84431" lon="2.41054">
        <ele>42.799999237061</ele>
        <time>2015-09-21T19:54:34.000Z</time>
      </trkpt>
      <trkpt lat="48.84435" lon="2.41036">
        <ele>44.599998474121</ele>
        <time>2015-09-21T19:54:48.000Z</time>
      </trkpt>
      <trkpt lat="48.84421" lon="2.41016">
        <ele>46.200000762939</ele>
        <time>2015-09-21T19:54:56.000Z</time>
      </trkpt>
      <trkpt lat="48.84401" lon="2.41009">
        <ele>48</ele>
        <time>2015-09-21T19:55:03.000Z</time>
      </trkpt>
      <trkpt lat="48.84382" lon="2.41003">
        <ele>50.400001525879</ele>
        <time>2015-09-21T19:55:08.000Z</time>
      </trkpt>
      <trkpt lat="48.84362" lon="2.40997">
        <ele>52.599998474121</ele>
        <time>2015-09-21T19:55:13.000Z</time>
      </trkpt>
      <trkpt lat="48.84339" lon="2.40993">
        <ele>55</ele>
        <time>2015-09-21T19:55:18.000Z</time>
      </trkpt>
      <trkpt lat="48.84318" lon="2.40992">
        <ele>61.200000762939</ele>
        <time>2015-09-21T19:55:22.000Z</time>
      </trkpt>
      <trkpt lat="48.84298" lon="2.40988">
        <ele>65.599998474121</ele>
        <time>2015-09-21T19:55:26.000Z</time>
      </trkpt>
      <trkpt lat="48.84277" lon="2.40981">
        <ele>68.199996948242</ele>
        <time>2015-09-21T19:55:30.000Z</time>
      </trkpt>
      <trkpt lat="48.84268" lon="2.40981">
        <ele>72</ele>
        <time>2015-09-21T19:55:32.000Z</time>
      </trkpt>
      <trkpt lat="48.84258" lon="2.40981">
        <ele>73.199996948242</ele>
        <time>2015-09-21T19:55:35.000Z</time>
      </trkpt>
      <trkpt lat="48.8426" lon="2.40982">
        <ele>77.199996948242</ele>
        <time>2015-09-21T19:55:41.000Z</time>
      </trkpt>
      <trkpt lat="48.84276" lon="2.40992">
        <ele>80.400001525879</ele>
        <time>2015-09-21T19:55:47.000Z</time>
      </trkpt>
      <trkpt lat="48.84285" lon="2.40996">
        <ele>83.400001525879</ele>
        <time>2015-09-21T19:55:52.000Z</time>
      </trkpt>
      <trkpt lat="48.84286" lon="2.40997">
        <ele>84.400001525879</ele>
        <time>2015-09-21T19:55:56.000Z</time>
      </trkpt>
      <trkpt lat="48.84287" lon="2.40997">
        <ele>84</ele>
        <time>2015-09-21T19:55:57.000Z</time>
      </trkpt>
      <trkpt lat="48.84294" lon="2.40969">
        <ele>80.199996948242</ele>
        <time>2015-09-21T19:56:05.000Z</time>
      </trkpt>
      <trkpt lat="48.843" lon="2.40944">
        <ele>78</ele>
        <time>2015-09-21T19:56:15.000Z</time>
      </trkpt>
      <trkpt lat="48.84304" lon="2.40936">
        <ele>77.599998474121</ele>
        <time>2015-09-21T19:56:19.000Z</time>
      </trkpt>
      <trkpt lat="48.84309" lon="2.40909">
        <ele>76.199996948242</ele>
        <time>2015-09-21T19:56:29.000Z</time>
      </trkpt>
      <trkpt lat="48.84318" lon="2.40914">
        <ele>75.400001525879</ele>
        <time>2015-09-21T19:56:37.000Z</time>
      </trkpt>
      <trkpt lat="48.84331" lon="2.40929">
        <ele>73.800003051758</ele>
        <time>2015-09-21T19:56:42.000Z</time>
      </trkpt>
      <trkpt lat="48.8434" lon="2.40932">
        <ele>73</ele>
        <time>2015-09-21T19:56:51.000Z</time>
      </trkpt>
      <trkpt lat="48.84347" lon="2.40931">
        <ele>73.199996948242</ele>
        <time>2015-09-21T19:56:52.000Z</time>
      </trkpt>
      <trkpt lat="48.84368" lon="2.40914">
        <ele>69</ele>
        <time>2015-09-21T19:56:57.000Z</time>
      </trkpt>
      <trkpt lat="48.8437" lon="2.40914">
        <ele>68.400001525879</ele>
        <time>2015-09-21T19:56:58.000Z</time>
      </trkpt>
      <trkpt lat="48.84376" lon="2.40915">
        <ele>66.599998474121</ele>
        <time>2015-09-21T19:57:02.000Z</time>
      </trkpt>
      <trkpt lat="48.84383" lon="2.40886">
        <ele>60.799999237061</ele>
        <time>2015-09-21T19:57:16.000Z</time>
      </trkpt>
      <trkpt lat="48.84385" lon="2.40879">
        <ele>57.400001525879</ele>
        <time>2015-09-21T19:57:21.000Z</time>
      </trkpt>
      <trkpt lat="48.84386" lon="2.40875">
        <ele>50.400001525879</ele>
        <time>2015-09-21T19:57:48.000Z</time>
      </trkpt>
      <trkpt lat="48.84368" lon="2.40867">
        <ele>51</ele>
        <time>2015-09-21T19:57:57.000Z</time>
      </trkpt>
      <trkpt lat="48.84349" lon="2.40859">
        <ele>53.200000762939</ele>
        <time>2015-09-21T19:58:04.000Z</time>
      </trkpt>
      <trkpt lat="48.84332" lon="2.40854">
        <ele>55.200000762939</ele>
        <time>2015-09-21T19:58:14.000Z</time>
      </trkpt>
      <trkpt lat="48.84313" lon="2.40849">
        <ele>56.200000762939</ele>
        <time>2015-09-21T19:58:23.000Z</time>
      </trkpt>
      <trkpt lat="48.84294" lon="2.40838">
        <ele>56.400001525879</ele>
        <time>2015-09-21T19:58:28.000Z</time>
      </trkpt>
      <trkpt lat="48.84275" lon="2.40834">
        <ele>55.799999237061</ele>
        <time>2015-09-21T19:58:33.000Z</time>
      </trkpt>
      <trkpt lat="48.84254" lon="2.40829">
        <ele>55.799999237061</ele>
        <time>2015-09-21T19:58:40.000Z</time>
      </trkpt>
      <trkpt lat="48.84235" lon="2.40828">
        <ele>57</ele>
        <time>2015-09-21T19:58:46.000Z</time>
      </trkpt>
      <trkpt lat="48.84215" lon="2.40824">
        <ele>60</ele>
        <time>2015-09-21T19:58:53.000Z</time>
      </trkpt>
      <trkpt lat="48.84202" lon="2.40827">
        <ele>63.400001525879</ele>
        <time>2015-09-21T19:58:58.000Z</time>
      </trkpt>
      <trkpt lat="48.84196" lon="2.40843">
        <ele>67</ele>
        <time>2015-09-21T19:59:04.000Z</time>
      </trkpt>
      <trkpt lat="48.84197" lon="2.40868">
        <ele>68.800003051758</ele>
        <time>2015-09-21T19:59:12.000Z</time>
      </trkpt>
      <trkpt lat="48.84198" lon="2.40893">
        <ele>72.599998474121</ele>
        <time>2015-09-21T19:59:31.000Z</time>
      </trkpt>
      <trkpt lat="48.84196" lon="2.40899">
        <ele>73</ele>
        <time>2015-09-21T19:59:35.000Z</time>
      </trkpt>
      <trkpt lat="48.84192" lon="2.40918">
        <ele>71.800003051758</ele>
        <time>2015-09-21T19:59:45.000Z</time>
      </trkpt>
      <trkpt lat="48.84194" lon="2.40918">
        <ele>72</ele>
        <time>2015-09-21T19:59:46.000Z</time>
      </trkpt>
      <trkpt lat="48.84194" lon="2.40931">
        <ele>73.400001525879</ele>
        <time>2015-09-21T20:00:06.000Z</time>
      </trkpt>
      <trkpt lat="48.84191" lon="2.40937">
        <ele>74</ele>
        <time>2015-09-21T20:00:10.000Z</time>
      </trkpt>
      <trkpt lat="48.84191" lon="2.40938">
        <ele>74</ele>
        <time>2015-09-21T20:00:11.000Z</time>
      </trkpt>
      <trkpt lat="48.84186" lon="2.40939">
        <ele>77.599998474121</ele>
        <time>2015-09-21T20:00:35.000Z</time>
      </trkpt>
      <trkpt lat="48.84194" lon="2.40949">
        <ele>82.199996948242</ele>
        <time>2015-09-21T20:01:05.000Z</time>
      </trkpt>
      <trkpt lat="48.84203" lon="2.40965">
        <ele>83</ele>
        <time>2015-09-21T20:01:14.000Z</time>
      </trkpt>
      <trkpt lat="48.84221" lon="2.40971">
        <ele>83.199996948242</ele>
        <time>2015-09-21T20:01:23.000Z</time>
      </trkpt>
      <trkpt lat="48.8423" lon="2.40989">
        <ele>84</ele>
        <time>2015-09-21T20:01:33.000Z</time>
      </trkpt>
      <trkpt lat="48.84229" lon="2.40992">
        <ele>83.800003051758</ele>
        <time>2015-09-21T20:01:34.000Z</time>
      </trkpt>
      <trkpt lat="48.84229" lon="2.40993">
        <ele>83.400001525879</ele>
        <time>2015-09-21T20:01:35.000Z</time>
      </trkpt>
      <trkpt lat="48.84233" lon="2.40995">
        <ele>79</ele>
        <time>2015-09-21T20:01:39.000Z</time>
      </trkpt>
      <trkpt lat="48.84232" lon="2.40995">
        <ele>78.400001525879</ele>
        <time>2015-09-21T20:01:40.000Z</time>
      </trkpt>
      <trkpt lat="48.84235" lon="2.40986">
        <ele>68</ele>
        <time>2015-09-21T20:01:52.000Z</time>
      </trkpt>
      <trkpt lat="48.84255" lon="2.4099">
        <ele>64.199996948242</ele>
        <time>2015-09-21T20:02:00.000Z</time>
      </trkpt>
      <trkpt lat="48.84275" lon="2.40991">
        <ele>63.599998474121</ele>
        <time>2015-09-21T20:02:05.000Z</time>
      </trkpt>
      <trkpt lat="48.84293" lon="2.40994">
        <ele>63.400001525879</ele>
        <time>2015-09-21T20:02:09.000Z</time>
      </trkpt>
      <trkpt lat="48.84314" lon="2.40998">
        <ele>63.799999237061</ele>
        <time>2015-09-21T20:02:13.000Z</time>
      </trkpt>
      <trkpt lat="48.84336" lon="2.41004">
        <ele>64.400001525879</ele>
        <time>2015-09-21T20:02:17.000Z</time>
      </trkpt>
      <trkpt lat="48.84356" lon="2.41008">
        <ele>66.400001525879</ele>
        <time>2015-09-21T20:02:21.000Z</time>
      </trkpt>
      <trkpt lat="48.84376" lon="2.41012">
        <ele>68.800003051758</ele>
        <time>2015-09-21T20:02:25.000Z</time>
      </trkpt>
      <trkpt lat="48.8438" lon="2.41013">
        <ele>69</ele>
        <time>2015-09-21T20:02:26.000Z</time>
      </trkpt>
      <trkpt lat="48.844" lon="2.41017">
        <ele>70.199996948242</ele>
        <time>2015-09-21T20:02:30.000Z</time>
      </trkpt>
      <trkpt lat="48.84404" lon="2.41017">
        <ele>70.599998474121</ele>
        <time>2015-09-21T20:02:31.000Z</time>
      </trkpt>
      <trkpt lat="48.84411" lon="2.41018">
        <ele>71.400001525879</ele>
        <time>2015-09-21T20:02:33.000Z</time>
      </trkpt>
      <trkpt lat="48.84425" lon="2.41021">
        <ele>71.400001525879</ele>
        <time>2015-09-21T20:02:38.000Z</time>
      </trkpt>
      <trkpt lat="48.84431" lon="2.41022">
        <ele>72.400001525879</ele>
        <time>2015-09-21T20:02:41.000Z</time>
      </trkpt>
      <trkpt lat="48.84435" lon="2.4102">
        <ele>74.599998474121</ele>
        <time>2015-09-21T20:02:44.000Z</time>
      </trkpt>
      <trkpt lat="48.84437" lon="2.41018">
        <ele>76.400001525879</ele>
        <time>2015-09-21T20:02:48.000Z</time>
      </trkpt>
      <trkpt lat="48.84454" lon="2.41027">
        <ele>75.400001525879</ele>
        <time>2015-09-21T20:02:58.000Z</time>
      </trkpt>
      <trkpt lat="48.84476" lon="2.41034">
        <ele>74.599998474121</ele>
        <time>2015-09-21T20:03:03.000Z</time>
      </trkpt>
      <trkpt lat="48.84493" lon="2.41043">
        <ele>73.199996948242</ele>
        <time>2015-09-21T20:03:07.000Z</time>
      </trkpt>
      <trkpt lat="48.84511" lon="2.4105">
        <ele>73.599998474121</ele>
        <time>2015-09-21T20:03:11.000Z</time>
      </trkpt>
      <trkpt lat="48.8453" lon="2.41054">
        <ele>73.599998474121</ele>
        <time>2015-09-21T20:03:15.000Z</time>
      </trkpt>
      <trkpt lat="48.84551" lon="2.41061">
        <ele>73.199996948242</ele>
        <time>2015-09-21T20:03:19.000Z</time>
      </trkpt>
      <trkpt lat="48.84572" lon="2.41068">
        <ele>71.800003051758</ele>
        <time>2015-09-21T20:03:23.000Z</time>
      </trkpt>
      <trkpt lat="48.84592" lon="2.41073">
        <ele>72</ele>
        <time>2015-09-21T20:03:27.000Z</time>
      </trkpt>
      <trkpt lat="48.84602" lon="2.41076">
        <ele>71.800003051758</ele>
        <time>2015-09-21T20:03:29.000Z</time>
      </trkpt>
      <trkpt lat="48.84624" lon="2.41081">
        <ele>72.800003051758</ele>
        <time>2015-09-21T20:03:33.000Z</time>
      </trkpt>
      <trkpt lat="48.84646" lon="2.41085">
        <ele>78.199996948242</ele>
        <time>2015-09-21T20:03:37.000Z</time>
      </trkpt>
      <trkpt lat="48.84664" lon="2.4109">
        <ele>80.199996948242</ele>
        <time>2015-09-21T20:03:41.000Z</time>
      </trkpt>
      <trkpt lat="48.84683" lon="2.41098">
        <ele>82.599998474121</ele>
        <time>2015-09-21T20:03:46.000Z</time>
      </trkpt>
      <trkpt lat="48.84686" lon="2.411">
        <ele>82.400001525879</ele>
        <time>2015-09-21T20:03:47.000Z</time>
      </trkpt>
      <trkpt lat="48.84698" lon="2.41111">
        <ele>79.199996948242</ele>
        <time>2015-09-21T20:03:52.000Z</time>
      </trkpt>
      <trkpt lat="48.847" lon="2.41113">
        <ele>78.199996948242</ele>
        <time>2015-09-21T20:03:53.000Z</time>
      </trkpt>
      <trkpt lat="48.84713" lon="2.41124">
        <ele>74.400001525879</ele>
        <time>2015-09-21T20:03:59.000Z</time>
      </trkpt>
      <trkpt lat="48.84715" lon="2.41134">
        <ele>69.599998474121</ele>
        <time>2015-09-21T20:04:02.000Z</time>
      </trkpt>
      <trkpt lat="48.84734" lon="2.41134">
        <ele>61.799999237061</ele>
        <time>2015-09-21T20:04:14.000Z</time>
      </trkpt>
      <trkpt lat="48.84753" lon="2.41134">
        <ele>58</ele>
        <time>2015-09-21T20:04:19.000Z</time>
      </trkpt>
      <trkpt lat="48.84757" lon="2.41134">
        <ele>57.200000762939</ele>
        <time>2015-09-21T20:04:20.000Z</time>
      </trkpt>
      <trkpt lat="48.84778" lon="2.41133">
        <ele>57</ele>
        <time>2015-09-21T20:04:24.000Z</time>
      </trkpt>
      <trkpt lat="48.8479" lon="2.41134">
        <ele>56.799999237061</ele>
        <time>2015-09-21T20:04:26.000Z</time>
      </trkpt>
      <trkpt lat="48.84813" lon="2.41136">
        <ele>60</ele>
        <time>2015-09-21T20:04:30.000Z</time>
      </trkpt>
      <trkpt lat="48.84832" lon="2.41136">
        <ele>64</ele>
        <time>2015-09-21T20:04:33.000Z</time>
      </trkpt>
      <trkpt lat="48.84851" lon="2.41137">
        <ele>69.599998474121</ele>
        <time>2015-09-21T20:04:36.000Z</time>
      </trkpt>
      <trkpt lat="48.84874" lon="2.41139">
        <ele>73</ele>
        <time>2015-09-21T20:04:40.000Z</time>
      </trkpt>
      <trkpt lat="48.84893" lon="2.41141">
        <ele>78.400001525879</ele>
        <time>2015-09-21T20:04:44.000Z</time>
      </trkpt>
      <trkpt lat="48.84911" lon="2.41139">
        <ele>81.199996948242</ele>
        <time>2015-09-21T20:04:48.000Z</time>
      </trkpt>
      <trkpt lat="48.84926" lon="2.41136">
        <ele>81.599998474121</ele>
        <time>2015-09-21T20:04:51.000Z</time>
      </trkpt>
      <trkpt lat="48.84947" lon="2.41131">
        <ele>84.599998474121</ele>
        <time>2015-09-21T20:04:55.000Z</time>
      </trkpt>
      <trkpt lat="48.84968" lon="2.41126">
        <ele>84.800003051758</ele>
        <time>2015-09-21T20:04:59.000Z</time>
      </trkpt>
      <trkpt lat="48.8499" lon="2.41122">
        <ele>83.599998474121</ele>
        <time>2015-09-21T20:05:03.000Z</time>
      </trkpt>
      <trkpt lat="48.85008" lon="2.41119">
        <ele>82.599998474121</ele>
        <time>2015-09-21T20:05:06.000Z</time>
      </trkpt>
      <trkpt lat="48.85028" lon="2.41117">
        <ele>82</ele>
        <time>2015-09-21T20:05:09.000Z</time>
      </trkpt>
      <trkpt lat="48.85046" lon="2.41114">
        <ele>81.800003051758</ele>
        <time>2015-09-21T20:05:12.000Z</time>
      </trkpt>
      <trkpt lat="48.85068" lon="2.41108">
        <ele>81.199996948242</ele>
        <time>2015-09-21T20:05:16.000Z</time>
      </trkpt>
      <trkpt lat="48.85091" lon="2.41105">
        <ele>82.599998474121</ele>
        <time>2015-09-21T20:05:20.000Z</time>
      </trkpt>
      <trkpt lat="48.85112" lon="2.41101">
        <ele>84.400001525879</ele>
        <time>2015-09-21T20:05:24.000Z</time>
      </trkpt>
      <trkpt lat="48.85133" lon="2.411">
        <ele>84.599998474121</ele>
        <time>2015-09-21T20:05:28.000Z</time>
      </trkpt>
      <trkpt lat="48.85156" lon="2.41094">
        <ele>83.800003051758</ele>
        <time>2015-09-21T20:05:32.000Z</time>
      </trkpt>
      <trkpt lat="48.85179" lon="2.41091">
        <ele>83.400001525879</ele>
        <time>2015-09-21T20:05:36.000Z</time>
      </trkpt>
      <trkpt lat="48.85197" lon="2.4109">
        <ele>83</ele>
        <time>2015-09-21T20:05:39.000Z</time>
      </trkpt>
      <trkpt lat="48.8522" lon="2.41085">
        <ele>80.400001525879</ele>
        <time>2015-09-21T20:05:43.000Z</time>
      </trkpt>
      <trkpt lat="48.85231" lon="2.41084">
        <ele>80.599998474121</ele>
        <time>2015-09-21T20:05:45.000Z</time>
      </trkpt>
      <trkpt lat="48.8525" lon="2.41082">
        <ele>81</ele>
        <time>2015-09-21T20:05:48.000Z</time>
      </trkpt>
      <trkpt lat="48.85265" lon="2.41081">
        <ele>79.400001525879</ele>
        <time>2015-09-21T20:05:51.000Z</time>
      </trkpt>
      <trkpt lat="48.85289" lon="2.41084">
        <ele>73</ele>
        <time>2015-09-21T20:05:55.000Z</time>
      </trkpt>
      <trkpt lat="48.85299" lon="2.41083">
        <ele>72</ele>
        <time>2015-09-21T20:05:57.000Z</time>
      </trkpt>
      <trkpt lat="48.85318" lon="2.41079">
        <ele>71</ele>
        <time>2015-09-21T20:06:01.000Z</time>
      </trkpt>
      <trkpt lat="48.85338" lon="2.41076">
        <ele>70.199996948242</ele>
        <time>2015-09-21T20:06:06.000Z</time>
      </trkpt>
      <trkpt lat="48.85349" lon="2.41074">
        <ele>76.199996948242</ele>
        <time>2015-09-21T20:06:09.000Z</time>
      </trkpt>
      <trkpt lat="48.85367" lon="2.41073">
        <ele>81.800003051758</ele>
        <time>2015-09-21T20:06:17.000Z</time>
      </trkpt>
      <trkpt lat="48.85369" lon="2.41073">
        <ele>82.599998474121</ele>
        <time>2015-09-21T20:06:18.000Z</time>
      </trkpt>
      <trkpt lat="48.85372" lon="2.41074">
        <ele>82.400001525879</ele>
        <time>2015-09-21T20:06:22.000Z</time>
      </trkpt>
      <trkpt lat="48.85369" lon="2.41077">
        <ele>76.400001525879</ele>
        <time>2015-09-21T20:06:27.000Z</time>
      </trkpt>
      <trkpt lat="48.8537" lon="2.41078">
        <ele>78.400001525879</ele>
        <time>2015-09-21T20:06:30.000Z</time>
      </trkpt>
      <trkpt lat="48.8536" lon="2.41057">
        <ele>77.599998474121</ele>
        <time>2015-09-21T20:06:52.000Z</time>
      </trkpt>
      <trkpt lat="48.8536" lon="2.41054">
        <ele>77.199996948242</ele>
        <time>2015-09-21T20:06:54.000Z</time>
      </trkpt>
      <trkpt lat="48.85348" lon="2.41048">
        <ele>76.599998474121</ele>
        <time>2015-09-21T20:07:07.000Z</time>
      </trkpt>
      <trkpt lat="48.85341" lon="2.41023">
        <ele>76.199996948242</ele>
        <time>2015-09-21T20:07:12.000Z</time>
      </trkpt>
      <trkpt lat="48.85336" lon="2.40994">
        <ele>74.199996948242</ele>
        <time>2015-09-21T20:07:16.000Z</time>
      </trkpt>
      <trkpt lat="48.85335" lon="2.40986">
        <ele>73.400001525879</ele>
        <time>2015-09-21T20:07:17.000Z</time>
      </trkpt>
      <trkpt lat="48.85326" lon="2.4096">
        <ele>70.800003051758</ele>
        <time>2015-09-21T20:07:21.000Z</time>
      </trkpt>
      <trkpt lat="48.85316" lon="2.40932">
        <ele>68.599998474121</ele>
        <time>2015-09-21T20:07:25.000Z</time>
      </trkpt>
      <trkpt lat="48.85306" lon="2.40903">
        <ele>67.199996948242</ele>
        <time>2015-09-21T20:07:29.000Z</time>
      </trkpt>
      <trkpt lat="48.85299" lon="2.4087">
        <ele>66.599998474121</ele>
        <time>2015-09-21T20:07:33.000Z</time>
      </trkpt>
      <trkpt lat="48.85294" lon="2.40845">
        <ele>65.599998474121</ele>
        <time>2015-09-21T20:07:36.000Z</time>
      </trkpt>
      <trkpt lat="48.85294" lon="2.40816">
        <ele>62.200000762939</ele>
        <time>2015-09-21T20:07:39.000Z</time>
      </trkpt>
      <trkpt lat="48.85293" lon="2.40787">
        <ele>60.400001525879</ele>
        <time>2015-09-21T20:07:42.000Z</time>
      </trkpt>
      <trkpt lat="48.85291" lon="2.40759">
        <ele>58</ele>
        <time>2015-09-21T20:07:45.000Z</time>
      </trkpt>
      <trkpt lat="48.85286" lon="2.40732">
        <ele>56.400001525879</ele>
        <time>2015-09-21T20:07:48.000Z</time>
      </trkpt>
      <trkpt lat="48.85283" lon="2.40704">
        <ele>53</ele>
        <time>2015-09-21T20:07:51.000Z</time>
      </trkpt>
      <trkpt lat="48.8528" lon="2.40669">
        <ele>50.799999237061</ele>
        <time>2015-09-21T20:07:55.000Z</time>
      </trkpt>
      <trkpt lat="48.85275" lon="2.40642">
        <ele>48.799999237061</ele>
        <time>2015-09-21T20:07:59.000Z</time>
      </trkpt>
      <trkpt lat="48.85271" lon="2.40614">
        <ele>47.400001525879</ele>
        <time>2015-09-21T20:08:06.000Z</time>
      </trkpt>
      <trkpt lat="48.8527" lon="2.4061">
        <ele>47</ele>
        <time>2015-09-21T20:08:07.000Z</time>
      </trkpt>
      <trkpt lat="48.85269" lon="2.40606">
        <ele>47</ele>
        <time>2015-09-21T20:08:08.000Z</time>
      </trkpt>
      <trkpt lat="48.85267" lon="2.40588">
        <ele>45.200000762939</ele>
        <time>2015-09-21T20:08:12.000Z</time>
      </trkpt>
      <trkpt lat="48.85263" lon="2.40568">
        <ele>44</ele>
        <time>2015-09-21T20:08:16.000Z</time>
      </trkpt>
      <trkpt lat="48.85258" lon="2.4054">
        <ele>40.599998474121</ele>
        <time>2015-09-21T20:08:20.000Z</time>
      </trkpt>
      <trkpt lat="48.85254" lon="2.40508">
        <ele>38</ele>
        <time>2015-09-21T20:08:24.000Z</time>
      </trkpt>
      <trkpt lat="48.85249" lon="2.40478">
        <ele>37.400001525879</ele>
        <time>2015-09-21T20:08:28.000Z</time>
      </trkpt>
      <trkpt lat="48.85247" lon="2.40471">
        <ele>37</ele>
        <time>2015-09-21T20:08:29.000Z</time>
      </trkpt>
      <trkpt lat="48.8524" lon="2.40443">
        <ele>37.400001525879</ele>
        <time>2015-09-21T20:08:33.000Z</time>
      </trkpt>
      <trkpt lat="48.85234" lon="2.40414">
        <ele>38</ele>
        <time>2015-09-21T20:08:37.000Z</time>
      </trkpt>
      <trkpt lat="48.85229" lon="2.40385">
        <ele>38.200000762939</ele>
        <time>2015-09-21T20:08:41.000Z</time>
      </trkpt>
      <trkpt lat="48.85228" lon="2.40378">
        <ele>38</ele>
        <time>2015-09-21T20:08:42.000Z</time>
      </trkpt>
      <trkpt lat="48.85222" lon="2.40348">
        <ele>35.799999237061</ele>
        <time>2015-09-21T20:08:46.000Z</time>
      </trkpt>
      <trkpt lat="48.85215" lon="2.40316">
        <ele>34.799999237061</ele>
        <time>2015-09-21T20:08:50.000Z</time>
      </trkpt>
      <trkpt lat="48.85207" lon="2.40285">
        <ele>34.400001525879</ele>
        <time>2015-09-21T20:08:54.000Z</time>
      </trkpt>
      <trkpt lat="48.85201" lon="2.40252">
        <ele>34.799999237061</ele>
        <time>2015-09-21T20:08:58.000Z</time>
      </trkpt>
      <trkpt lat="48.85194" lon="2.40221">
        <ele>34.799999237061</ele>
        <time>2015-09-21T20:09:02.000Z</time>
      </trkpt>
      <trkpt lat="48.8519" lon="2.40214">
        <ele>36</ele>
        <time>2015-09-21T20:09:03.000Z</time>
      </trkpt>
      <trkpt lat="48.85183" lon="2.40182">
        <ele>36.400001525879</ele>
        <time>2015-09-21T20:09:07.000Z</time>
      </trkpt>
      <trkpt lat="48.85181" lon="2.40147">
        <ele>38.599998474121</ele>
        <time>2015-09-21T20:09:11.000Z</time>
      </trkpt>
      <trkpt lat="48.85176" lon="2.40116">
        <ele>38.799999237061</ele>
        <time>2015-09-21T20:09:15.000Z</time>
      </trkpt>
      <trkpt lat="48.85168" lon="2.40086">
        <ele>42</ele>
        <time>2015-09-21T20:09:19.000Z</time>
      </trkpt>
      <trkpt lat="48.85165" lon="2.40051">
        <ele>45.799999237061</ele>
        <time>2015-09-21T20:09:23.000Z</time>
      </trkpt>
      <trkpt lat="48.85161" lon="2.4002">
        <ele>48</ele>
        <time>2015-09-21T20:09:27.000Z</time>
      </trkpt>
      <trkpt lat="48.85155" lon="2.4">
        <ele>50</ele>
        <time>2015-09-21T20:09:30.000Z</time>
      </trkpt>
      <trkpt lat="48.85152" lon="2.39977">
        <ele>50.400001525879</ele>
        <time>2015-09-21T20:09:33.000Z</time>
      </trkpt>
      <trkpt lat="48.85147" lon="2.39946">
        <ele>51.599998474121</ele>
        <time>2015-09-21T20:09:37.000Z</time>
      </trkpt>
      <trkpt lat="48.85144" lon="2.39932">
        <ele>52</ele>
        <time>2015-09-21T20:09:39.000Z</time>
      </trkpt>
      <trkpt lat="48.85141" lon="2.399">
        <ele>52.200000762939</ele>
        <time>2015-09-21T20:09:43.000Z</time>
      </trkpt>
      <trkpt lat="48.85141" lon="2.39867">
        <ele>58.400001525879</ele>
        <time>2015-09-21T20:09:48.000Z</time>
      </trkpt>
      <trkpt lat="48.8514" lon="2.39858">
        <ele>59.200000762939</ele>
        <time>2015-09-21T20:09:50.000Z</time>
      </trkpt>
      <trkpt lat="48.85141" lon="2.39846">
        <ele>58.799999237061</ele>
        <time>2015-09-21T20:09:53.000Z</time>
      </trkpt>
      <trkpt lat="48.85139" lon="2.39841">
        <ele>57.599998474121</ele>
        <time>2015-09-21T20:09:55.000Z</time>
      </trkpt>
      <trkpt lat="48.85132" lon="2.39812">
        <ele>55</ele>
        <time>2015-09-21T20:10:02.000Z</time>
      </trkpt>
      <trkpt lat="48.85125" lon="2.39785">
        <ele>55.599998474121</ele>
        <time>2015-09-21T20:10:06.000Z</time>
      </trkpt>
      <trkpt lat="48.85119" lon="2.39755">
        <ele>55</ele>
        <time>2015-09-21T20:10:10.000Z</time>
      </trkpt>
      <trkpt lat="48.85113" lon="2.39724">
        <ele>54.799999237061</ele>
        <time>2015-09-21T20:10:14.000Z</time>
      </trkpt>
      <trkpt lat="48.85112" lon="2.39716">
        <ele>54.599998474121</ele>
        <time>2015-09-21T20:10:15.000Z</time>
      </trkpt>
      <trkpt lat="48.85104" lon="2.39684">
        <ele>53.599998474121</ele>
        <time>2015-09-21T20:10:19.000Z</time>
      </trkpt>
      <trkpt lat="48.85103" lon="2.39666">
        <ele>56</ele>
        <time>2015-09-21T20:10:21.000Z</time>
      </trkpt>
      <trkpt lat="48.85094" lon="2.39637">
        <ele>57.400001525879</ele>
        <time>2015-09-21T20:10:25.000Z</time>
      </trkpt>
      <trkpt lat="48.85087" lon="2.39624">
        <ele>58.799999237061</ele>
        <time>2015-09-21T20:10:27.000Z</time>
      </trkpt>
      <trkpt lat="48.85079" lon="2.39591">
        <ele>59.799999237061</ele>
        <time>2015-09-21T20:10:31.000Z</time>
      </trkpt>
      <trkpt lat="48.85075" lon="2.39564">
        <ele>59.799999237061</ele>
        <time>2015-09-21T20:10:34.000Z</time>
      </trkpt>
      <trkpt lat="48.85071" lon="2.39547">
        <ele>59.599998474121</ele>
        <time>2015-09-21T20:10:36.000Z</time>
      </trkpt>
      <trkpt lat="48.85065" lon="2.39513">
        <ele>59.799999237061</ele>
        <time>2015-09-21T20:10:40.000Z</time>
      </trkpt>
      <trkpt lat="48.85064" lon="2.39478">
        <ele>57.799999237061</ele>
        <time>2015-09-21T20:10:44.000Z</time>
      </trkpt>
      <trkpt lat="48.85065" lon="2.3947">
        <ele>57.200000762939</ele>
        <time>2015-09-21T20:10:45.000Z</time>
      </trkpt>
      <trkpt lat="48.85063" lon="2.39448">
        <ele>56.200000762939</ele>
        <time>2015-09-21T20:10:49.000Z</time>
      </trkpt>
      <trkpt lat="48.85062" lon="2.39443">
        <ele>56.200000762939</ele>
        <time>2015-09-21T20:10:50.000Z</time>
      </trkpt>
      <trkpt lat="48.85053" lon="2.39417">
        <ele>56</ele>
        <time>2015-09-21T20:10:55.000Z</time>
      </trkpt>
      <trkpt lat="48.8505" lon="2.39405">
        <ele>55.400001525879</ele>
        <time>2015-09-21T20:10:57.000Z</time>
      </trkpt>
      <trkpt lat="48.85044" lon="2.39373">
        <ele>55</ele>
        <time>2015-09-21T20:11:02.000Z</time>
      </trkpt>
      <trkpt lat="48.85039" lon="2.39346">
        <ele>54.200000762939</ele>
        <time>2015-09-21T20:11:06.000Z</time>
      </trkpt>
      <trkpt lat="48.85035" lon="2.39319">
        <ele>53.400001525879</ele>
        <time>2015-09-21T20:11:10.000Z</time>
      </trkpt>
      <trkpt lat="48.85035" lon="2.39287">
        <ele>53</ele>
        <time>2015-09-21T20:11:15.000Z</time>
      </trkpt>
      <trkpt lat="48.85035" lon="2.39279">
        <ele>52.599998474121</ele>
        <time>2015-09-21T20:11:17.000Z</time>
      </trkpt>
      <trkpt lat="48.85043" lon="2.3925">
        <ele>54.200000762939</ele>
        <time>2015-09-21T20:11:31.000Z</time>
      </trkpt>
      <trkpt lat="48.85043" lon="2.39242">
        <ele>54</ele>
        <time>2015-09-21T20:11:33.000Z</time>
      </trkpt>
      <trkpt lat="48.85039" lon="2.3921">
        <ele>51.799999237061</ele>
        <time>2015-09-21T20:11:41.000Z</time>
      </trkpt>
      <trkpt lat="48.85041" lon="2.3919">
        <ele>50.400001525879</ele>
        <time>2015-09-21T20:11:44.000Z</time>
      </trkpt>
      <trkpt lat="48.85046" lon="2.39161">
        <ele>48.200000762939</ele>
        <time>2015-09-21T20:11:48.000Z</time>
      </trkpt>
      <trkpt lat="48.8505" lon="2.39131">
        <ele>45.400001525879</ele>
        <time>2015-09-21T20:11:52.000Z</time>
      </trkpt>
      <trkpt lat="48.85052" lon="2.39098">
        <ele>42.200000762939</ele>
        <time>2015-09-21T20:11:56.000Z</time>
      </trkpt>
      <trkpt lat="48.85054" lon="2.39064">
        <ele>39.599998474121</ele>
        <time>2015-09-21T20:12:00.000Z</time>
      </trkpt>
      <trkpt lat="48.85057" lon="2.39033">
        <ele>36.599998474121</ele>
        <time>2015-09-21T20:12:04.000Z</time>
      </trkpt>
      <trkpt lat="48.85056" lon="2.39016">
        <ele>35</ele>
        <time>2015-09-21T20:12:06.000Z</time>
      </trkpt>
      <trkpt lat="48.85055" lon="2.3898">
        <ele>33</ele>
        <time>2015-09-21T20:12:10.000Z</time>
      </trkpt>
      <trkpt lat="48.85057" lon="2.38944">
        <ele>30.39999961853</ele>
        <time>2015-09-21T20:12:14.000Z</time>
      </trkpt>
      <trkpt lat="48.85056" lon="2.38934">
        <ele>30</ele>
        <time>2015-09-21T20:12:15.000Z</time>
      </trkpt>
      <trkpt lat="48.85055" lon="2.38906">
        <ele>28.60000038147</ele>
        <time>2015-09-21T20:12:18.000Z</time>
      </trkpt>
      <trkpt lat="48.85056" lon="2.3887">
        <ele>26.39999961853</ele>
        <time>2015-09-21T20:12:22.000Z</time>
      </trkpt>
      <trkpt lat="48.85053" lon="2.38838">
        <ele>24.60000038147</ele>
        <time>2015-09-21T20:12:26.000Z</time>
      </trkpt>
      <trkpt lat="48.85052" lon="2.38806">
        <ele>23.60000038147</ele>
        <time>2015-09-21T20:12:30.000Z</time>
      </trkpt>
      <trkpt lat="48.85051" lon="2.38774">
        <ele>22.200000762939</ele>
        <time>2015-09-21T20:12:34.000Z</time>
      </trkpt>
      <trkpt lat="48.85052" lon="2.38741">
        <ele>20.60000038147</ele>
        <time>2015-09-21T20:12:38.000Z</time>
      </trkpt>
      <trkpt lat="48.85051" lon="2.38714">
        <ele>18.200000762939</ele>
        <time>2015-09-21T20:12:42.000Z</time>
      </trkpt>
      <trkpt lat="48.85052" lon="2.38686">
        <ele>15.60000038147</ele>
        <time>2015-09-21T20:12:46.000Z</time>
      </trkpt>
      <trkpt lat="48.85052" lon="2.38661">
        <ele>13.199999809265</ele>
        <time>2015-09-21T20:12:50.000Z</time>
      </trkpt>
      <trkpt lat="48.85052" lon="2.38629">
        <ele>10.199999809265</ele>
        <time>2015-09-21T20:12:55.000Z</time>
      </trkpt>
      <trkpt lat="48.85052" lon="2.38604">
        <ele>8.1999998092651</ele>
        <time>2015-09-21T20:12:59.000Z</time>
      </trkpt>
      <trkpt lat="48.8505" lon="2.38575">
        <ele>5.5999999046326</ele>
        <time>2015-09-21T20:13:04.000Z</time>
      </trkpt>
      <trkpt lat="48.85053" lon="2.38548">
        <ele>2.2000000476837</ele>
        <time>2015-09-21T20:13:09.000Z</time>
      </trkpt>
      <trkpt lat="48.85055" lon="2.38532">
        <ele>0.40000000596046</ele>
        <time>2015-09-21T20:13:12.000Z</time>
      </trkpt>
      <trkpt lat="48.85055" lon="2.38511">
        <ele>-2</ele>
        <time>2015-09-21T20:13:16.000Z</time>
      </trkpt>
      <trkpt lat="48.85051" lon="2.38483">
        <ele>-4.4000000953674</ele>
        <time>2015-09-21T20:13:21.000Z</time>
      </trkpt>
      <trkpt lat="48.85051" lon="2.38479">
        <ele>-4.5999999046326</ele>
        <time>2015-09-21T20:13:22.000Z</time>
      </trkpt>
      <trkpt lat="48.85066" lon="2.38463">
        <ele>2.2000000476837</ele>
        <time>2015-09-21T20:13:33.000Z</time>
      </trkpt>
      <trkpt lat="48.85071" lon="2.3846">
        <ele>9</ele>
        <time>2015-09-21T20:13:36.000Z</time>
      </trkpt>
      <trkpt lat="48.85072" lon="2.38454">
        <ele>13</ele>
        <time>2015-09-21T20:13:40.000Z</time>
      </trkpt>
      <trkpt lat="48.8507" lon="2.38424">
        <ele>16.60000038147</ele>
        <time>2015-09-21T20:13:47.000Z</time>
      </trkpt>
      <trkpt lat="48.85067" lon="2.38396">
        <ele>16.799999237061</ele>
        <time>2015-09-21T20:13:52.000Z</time>
      </trkpt>
      <trkpt lat="48.85065" lon="2.38368">
        <ele>16.60000038147</ele>
        <time>2015-09-21T20:13:58.000Z</time>
      </trkpt>
      <trkpt lat="48.85062" lon="2.38336">
        <ele>15.60000038147</ele>
        <time>2015-09-21T20:14:04.000Z</time>
      </trkpt>
      <trkpt lat="48.85057" lon="2.38304">
        <ele>15</ele>
        <time>2015-09-21T20:14:09.000Z</time>
      </trkpt>
      <trkpt lat="48.85054" lon="2.38272">
        <ele>16.200000762939</ele>
        <time>2015-09-21T20:14:14.000Z</time>
      </trkpt>
      <trkpt lat="48.85053" lon="2.38239">
        <ele>14</ele>
        <time>2015-09-21T20:14:19.000Z</time>
      </trkpt>
      <trkpt lat="48.85052" lon="2.38207">
        <ele>15.800000190735</ele>
        <time>2015-09-21T20:14:24.000Z</time>
      </trkpt>
      <trkpt lat="48.85051" lon="2.38178">
        <ele>13.199999809265</ele>
        <time>2015-09-21T20:14:29.000Z</time>
      </trkpt>
      <trkpt lat="48.85053" lon="2.38149">
        <ele>11.39999961853</ele>
        <time>2015-09-21T20:14:35.000Z</time>
      </trkpt>
      <trkpt lat="48.85055" lon="2.38118">
        <ele>11.800000190735</ele>
        <time>2015-09-21T20:14:41.000Z</time>
      </trkpt>
      <trkpt lat="48.85054" lon="2.38087">
        <ele>10.60000038147</ele>
        <time>2015-09-21T20:14:47.000Z</time>
      </trkpt>
      <trkpt lat="48.85054" lon="2.38056">
        <ele>10.39999961853</ele>
        <time>2015-09-21T20:14:53.000Z</time>
      </trkpt>
      <trkpt lat="48.85054" lon="2.38027">
        <ele>11.199999809265</ele>
        <time>2015-09-21T20:14:58.000Z</time>
      </trkpt>
      <trkpt lat="48.85058" lon="2.37996">
        <ele>10.60000038147</ele>
        <time>2015-09-21T20:15:04.000Z</time>
      </trkpt>
      <trkpt lat="48.85061" lon="2.37969">
        <ele>9.8000001907349</ele>
        <time>2015-09-21T20:15:12.000Z</time>
      </trkpt>
      <trkpt lat="48.85065" lon="2.37941">
        <ele>9.8000001907349</ele>
        <time>2015-09-21T20:15:19.000Z</time>
      </trkpt>
      <trkpt lat="48.85066" lon="2.37928">
        <ele>11.800000190735</ele>
        <time>2015-09-21T20:15:25.000Z</time>
      </trkpt>
      <trkpt lat="48.85071" lon="2.379">
        <ele>11.800000190735</ele>
        <time>2015-09-21T20:15:33.000Z</time>
      </trkpt>
      <trkpt lat="48.85076" lon="2.37873">
        <ele>11.60000038147</ele>
        <time>2015-09-21T20:15:39.000Z</time>
      </trkpt>
      <trkpt lat="48.85082" lon="2.37843">
        <ele>9</ele>
        <time>2015-09-21T20:15:46.000Z</time>
      </trkpt>
      <trkpt lat="48.8509" lon="2.37813">
        <ele>5.5999999046326</ele>
        <time>2015-09-21T20:15:52.000Z</time>
      </trkpt>
      <trkpt lat="48.85096" lon="2.37782">
        <ele>3.5999999046326</ele>
        <time>2015-09-21T20:15:58.000Z</time>
      </trkpt>
      <trkpt lat="48.85102" lon="2.37755">
        <ele>5.4000000953674</ele>
        <time>2015-09-21T20:16:03.000Z</time>
      </trkpt>
      <trkpt lat="48.85109" lon="2.37725">
        <ele>6.8000001907349</ele>
        <time>2015-09-21T20:16:09.000Z</time>
      </trkpt>
      <trkpt lat="48.85116" lon="2.37699">
        <ele>6.5999999046326</ele>
        <time>2015-09-21T20:16:14.000Z</time>
      </trkpt>
      <trkpt lat="48.85123" lon="2.3767">
        <ele>9</ele>
        <time>2015-09-21T20:16:19.000Z</time>
      </trkpt>
      <trkpt lat="48.85131" lon="2.37641">
        <ele>9.1999998092651</ele>
        <time>2015-09-21T20:16:24.000Z</time>
      </trkpt>
      <trkpt lat="48.85138" lon="2.37612">
        <ele>9</ele>
        <time>2015-09-21T20:16:30.000Z</time>
      </trkpt>
      <trkpt lat="48.85146" lon="2.37583">
        <ele>8.8000001907349</ele>
        <time>2015-09-21T20:16:35.000Z</time>
      </trkpt>
      <trkpt lat="48.85153" lon="2.37554">
        <ele>8.3999996185303</ele>
        <time>2015-09-21T20:16:41.000Z</time>
      </trkpt>
      <trkpt lat="48.8516" lon="2.37524">
        <ele>8.8000001907349</ele>
        <time>2015-09-21T20:16:47.000Z</time>
      </trkpt>
      <trkpt lat="48.85168" lon="2.37495">
        <ele>8.3999996185303</ele>
        <time>2015-09-21T20:16:52.000Z</time>
      </trkpt>
      <trkpt lat="48.85176" lon="2.37464">
        <ele>11.60000038147</ele>
        <time>2015-09-21T20:16:57.000Z</time>
      </trkpt>
      <trkpt lat="48.85183" lon="2.37432">
        <ele>15.800000190735</ele>
        <time>2015-09-21T20:17:02.000Z</time>
      </trkpt>
      <trkpt lat="48.85189" lon="2.37405">
        <ele>19.799999237061</ele>
        <time>2015-09-21T20:17:07.000Z</time>
      </trkpt>
      <trkpt lat="48.85197" lon="2.3738">
        <ele>22</ele>
        <time>2015-09-21T20:17:13.000Z</time>
      </trkpt>
      <trkpt lat="48.85203" lon="2.37352">
        <ele>24</ele>
        <time>2015-09-21T20:17:19.000Z</time>
      </trkpt>
      <trkpt lat="48.8521" lon="2.37324">
        <ele>25.39999961853</ele>
        <time>2015-09-21T20:17:25.000Z</time>
      </trkpt>
      <trkpt lat="48.85218" lon="2.37294">
        <ele>28.200000762939</ele>
        <time>2015-09-21T20:17:31.000Z</time>
      </trkpt>
      <trkpt lat="48.85226" lon="2.37264">
        <ele>28.799999237061</ele>
        <time>2015-09-21T20:17:37.000Z</time>
      </trkpt>
      <trkpt lat="48.85233" lon="2.37238">
        <ele>30.39999961853</ele>
        <time>2015-09-21T20:17:42.000Z</time>
      </trkpt>
      <trkpt lat="48.85239" lon="2.37212">
        <ele>31</ele>
        <time>2015-09-21T20:17:47.000Z</time>
      </trkpt>
      <trkpt lat="48.85249" lon="2.37184">
        <ele>32</ele>
        <time>2015-09-21T20:17:53.000Z</time>
      </trkpt>
      <trkpt lat="48.8526" lon="2.37158">
        <ele>31.39999961853</ele>
        <time>2015-09-21T20:17:58.000Z</time>
      </trkpt>
      <trkpt lat="48.85273" lon="2.37132">
        <ele>31.200000762939</ele>
        <time>2015-09-21T20:18:03.000Z</time>
      </trkpt>
      <trkpt lat="48.85284" lon="2.37109">
        <ele>29.39999961853</ele>
        <time>2015-09-21T20:18:08.000Z</time>
      </trkpt>
      <trkpt lat="48.85295" lon="2.37088">
        <ele>30.60000038147</ele>
        <time>2015-09-21T20:18:18.000Z</time>
      </trkpt>
      <trkpt lat="48.85301" lon="2.37069">
        <ele>32.799999237061</ele>
        <time>2015-09-21T20:18:38.000Z</time>
      </trkpt>
      <trkpt lat="48.85315" lon="2.37047">
        <ele>33</ele>
        <time>2015-09-21T20:18:46.000Z</time>
      </trkpt>
      <trkpt lat="48.85329" lon="2.37028">
        <ele>32</ele>
        <time>2015-09-21T20:18:54.000Z</time>
      </trkpt>
      <trkpt lat="48.85338" lon="2.37004">
        <ele>32.400001525879</ele>
        <time>2015-09-21T20:19:04.000Z</time>
      </trkpt>
      <trkpt lat="48.8534" lon="2.36987">
        <ele>32</ele>
        <time>2015-09-21T20:19:10.000Z</time>
      </trkpt>
      <trkpt lat="48.85357" lon="2.36976">
        <ele>35</ele>
        <time>2015-09-21T20:19:20.000Z</time>
      </trkpt>
      <trkpt lat="48.85364" lon="2.36971">
        <ele>37.599998474121</ele>
        <time>2015-09-21T20:19:26.000Z</time>
      </trkpt>
      <trkpt lat="48.85371" lon="2.36947">
        <ele>37.599998474121</ele>
        <time>2015-09-21T20:19:55.000Z</time>
      </trkpt>
      <trkpt lat="48.85377" lon="2.3692">
        <ele>36</ele>
        <time>2015-09-21T20:20:11.000Z</time>
      </trkpt>
      <trkpt lat="48.85374" lon="2.36899">
        <ele>38.200000762939</ele>
        <time>2015-09-21T20:20:32.000Z</time>
      </trkpt>
      <trkpt lat="48.85372" lon="2.36889">
        <ele>38.200000762939</ele>
        <time>2015-09-21T20:20:38.000Z</time>
      </trkpt>
      <trkpt lat="48.85373" lon="2.36887">
        <ele>38.200000762939</ele>
        <time>2015-09-21T20:20:40.000Z</time>
      </trkpt>
      <trkpt lat="48.8538" lon="2.36863">
        <ele>40.400001525879</ele>
        <time>2015-09-21T20:20:58.000Z</time>
      </trkpt>
      <trkpt lat="48.85387" lon="2.36833">
        <ele>38.400001525879</ele>
        <time>2015-09-21T20:21:04.000Z</time>
      </trkpt>
      <trkpt lat="48.85392" lon="2.36804">
        <ele>35.400001525879</ele>
        <time>2015-09-21T20:21:09.000Z</time>
      </trkpt>
      <trkpt lat="48.85398" lon="2.36777">
        <ele>32.400001525879</ele>
        <time>2015-09-21T20:21:14.000Z</time>
      </trkpt>
      <trkpt lat="48.85396" lon="2.36748">
        <ele>29.39999961853</ele>
        <time>2015-09-21T20:21:20.000Z</time>
      </trkpt>
      <trkpt lat="48.85383" lon="2.36728">
        <ele>27</ele>
        <time>2015-09-21T20:21:27.000Z</time>
      </trkpt>
      <trkpt lat="48.85362" lon="2.36725">
        <ele>25.60000038147</ele>
        <time>2015-09-21T20:21:32.000Z</time>
      </trkpt>
      <trkpt lat="48.85356" lon="2.36696">
        <ele>23.60000038147</ele>
        <time>2015-09-21T20:21:40.000Z</time>
      </trkpt>
      <trkpt lat="48.85358" lon="2.36667">
        <ele>23.60000038147</ele>
        <time>2015-09-21T20:21:45.000Z</time>
      </trkpt>
      <trkpt lat="48.85364" lon="2.3664">
        <ele>22</ele>
        <time>2015-09-21T20:21:49.000Z</time>
      </trkpt>
      <trkpt lat="48.85371" lon="2.36609">
        <ele>20.200000762939</ele>
        <time>2015-09-21T20:21:54.000Z</time>
      </trkpt>
      <trkpt lat="48.85376" lon="2.36578">
        <ele>16.60000038147</ele>
        <time>2015-09-21T20:21:59.000Z</time>
      </trkpt>
      <trkpt lat="48.85386" lon="2.36548">
        <ele>12.39999961853</ele>
        <time>2015-09-21T20:22:04.000Z</time>
      </trkpt>
      <trkpt lat="48.85394" lon="2.3652">
        <ele>8.3999996185303</ele>
        <time>2015-09-21T20:22:08.000Z</time>
      </trkpt>
      <trkpt lat="48.85402" lon="2.36489">
        <ele>5.1999998092651</ele>
        <time>2015-09-21T20:22:12.000Z</time>
      </trkpt>
      <trkpt lat="48.85412" lon="2.36456">
        <ele>2.2000000476837</ele>
        <time>2015-09-21T20:22:16.000Z</time>
      </trkpt>
      <trkpt lat="48.85417" lon="2.36441">
        <ele>1</ele>
        <time>2015-09-21T20:22:18.000Z</time>
      </trkpt>
      <trkpt lat="48.85428" lon="2.3641">
        <ele>-1.6000000238419</ele>
        <time>2015-09-21T20:22:22.000Z</time>
      </trkpt>
      <trkpt lat="48.85438" lon="2.36379">
        <ele>-3.2000000476837</ele>
        <time>2015-09-21T20:22:26.000Z</time>
      </trkpt>
      <trkpt lat="48.8545" lon="2.36348">
        <ele>-4.8000001907349</ele>
        <time>2015-09-21T20:22:30.000Z</time>
      </trkpt>
      <trkpt lat="48.8546" lon="2.36316">
        <ele>-3.2000000476837</ele>
        <time>2015-09-21T20:22:34.000Z</time>
      </trkpt>
      <trkpt lat="48.85471" lon="2.36287">
        <ele>-2.7999999523163</ele>
        <time>2015-09-21T20:22:38.000Z</time>
      </trkpt>
      <trkpt lat="48.85481" lon="2.36259">
        <ele>-1.7999999523163</ele>
        <time>2015-09-21T20:22:42.000Z</time>
      </trkpt>
      <trkpt lat="48.85489" lon="2.36231">
        <ele>1.7999999523163</ele>
        <time>2015-09-21T20:22:46.000Z</time>
      </trkpt>
      <trkpt lat="48.85491" lon="2.36225">
        <ele>2.4000000953674</ele>
        <time>2015-09-21T20:22:47.000Z</time>
      </trkpt>
      <trkpt lat="48.855" lon="2.362">
        <ele>6.4000000953674</ele>
        <time>2015-09-21T20:22:51.000Z</time>
      </trkpt>
      <trkpt lat="48.85508" lon="2.36174">
        <ele>8.6000003814697</ele>
        <time>2015-09-21T20:22:55.000Z</time>
      </trkpt>
      <trkpt lat="48.85516" lon="2.36146">
        <ele>10</ele>
        <time>2015-09-21T20:22:59.000Z</time>
      </trkpt>
      <trkpt lat="48.85523" lon="2.36116">
        <ele>9.8000001907349</ele>
        <time>2015-09-21T20:23:03.000Z</time>
      </trkpt>
      <trkpt lat="48.8553" lon="2.36085">
        <ele>10.800000190735</ele>
        <time>2015-09-21T20:23:07.000Z</time>
      </trkpt>
      <trkpt lat="48.85537" lon="2.36052">
        <ele>16</ele>
        <time>2015-09-21T20:23:11.000Z</time>
      </trkpt>
      <trkpt lat="48.85542" lon="2.36035">
        <ele>16.799999237061</ele>
        <time>2015-09-21T20:23:13.000Z</time>
      </trkpt>
      <trkpt lat="48.85546" lon="2.36017">
        <ele>16.200000762939</ele>
        <time>2015-09-21T20:23:15.000Z</time>
      </trkpt>
      <trkpt lat="48.85554" lon="2.3599">
        <ele>16.39999961853</ele>
        <time>2015-09-21T20:23:18.000Z</time>
      </trkpt>
      <trkpt lat="48.85556" lon="2.3598">
        <ele>16.39999961853</ele>
        <time>2015-09-21T20:23:19.000Z</time>
      </trkpt>
      <trkpt lat="48.85563" lon="2.35952">
        <ele>16.200000762939</ele>
        <time>2015-09-21T20:23:22.000Z</time>
      </trkpt>
      <trkpt lat="48.8557" lon="2.35923">
        <ele>16.39999961853</ele>
        <time>2015-09-21T20:23:25.000Z</time>
      </trkpt>
      <trkpt lat="48.85576" lon="2.35895">
        <ele>17.200000762939</ele>
        <time>2015-09-21T20:23:28.000Z</time>
      </trkpt>
      <trkpt lat="48.85582" lon="2.35868">
        <ele>19.60000038147</ele>
        <time>2015-09-21T20:23:31.000Z</time>
      </trkpt>
      <trkpt lat="48.85589" lon="2.35834">
        <ele>20.200000762939</ele>
        <time>2015-09-21T20:23:35.000Z</time>
      </trkpt>
      <trkpt lat="48.85597" lon="2.35803">
        <ele>20.39999961853</ele>
        <time>2015-09-21T20:23:39.000Z</time>
      </trkpt>
      <trkpt lat="48.85601" lon="2.35787">
        <ele>20</ele>
        <time>2015-09-21T20:23:41.000Z</time>
      </trkpt>
      <trkpt lat="48.85608" lon="2.35757">
        <ele>18.799999237061</ele>
        <time>2015-09-21T20:23:45.000Z</time>
      </trkpt>
      <trkpt lat="48.85616" lon="2.35726">
        <ele>17.799999237061</ele>
        <time>2015-09-21T20:23:49.000Z</time>
      </trkpt>
      <trkpt lat="48.8562" lon="2.35711">
        <ele>17.39999961853</ele>
        <time>2015-09-21T20:23:51.000Z</time>
      </trkpt>
      <trkpt lat="48.85629" lon="2.35681">
        <ele>16</ele>
        <time>2015-09-21T20:23:55.000Z</time>
      </trkpt>
      <trkpt lat="48.85637" lon="2.35649">
        <ele>15</ele>
        <time>2015-09-21T20:23:59.000Z</time>
      </trkpt>
      <trkpt lat="48.85639" lon="2.35642">
        <ele>14.800000190735</ele>
        <time>2015-09-21T20:24:00.000Z</time>
      </trkpt>
      <trkpt lat="48.85647" lon="2.35611">
        <ele>14.800000190735</ele>
        <time>2015-09-21T20:24:04.000Z</time>
      </trkpt>
      <trkpt lat="48.85649" lon="2.35603">
        <ele>15.199999809265</ele>
        <time>2015-09-21T20:24:05.000Z</time>
      </trkpt>
      <trkpt lat="48.85656" lon="2.35571">
        <ele>15.39999961853</ele>
        <time>2015-09-21T20:24:09.000Z</time>
      </trkpt>
      <trkpt lat="48.85659" lon="2.35555">
        <ele>15.800000190735</ele>
        <time>2015-09-21T20:24:11.000Z</time>
      </trkpt>
      <trkpt lat="48.85667" lon="2.35521">
        <ele>17</ele>
        <time>2015-09-21T20:24:15.000Z</time>
      </trkpt>
      <trkpt lat="48.85673" lon="2.35493">
        <ele>18</ele>
        <time>2015-09-21T20:24:18.000Z</time>
      </trkpt>
      <trkpt lat="48.85678" lon="2.35465">
        <ele>19</ele>
        <time>2015-09-21T20:24:21.000Z</time>
      </trkpt>
      <trkpt lat="48.85683" lon="2.35436">
        <ele>20</ele>
        <time>2015-09-21T20:24:24.000Z</time>
      </trkpt>
      <trkpt lat="48.8569" lon="2.35411">
        <ele>20.39999961853</ele>
        <time>2015-09-21T20:24:27.000Z</time>
      </trkpt>
      <trkpt lat="48.85697" lon="2.3538">
        <ele>21</ele>
        <time>2015-09-21T20:24:31.000Z</time>
      </trkpt>
      <trkpt lat="48.85699" lon="2.35373">
        <ele>21.39999961853</ele>
        <time>2015-09-21T20:24:32.000Z</time>
      </trkpt>
      <trkpt lat="48.85707" lon="2.35339">
        <ele>22.39999961853</ele>
        <time>2015-09-21T20:24:36.000Z</time>
      </trkpt>
      <trkpt lat="48.85713" lon="2.35313">
        <ele>22.200000762939</ele>
        <time>2015-09-21T20:24:39.000Z</time>
      </trkpt>
      <trkpt lat="48.8572" lon="2.35286">
        <ele>22.60000038147</ele>
        <time>2015-09-21T20:24:42.000Z</time>
      </trkpt>
      <trkpt lat="48.85726" lon="2.3526">
        <ele>22.799999237061</ele>
        <time>2015-09-21T20:24:45.000Z</time>
      </trkpt>
      <trkpt lat="48.85734" lon="2.35229">
        <ele>24.200000762939</ele>
        <time>2015-09-21T20:24:49.000Z</time>
      </trkpt>
      <trkpt lat="48.85738" lon="2.35206">
        <ele>24.60000038147</ele>
        <time>2015-09-21T20:24:52.000Z</time>
      </trkpt>
      <trkpt lat="48.85744" lon="2.35176">
        <ele>26.799999237061</ele>
        <time>2015-09-21T20:24:56.000Z</time>
      </trkpt>
      <trkpt lat="48.85751" lon="2.3515">
        <ele>28</ele>
        <time>2015-09-21T20:25:01.000Z</time>
      </trkpt>
      <trkpt lat="48.85758" lon="2.35142">
        <ele>30.200000762939</ele>
        <time>2015-09-21T20:25:07.000Z</time>
      </trkpt>
      <trkpt lat="48.8576" lon="2.35142">
        <ele>30.799999237061</ele>
        <time>2015-09-21T20:25:09.000Z</time>
      </trkpt>
      <trkpt lat="48.85761" lon="2.35125">
        <ele>31.60000038147</ele>
        <time>2015-09-21T20:25:16.000Z</time>
      </trkpt>
      <trkpt lat="48.8577" lon="2.35098">
        <ele>32</ele>
        <time>2015-09-21T20:25:22.000Z</time>
      </trkpt>
      <trkpt lat="48.85777" lon="2.3507">
        <ele>32.200000762939</ele>
        <time>2015-09-21T20:25:27.000Z</time>
      </trkpt>
      <trkpt lat="48.85786" lon="2.3504">
        <ele>32</ele>
        <time>2015-09-21T20:25:32.000Z</time>
      </trkpt>
      <trkpt lat="48.85794" lon="2.35011">
        <ele>32.599998474121</ele>
        <time>2015-09-21T20:25:37.000Z</time>
      </trkpt>
      <trkpt lat="48.85804" lon="2.34984">
        <ele>32.599998474121</ele>
        <time>2015-09-21T20:25:42.000Z</time>
      </trkpt>
      <trkpt lat="48.85812" lon="2.34955">
        <ele>33.200000762939</ele>
        <time>2015-09-21T20:25:47.000Z</time>
      </trkpt>
      <trkpt lat="48.8582" lon="2.34927">
        <ele>32.599998474121</ele>
        <time>2015-09-21T20:25:51.000Z</time>
      </trkpt>
      <trkpt lat="48.85831" lon="2.34895">
        <ele>31.60000038147</ele>
        <time>2015-09-21T20:25:55.000Z</time>
      </trkpt>
      <trkpt lat="48.85839" lon="2.34867">
        <ele>31.200000762939</ele>
        <time>2015-09-21T20:25:58.000Z</time>
      </trkpt>
      <trkpt lat="48.85848" lon="2.34839">
        <ele>30.39999961853</ele>
        <time>2015-09-21T20:26:01.000Z</time>
      </trkpt>
      <trkpt lat="48.85855" lon="2.34812">
        <ele>31.39999961853</ele>
        <time>2015-09-21T20:26:04.000Z</time>
      </trkpt>
      <trkpt lat="48.85862" lon="2.34786">
        <ele>32</ele>
        <time>2015-09-21T20:26:07.000Z</time>
      </trkpt>
      <trkpt lat="48.8587" lon="2.34763">
        <ele>31.799999237061</ele>
        <time>2015-09-21T20:26:10.000Z</time>
      </trkpt>
      <trkpt lat="48.85885" lon="2.34742">
        <ele>32.799999237061</ele>
        <time>2015-09-21T20:26:14.000Z</time>
      </trkpt>
      <trkpt lat="48.85894" lon="2.34737">
        <ele>33.200000762939</ele>
        <time>2015-09-21T20:26:16.000Z</time>
      </trkpt>
      <trkpt lat="48.85913" lon="2.34724">
        <ele>34.799999237061</ele>
        <time>2015-09-21T20:26:20.000Z</time>
      </trkpt>
      <trkpt lat="48.85925" lon="2.34713">
        <ele>35.599998474121</ele>
        <time>2015-09-21T20:26:23.000Z</time>
      </trkpt>
      <trkpt lat="48.85932" lon="2.34706">
        <ele>35.799999237061</ele>
        <time>2015-09-21T20:26:25.000Z</time>
      </trkpt>
      <trkpt lat="48.8595" lon="2.34705">
        <ele>38.400001525879</ele>
        <time>2015-09-21T20:26:31.000Z</time>
      </trkpt>
      <trkpt lat="48.85954" lon="2.34708">
        <ele>38.799999237061</ele>
        <time>2015-09-21T20:26:33.000Z</time>
      </trkpt>
      <trkpt lat="48.85957" lon="2.34711">
        <ele>39.200000762939</ele>
        <time>2015-09-21T20:26:35.000Z</time>
      </trkpt>
      <trkpt lat="48.85957" lon="2.34715">
        <ele>42.799999237061</ele>
        <time>2015-09-21T20:26:46.000Z</time>
      </trkpt>
    </trkseg>
  </trk>
</gpx>